[[{"header":{"parameterUnit":"m.s-1","parameterCategory":1,"la1":30.6,"la2":29.2853,"lo1":-89.7004,"lo2":-87.6739,"dy":0.0162,"dx":0.0183,"nx":112,"ny":82,"refTime":"2023-07-26T12:00:00:Z","depth":0,"parameterNumber":2,"parameterNumberName":"U-component_of_WINDS"},"data":[0.0,0.0,0.0,0.0,0.0,0.0,0.0,0.0,0.0,0.0,0.0,0.0,0.0,0.0,0.0,0.0,0.0,0.0,0.0,0.0,0.0,0.0,0.0,0.0,0.0,0.0,0.0,0.0,0.0,0.0,0.0,0.0,0.0,0.0,0.0,0.0,0.0,0.0,0.0,0.0,0.0,0.0,0.0,0.0,0.0,0.0,0.0,0.0,0.0,0.0,0.0,0.0,0.0,0.0,0.0,0.0,0.0,0.0,0.0,0.0,0.0,0.0,0.0,0.0,0.0,0.0,0.0,0.0,0.0,0.0,0.0,0.0,0.0,0.0,0.0,0.0,0.0,0.0,0.0,0.0,0.0,0.0,0.0,0.0,0.0,0.0,0.0,0.0,0.0,0.0,0.103,0.0312,-0.0077,-0.0088,0.0373,0.1562,0.2754,0.396,0.0,0.0,0.0,0.0,0.0,0.0,0.0,0.0,0.0,0.0,0.0,0.0,0.0,0.0,0.0,0.0,0.0,0.0,0.0,0.0,0.0,0.0,0.0,0.0,0.0,0.0,0.0,0.0,0.0,0.0,0.0,0.0,0.0,0.0,0.0,0.0,0.0,0.0,0.0,0.0,0.0,0.0,0.0,0.0,0.0,0.0,0.0,0.0,0.0,0.0,0.0,0.0,0.0,0.0,0.0,0.0,0.0,0.0,0.0,0.0,0.0,0.0,0.0,0.0,0.0,0.0,0.0,0.0,0.0,0.0,0.0,0.0,0.0,0.0,0.0,0.0,0.0,0.0,0.0,0.0,0.0,0.0,0.0,0.0,0.0,0.0,0.0,0.0,0.0,0.0,0.0,0.0,0.0,0.0,0.0,0.0,0.0,0.0,0.0,0.0,0.0,0.0,0.0,0.0,0.0485,-0.0369,-0.0549,-0.0436,0.0033,0.1301,0.2501,0.3616,0.0,0.0,0.0,0.0,0.0,0.0,0.0,0.0,0.0,0.0,0.0,0.0,0.0,0.0,0.0,0.0,0.0,0.0,0.0,0.0,0.0,0.0,0.0,0.0,0.0,0.0,0.0,0.0,0.0,0.0,0.0,0.0,0.0,0.0,0.0,0.0,0.0,0.0,0.0,0.0,0.0,0.0,0.0,0.0,0.0,0.0,0.0,0.0,0.0,0.0,0.0,0.0,0.0,0.0,0.0,0.0,0.0,0.0,0.0,0.0,0.0,0.0,0.0,0.0,0.0,0.0,0.0,0.0,0.0,0.0,0.0,0.0,0.0,0.0,0.0,0.0,0.0,0.0,0.0,0.0,0.0,0.0,0.0,0.0,0.0,0.0,0.0,0.0,0.0,0.0,0.0,0.0,0.0,0.0,0.0,0.0,0.0,0.0,0.0,0.0,0.0,0.0,0.0,0.0271,-0.0343,-0.1053,-0.1061,-0.0789,-0.0201,0.0936,0.2192,0.3524,0.5311,0.0,0.0,0.0,0.0,0.0,0.0,0.0,0.0,0.0,0.0,0.0,0.0,0.0,0.0,0.0,0.0,0.0,0.0,0.0,0.0,0.0,0.0,0.0,0.0,0.0,0.0,0.0,0.0,0.0,0.0,0.0,0.0,0.0,0.0,0.0,0.0,0.0,0.0,0.0,0.0,0.0,0.0,0.0,0.0,0.0,0.0,0.0,0.0,0.0,0.0,0.0,0.0,0.0,0.0,0.0,0.0,0.0,0.0,0.0,0.0,0.0,0.0,0.0,0.0,0.0,0.0,0.0,0.0,0.0,0.0,0.0,0.0,0.0,0.0,0.0,0.0,0.0,0.0,0.0,0.0,0.0,0.0,0.0,0.0,0.0,0.0,0.0,0.0,0.0,0.0,0.0,0.0,0.0,0.0,0.0,0.0,0.0,0.0,0.0,0.0,0.0,0.0,-0.0603,-0.1137,-0.1657,-0.153,-0.1152,-0.0535,0.0567,0.1857,0.3362,0.5255,0.0,0.0,0.0,0.0,0.0,0.0,0.0,0.0,0.0,0.0,0.0,0.0,0.0,0.0,0.0,0.0,0.0,0.0,0.0,0.0,0.0,0.0,0.0,0.0,0.0,0.0,0.0,0.0,0.0,0.0,0.0,0.0,0.0,0.0,0.0,0.0,0.0,0.0,0.0,0.0,0.0,0.0,0.0,0.0,0.0,0.0,0.0,0.0,0.0,0.0,0.0,0.0,0.0,0.0,0.0,0.0,0.0,0.0,0.0,0.0,0.0,0.0,0.0,0.0,0.0,0.0,0.0,0.0,0.0,0.0,0.0,0.0,0.0,0.0,0.0,0.0,0.0,0.0,0.0,0.0,0.0,0.0,0.0,0.0,0.0,0.0,0.0,0.0,0.0,0.0,0.0,0.0,0.0,0.0,0.0,0.0,0.0,0.0,0.0,0.0,0.0,0.0,-0.1292,-0.1742,-0.2029,-0.1841,-0.1501,-0.107,0.0167,0.1532,0.2951,0.5268,0.0,0.0,0.0,0.0,0.0,0.0,0.0,0.0,0.0,0.0,0.0,0.0,0.0,0.0,0.0,0.0,0.0,0.0,0.0,0.0,0.0,0.0,0.0,0.0,0.0,0.0,0.0,0.0,0.0,0.0,0.0,0.0,0.0,0.0,0.0,0.0,0.0,0.0,0.0,0.0,0.0,0.0,0.0,0.0,0.0,0.0,0.0,0.0,0.0,0.0,0.0,0.0,0.0,0.0,0.0,0.0,0.0,0.0,0.0,0.0,0.0,0.0,0.0,0.0,0.0,0.0,0.0,0.0,0.0,0.0,0.0,0.0,0.0,0.0,0.0,0.0,0.0,0.0,0.0,0.0,0.0,0.0,0.0,0.0,0.0,0.0,0.0,0.0,0.0,0.0,0.0,0.0,0.0,0.0,0.0,0.0,0.0,0.0,0.0,0.0,0.0,0.0,-0.2026,-0.252,-0.2776,-0.2664,-0.2299,-0.1667,-0.0399,0.0961,0.241,0.0,0.0,0.0,0.0,0.0,0.0,0.0,0.0,0.0,0.0,0.0,0.0,0.0,0.0,0.0,0.0,0.0,0.0,0.0,0.0,0.0,0.0,0.0,0.0,0.0,0.0,0.0,0.0,0.0,0.0,0.0,0.0,0.0,0.0,0.0,0.0,0.0,0.0,0.0,0.0,0.0,0.0,0.0,0.0,0.0,0.0,0.0,0.0,0.0,0.0,0.0,0.0,0.0,0.0,0.0,0.0,0.0,0.0,0.0,0.0,0.0,0.0,0.0,0.0,0.0,0.0,0.0,0.0,0.0,0.0,0.0,0.0,0.0,0.0,0.0,0.0,0.0,0.0,0.0,0.0,0.0,0.0,0.0,0.0,0.0,0.0,0.0,0.0,0.0,0.0,0.0,0.0,0.0,0.0,0.0,0.0,0.0,0.0,0.0,0.0,0.0,0.0,-0.2304,-0.2955,-0.3355,-0.3547,-0.3412,-0.3049,-0.2362,-0.1128,0.0299,0.189,0.0,0.0,0.0,0.0,0.0,0.0,0.0,0.0,0.0,0.0,0.0,0.0,0.0,0.0,0.0,0.0,0.0,0.0,0.0,0.0,0.0,0.0,0.0,0.0,0.0,0.0,0.0,0.0,0.0,0.0,0.0,0.0,0.0,0.0,0.0,0.0,0.0,0.0,0.0,0.0,0.0,0.0,0.0,0.0,0.0,0.0,0.0,0.0,0.0,0.0,0.0,0.0,0.0,0.0,0.0,0.0,0.0,0.0,0.0,0.0,0.0,0.0,0.0,0.0,0.0,0.0,0.0,0.0,0.0,0.0,0.0,0.0,0.0,0.0,0.0,0.0,0.0,0.0,0.0,0.0,0.0,0.0,0.0,0.0,0.0,0.0,0.0,0.0,0.0,0.0,0.0,0.0,0.0,0.0,0.0,0.0,0.0,0.0,0.0,0.0,0.0,0.0,-0.3883,-0.4091,-0.4199,-0.4392,-0.4055,-0.3667,-0.3253,-0.1991,-0.044,0.0,0.0,0.0,0.0,0.0,0.0,0.0,0.0,0.0,0.0,0.0,0.0,0.0,0.0,0.0,0.0,0.0,0.0,0.0,0.0,0.0,0.0,0.0,0.0,0.0,0.0,0.0,0.0,0.0,0.0,0.0,0.0,0.0,0.0,0.0,0.0,0.0,0.0,0.0,0.0,0.0,0.0,0.0,0.0,0.0,0.0,0.0,0.0,0.0,0.0,0.0,0.0,0.0,0.0,0.0,0.0,0.0,0.0,0.0,0.0,0.0,0.0,0.0,0.0,0.0,0.0,0.0,0.0,0.0,0.0,0.0,0.0,0.0,0.0,0.0,0.0,0.0,0.0,0.0,0.0,0.0,0.0,0.0,0.0,0.0,0.0,0.0,0.0,0.0,0.0,0.0,0.0,0.0,0.0,0.0,0.0,0.0,0.0,0.0,0.0,0.0,0.0,0.0,-0.4001,-0.468,-0.5099,-0.5358,-0.5149,-0.4783,-0.43,-0.3261,-0.1951,-0.0367,0.0,0.0,0.0,0.0,0.0,0.0,0.0,0.0,0.0,0.0,0.0,0.0,0.0,0.0,0.0,0.0,0.0,0.0,0.0,0.0,0.0,0.0,0.0,0.0,0.0,0.0,0.0,0.0,0.0,0.0,0.0,0.0,0.0,0.0,0.0,0.0,0.0,0.0,0.0,0.0,0.0,0.0,0.0,0.0,0.0,0.0,0.0,0.0,0.0,0.0,0.0,0.0,0.0,0.0,0.0,0.0,0.0,0.0,0.0,0.0,0.0,0.0,0.0,0.0,0.0,0.0,0.0,0.0,0.0,0.0,0.0,0.0,0.0,0.0,0.0,0.0,0.0,0.0,0.0,0.0,0.0,0.0,0.0,0.0,0.0,0.0,0.0,0.0,0.0,0.0,0.0,0.0,0.0,0.0,0.0,0.0,0.0,0.0,0.0,0.0,0.0,0.0,-0.4535,-0.5331,-0.5882,-0.6083,-0.5975,-0.5674,-0.5248,-0.448,-0.339,-0.1971,0.0,0.0,0.0,0.0,0.0,0.0,0.0,0.0,0.0,0.0,0.0,0.0,0.0,0.0,0.0,0.0,0.0,0.0,0.0,0.0,0.0,0.0,0.0,0.0,0.0,0.0,0.0,0.0,0.0,0.0,0.0,0.0,0.0,0.0,0.0,0.0,0.0,0.0,0.0,0.0,0.0,0.0,0.0,0.0,0.0,0.0,0.0,0.0,0.0,0.0,0.0,0.0,0.0,0.0,0.0,0.0,0.0,0.0,0.0,0.0,0.0,0.0,0.0,0.0,0.0,0.0,0.0,0.0,0.0,0.0,0.0,0.0,0.0,0.0,0.0,0.0,0.0,0.0,0.0,0.0,0.0,0.0,0.0,0.0,0.0,0.0,0.0,0.0,0.0,0.0,0.0,0.0,0.0,0.0,0.0,0.0,0.0,0.0,0.0,0.0,0.0,0.0,-0.5529,-0.6207,-0.6679,-0.6798,-0.6698,-0.6529,-0.6228,-0.5738,-0.4877,-0.3585,0.0,0.0,0.0,0.0,0.0,0.0,0.0,0.0,0.0,0.0,0.0,0.0,0.0,0.0,0.0,0.0,0.0,0.0,0.0,0.0,0.0,0.0,0.0,0.0,0.0,0.0,0.0,0.0,0.0,0.0,0.0,0.0,0.0,0.0,0.0,0.0,0.0,0.0,0.0,0.0,0.0,0.0,0.0,0.0,0.0,0.0,0.0,0.0,0.0,0.0,0.0,0.0,0.0,0.0,0.0,0.0,0.0,0.0,0.0,0.0,-0.3933,-0.3585,0.0,0.0,0.0,0.0,0.0,0.0,0.0,0.0,0.0,0.0,0.0,0.0,0.0,0.0,0.0,0.0,0.0,0.0,0.0,0.0,0.0,0.0,0.0,0.0,0.0,0.0,0.0,0.0,0.0,0.0,0.0,0.0,0.0,0.0,0.0,0.0,0.0,0.0,0.0,0.0,-0.7245,-0.7999,-0.8435,-0.8335,-0.8399,-0.8239,-0.7705,-0.7396,-0.6834,-0.5854,-0.4114,0.0,0.0,0.0,0.0,0.0,0.0,0.0,0.0,0.0,0.0,0.0,0.0,0.0,0.0,0.0,0.0,0.0,0.0,0.0,0.0,0.0,0.0,0.0,0.0,0.0,0.0,0.0,0.0,0.0,0.0,0.0,0.0,0.0,0.0,0.0,0.0,0.0,0.0,0.0,0.0,0.0,0.0,0.0,0.0,0.0,0.0,0.0,0.0,0.0,0.0,0.0,0.0,0.0,0.0,0.0,0.0,0.0,0.0,0.0,-0.6197,-0.559,0.0,0.0,0.0,0.0,0.0,0.0,0.0,0.0,0.0,0.0,0.0,0.0,0.0,0.0,0.0,0.0,0.0,0.0,0.0,0.0,0.0,0.0,0.0,0.0,0.0,0.0,0.0,0.0,0.0,0.0,0.0,0.0,0.0,0.0,0.0,0.0,0.0,0.0,0.0,0.0,-0.8552,-0.9294,-0.9713,-0.9728,-0.9969,-1.0054,-0.9765,-0.9815,-0.9563,-0.8869,-0.74,0.0,0.0,0.0,0.0,0.0,0.0,0.0,0.0,0.0,0.0,0.0,0.0,0.0,0.0,0.0,0.0,0.0,0.0,0.0,0.0,0.0,0.0,0.0,0.0,0.0,0.0,0.0,0.0,0.0,0.0,0.0,0.0,0.0,0.0,0.0,0.0,0.0,0.0,0.0,0.0,0.0,0.0,0.0,0.0,0.0,0.0,0.0,0.0,0.0,0.0,0.0,0.0,0.0,-0.8438,-0.8865,-0.9013,-0.9622,-0.9938,-0.9996,-0.861,-0.7938,-0.7751,-0.7742,0.0,0.0,0.0,0.0,0.0,0.0,0.0,0.0,0.0,0.0,0.0,0.0,0.0,0.0,0.0,0.0,0.0,0.0,0.0,0.0,0.0,0.0,-0.6727,-0.7534,-0.7809,-0.7357,-0.5323,0.0,0.0,0.0,0.0,0.0,0.0,0.0,0.0,0.0,0.0,0.0,-0.9989,-1.0616,-1.1074,-1.1154,-1.158,-1.19,-1.1882,-1.2238,-1.228,-1.1814,-1.0751,-0.9314,0.0,0.0,0.0,0.0,0.0,0.0,0.0,0.0,0.0,0.0,0.0,0.0,0.0,0.0,0.0,0.0,0.0,0.0,0.0,0.0,0.0,0.0,0.0,0.0,0.0,0.0,0.0,0.0,0.0,0.0,0.0,0.0,-0.0177,-0.0792,0.0,0.0,0.0,0.0,0.0,0.0,0.0,0.0,0.0,0.0,0.0,0.0,0.0,-0.7335,-0.84,-0.8709,-0.9212,-0.9906,-1.0595,-1.0868,-1.0857,-1.1525,-1.1851,-1.1868,-1.1819,0.0,-0.9557,-0.9564,0.0,0.0,0.0,0.0,0.0,0.0,0.0,0.0,0.0,0.0,0.0,0.0,0.0,0.0,0.0,0.0,0.0,0.0,0.0,0.0,0.0,0.0,-0.9313,-1.0038,-1.0289,-1.0333,-1.0294,-0.8663,-0.7297,-0.7459,-0.7716,-0.7974,0.0,0.0,0.0,0.0,0.0,0.0,-1.221,-1.281,-1.311,-1.2968,-1.3473,-1.3733,-1.3428,-1.377,-1.3914,-1.3672,-1.3318,-1.2302,-1.0416,-0.8358,0.0,0.0,0.0,0.0,0.0,0.0,0.0,0.0,0.0,0.0,0.0,0.0,0.0,0.0,0.0,0.0,0.0,0.0,0.0,0.0,0.0,0.0,0.0,0.0,0.0,0.0,0.0,0.0,0.0,-0.1348,-0.178,-0.2419,-0.2858,-0.3261,0.0,0.0,0.0,0.0,0.0,0.0,0.0,0.0,0.0,-0.8532,-0.8853,-0.9529,-1.0597,-1.1013,-1.1621,-1.2445,-1.3116,-1.3471,-1.3496,-1.4032,-1.4164,-1.3939,-1.4258,-1.3716,-1.2529,-1.1659,-1.1041,-1.0561,0.0,0.0,0.0,0.0,-1.0417,-1.0887,-1.0902,-1.126,-1.171,-1.1331,0.0,0.0,0.0,0.0,0.0,0.0,0.0,-0.9656,-1.055,-1.1064,-1.1516,-1.227,-1.2481,-1.2564,-1.2731,-1.1931,-1.0981,-1.0143,-1.0087,-1.0248,-1.0446,-1.0946,0.0,0.0,0.0,-1.3408,-1.3821,-1.4381,-1.4711,-1.4718,-1.5288,-1.5655,-1.5614,-1.6075,-1.633,-1.6251,-1.5917,-1.497,-1.3283,-1.1258,-0.8234,0.0,0.0,0.0,0.0,0.0,0.0,0.0,0.0,0.0,0.0,0.0,0.0,0.0,0.0,0.0,0.0,0.0,0.0,0.0,0.0,0.0,0.0,0.0,0.0,0.0,0.0,0.0,0.0,-0.2708,-0.3131,-0.3749,-0.415,-0.4474,0.0,0.0,0.0,0.0,0.0,0.0,-0.8564,-0.9153,-0.9866,-1.06,-1.1103,-1.1818,-1.2704,-1.3223,-1.3761,-1.4469,-1.5143,-1.5468,-1.5506,-1.5997,-1.6031,-1.5833,-1.5948,-1.5798,-1.5258,-1.372,-1.2935,-1.2637,-1.2305,-1.2046,-1.1921,-1.2185,-1.2678,-1.325,-1.3155,-1.3582,-1.4087,-1.3732,-1.3556,-1.3336,-1.2705,0.0,0.0,0.0,0.0,-1.2235,-1.3051,-1.3565,-1.4038,-1.4643,-1.4855,-1.4851,-1.4685,-1.4644,-1.4144,-1.2459,-1.2177,-1.2283,-1.2492,-1.2926,0.0,-1.3794,-1.4398,-1.4946,-1.5213,-1.566,-1.6049,-1.6222,-1.6806,-1.7243,-1.7462,-1.7973,-1.8294,-1.8321,-1.8046,-1.7261,-1.59,-1.3743,-1.0694,-0.6654,0.0,0.0,0.0,0.0,0.0,0.0,0.0,0.0,0.0,0.0,0.0,0.0,0.0,0.0,0.0,0.0,0.0,0.0,0.0,0.0,0.0,0.0,0.0,0.0,0.0,0.0,0.0,0.0,0.0,-0.4685,-0.5255,0.0,0.0,0.0,0.0,-0.7776,-0.8829,-0.9608,-0.9979,-1.0892,-1.1752,-1.2638,-1.3353,-1.4104,-1.4925,-1.5091,-1.5256,-1.5453,-1.6051,-1.6252,-1.6058,-1.6651,-1.7048,-1.7158,-1.6622,-1.6708,-1.7162,-1.5605,-1.4646,-1.4192,-1.4455,-1.443,-1.434,-1.4546,-1.479,-1.5031,-1.5319,-1.5628,-1.5933,-1.622,-1.6333,-1.625,-1.544,-1.5119,0.0,0.0,-1.4972,-1.5344,-1.6021,-1.6636,-1.7148,-1.7356,-1.7518,-1.7451,-1.6774,-1.6638,-1.6097,-1.4246,-1.388,-1.3945,-1.4233,0.0,-1.4823,-1.5242,-1.5721,-1.6111,-1.6365,-1.6763,-1.7109,-1.7386,-1.7834,-1.8243,-1.8497,-1.884,-1.9102,-1.9228,-1.9388,-1.9088,-1.8174,-1.5763,-1.3077,-1.0112,-0.463,0.0,0.0,0.0,0.0,0.0,0.0,0.0,0.0,0.0,0.0,0.0,0.0,0.0,0.0,0.0,0.0,0.0,0.0,0.0,0.0,0.0,0.0,0.0,0.0,0.0,0.0,0.0,0.0,-0.6451,-0.705,0.0,-0.784,-0.8475,-0.9172,-0.9826,-1.0588,-1.1415,-1.2347,-1.2978,-1.366,-1.4499,-1.498,-1.5647,-1.6595,-1.6647,-1.692,-1.7523,-1.7706,-1.776,-1.7746,-1.809,-1.8243,-1.8117,-1.8166,-1.8273,-1.8351,-1.7648,-1.6641,-1.5527,-1.5338,-1.5259,-1.5234,-1.5496,-1.5859,-1.6251,-1.6282,-1.6659,-1.7104,-1.713,-1.7238,-1.7246,-1.7016,-1.691,-1.683,-1.6764,-1.6848,-1.7022,-1.7403,-1.7785,-1.813,-1.8315,-1.8481,-1.8505,-1.8324,-1.8302,-1.8051,-1.703,-1.6074,-1.5489,-1.566,-1.5912,-1.6173,-1.6433,-1.6827,-1.7101,-1.7245,-1.762,-1.7941,-1.811,-1.8499,-1.8823,-1.9093,-1.9331,-1.9557,-1.9738,-1.9935,-1.968,-1.8844,-1.6938,-1.4595,-1.1827,-0.8449,-0.5166,0.0,0.0,0.0,0.0,0.0,0.0,0.0,0.0,0.0,0.0,0.0,0.0,0.0,0.0,0.0,0.0,0.0,0.0,0.0,0.0,0.0,0.0,0.0,0.0,0.0,-0.6372,-0.7139,-0.8092,-0.8692,-0.9211,-0.9716,-1.0362,-1.1068,-1.181,-1.2415,-1.3204,-1.4175,-1.4727,-1.5359,-1.6074,-1.6499,-1.7099,-1.7862,-1.7915,-1.8248,-1.8815,-1.8815,-1.8869,-1.9028,-1.9186,-1.929,-1.9321,-1.9487,-1.9572,-1.9696,-1.9396,-1.859,-1.7461,-1.6802,-1.6572,-1.662,-1.6881,-1.7293,-1.7735,-1.7741,-1.8085,-1.8519,-1.8508,-1.8558,-1.8705,-1.8788,-1.874,-1.8659,-1.8659,-1.8677,-1.8789,-1.8965,-1.9233,-1.9539,-1.9691,-1.9864,-1.9927,-1.9778,-1.9822,-1.9724,-1.9235,-1.7953,-1.6923,-1.6811,-1.6954,-1.724,-1.769,-1.8017,-1.8353,-1.8758,-1.8866,-1.8981,-1.9165,-1.9186,-1.9291,-1.9526,-1.9717,-1.9915,-2.0101,-2.0262,-2.0095,-1.9587,-1.793,-1.5883,-1.3481,-1.0647,-0.817,-0.607,0.0,0.0,0.0,0.0,0.0,0.0,0.0,0.0,0.0,0.0,0.0,0.0,0.0,0.0,0.0,0.0,0.0,0.0,0.0,0.0,0.0,0.0,0.0,-0.7348,-0.7881,-0.8707,-0.9573,-1.0197,-1.0816,-1.1601,-1.2452,-1.3147,-1.3557,-1.4272,-1.485,-1.5352,-1.6041,-1.6707,-1.7224,-1.7959,-1.8506,-1.8798,-1.8946,-1.9093,-1.9226,-1.9239,-1.9436,-1.985,-1.985,-2.0207,-2.0818,-2.0346,-2.0528,-2.1108,-2.0769,-2.045,-2.0084,-1.8977,-1.8606,-1.8655,-1.8855,-1.9118,-1.9479,-1.9717,-1.9945,-2.0135,-2.0342,-2.0496,-2.063,-2.0778,-2.0745,-2.063,-2.0548,-2.0581,-2.0663,-2.0827,-2.1135,-2.1464,-2.1603,-2.1768,-2.1757,-2.1177,-2.117,-2.1139,-2.0732,-1.9559,-1.8425,-1.7828,-1.771,-1.8054,-1.9024,-1.9342,0.0,-2.088,-2.053,-2.0245,-2.0499,-2.0006,-1.972,-1.9847,-2.0031,-2.0204,-2.0365,-2.0441,-2.0519,-2.0582,-1.8854,-1.706,-1.521,-1.1138,-0.9397,-1.0171,0.0,0.0,0.0,0.0,0.0,0.0,0.0,0.0,0.0,0.0,0.0,0.0,0.0,0.0,0.0,0.0,0.0,0.0,0.0,0.0,0.0,-0.9731,-1.0146,-0.9517,-1.0202,-1.1017,-1.1646,-1.2281,-1.2853,-1.328,-1.3972,-1.4611,-1.5266,-1.5765,-1.6363,-1.7004,-1.7517,-1.7974,-1.836,-1.8744,-1.9081,-1.9356,-1.95,-1.9708,-1.9914,-2.0105,-2.0295,-2.0547,-2.0809,-2.1104,-2.1396,-2.1661,-2.1917,-2.2164,-2.1917,-2.185,-2.1709,-2.0401,-1.9631,-1.9295,-1.9543,-1.9844,-2.012,-2.0224,-2.041,-2.0613,-2.0745,-2.0909,-2.1103,-2.1198,-2.1245,-2.126,-2.1355,-2.1417,-2.1524,-2.1688,-2.1924,-2.2158,-2.2287,-2.2398,-2.2466,-2.2392,-2.2521,-2.2498,-2.201,-2.1756,-2.1325,-2.0374,-2.0215,-2.0289,-2.0578,-2.0791,-2.1038,-2.1388,-2.1506,-2.1354,-2.0913,-2.0838,-2.0889,-2.1023,-2.1123,-2.1491,-2.2213,-2.2275,-2.2281,-2.2312,-2.1122,-1.9377,-1.7021,-1.5017,-1.4081,0.0,0.0,0.0,0.0,0.0,0.0,0.0,0.0,0.0,0.0,0.0,0.0,0.0,0.0,0.0,0.0,0.0,0.0,0.0,0.0,0.0,0.0,-1.1906,-1.26,-1.2767,-1.2731,-1.2937,-1.3766,-1.4421,-1.501,-1.5519,-1.6105,-1.6594,-1.6959,-1.728,-1.7654,-1.7975,-1.8302,-1.8679,-1.9064,-1.9576,-1.984,-1.9914,-2.0257,-2.0463,-2.0536,-2.0772,-2.1006,-2.1299,-2.1636,-2.1921,-2.2156,-2.2618,-2.2949,-2.3113,-2.3206,-2.3141,-2.2909,0.0,0.0,0.0,0.0,-2.0614,-2.0778,-2.0828,-2.0958,-2.1103,-2.1182,-2.1355,-2.1526,-2.1615,-2.1675,-2.1735,-2.1882,-2.1969,-2.2039,-2.2192,-2.2392,-2.2588,-2.2659,-2.279,-2.2902,-2.3042,-2.3236,-2.3365,-2.3182,-2.3344,0.0,-2.2758,-2.199,-2.1589,-2.1935,-2.21,-2.2334,-2.2785,-2.278,-2.2595,-2.2262,-2.2039,-2.1971,-2.2088,-2.2144,0.0,0.0,0.0,-2.2929,-2.277,-2.1722,0.0,0.0,0.0,-1.6797,-1.6373,-1.5731,0.0,0.0,-0.9753,-0.8221,0.0,0.0,0.0,0.0,0.0,0.0,0.0,0.0,0.0,0.0,0.0,0.0,0.0,0.0,0.0,0.0,-1.4291,-1.5282,-1.6346,-1.5361,-1.4906,-1.5792,-1.6305,-1.6951,-1.7852,-1.8373,-1.861,-1.8576,-1.8726,-1.879,-1.8581,-1.8768,0.0,0.0,0.0,-2.0768,-2.068,-2.1186,-2.1353,-2.1189,-2.1256,-2.1616,-2.2077,-2.2328,-2.2649,-2.3024,-2.3377,-2.3638,-2.3909,-2.4359,-2.428,-2.3711,-2.1926,-2.1404,-2.1626,-2.1424,-2.134,-2.1402,-2.1493,0.0,0.0,-2.1708,-2.1797,-2.1869,-2.1998,-2.2056,-2.2113,-2.2248,-2.233,-2.2412,-2.2502,-2.2695,-2.2876,-2.2902,-2.3052,-2.323,-2.3346,-2.357,-2.386,-2.4173,-2.4408,-2.4594,-2.4704,-2.3279,-2.2393,-2.3167,-2.331,-2.3614,-2.4531,-2.4155,-2.3835,-2.3928,-2.3365,0.0,-2.3052,-2.311,-2.32,-2.3276,-2.3251,-2.3075,-2.2699,-2.1639,-2.0758,-2.0114,-1.9243,-1.8399,-1.7587,-1.7173,-1.6641,-1.5945,-1.3337,-1.1433,0.0,0.0,0.0,0.0,0.0,0.0,0.0,0.0,0.0,0.0,0.0,0.0,0.0,0.0,0.0,-1.5256,-1.6248,-1.7294,-1.8207,-1.8114,-1.7688,-1.7039,-1.7574,-1.8105,-1.8544,-1.9157,-1.9597,-1.9831,-1.9785,-1.9708,-1.9667,-1.9629,-1.9907,-2.0583,-2.1133,-2.1681,-2.226,-2.215,-2.215,-2.2228,-2.2172,0.0,-2.2572,-2.3009,-2.3363,-2.3653,-2.3994,-2.4204,-2.4313,-2.4679,-2.4646,-2.4285,-2.276,-2.2296,-2.2475,-2.1849,-2.1708,-2.1781,-2.1794,-2.1895,-2.1982,-2.201,-2.213,-2.2304,-2.2388,-2.248,0.0,-2.2782,-2.2884,-2.301,-2.3236,-2.3324,-2.3394,-2.3495,-2.3602,-2.3692,-2.3842,-2.4023,-2.4265,-2.4474,-2.47,-2.4861,-2.4929,-2.4507,-2.4204,-2.4452,-2.4511,-2.4647,-2.4892,-2.4952,-2.4761,-2.4206,-2.4063,-2.4027,-2.4032,-2.4043,-2.4326,-2.4985,-2.4803,-2.4594,-2.4355,-2.3704,-2.3095,-2.2539,-2.1729,-2.0865,-2.0019,-1.9206,-1.8267,-1.7194,-1.5184,-1.391,0.0,0.0,0.0,0.0,0.0,0.0,0.0,0.0,0.0,0.0,0.0,-1.4982,0.0,0.0,-1.7634,-1.8019,-1.8983,-1.9802,-2.0095,-2.0279,-1.9975,-1.8818,-1.9082,-1.9522,-2.007,-2.0511,-2.083,-2.0878,-2.1006,-2.0797,-2.0256,-2.0376,-2.0719,-2.1224,-2.1931,-2.2642,-2.3305,-2.321,-2.3145,-2.3097,-2.284,-2.2889,-2.3157,-2.3638,-2.4036,-2.4328,-2.4695,-2.4895,-2.5036,-2.5384,-2.5546,-2.5405,-2.4365,-2.352,-2.2822,-2.2228,-2.2077,-2.2175,-2.2287,-2.2381,-2.2446,-2.2446,-2.2535,-2.2605,-2.2685,-2.2764,-2.2893,-2.3126,-2.3271,-2.3389,-2.3576,-2.3664,-2.3728,-2.3834,-2.3919,-2.4058,-2.4211,-2.4371,-2.4554,-2.476,-2.4947,-2.5063,-2.5091,-2.5041,-2.5005,-2.5,-2.5061,-2.5124,-2.5187,-2.5318,-2.5259,-2.4935,-2.4932,-2.4956,-2.4959,-2.4856,-2.4966,-2.534,-2.5097,-2.4831,-2.4554,-2.41,-2.3574,-2.2972,-2.2286,-2.1552,-2.0731,-1.9934,-1.9148,-1.8389,-1.7295,-1.6175,0.0,0.0,0.0,0.0,0.0,0.0,0.0,0.0,-1.613,-1.7098,-1.7688,-1.8163,-1.8565,-1.9672,-2.0616,-2.0792,-2.1493,-2.1958,-2.1761,-2.1866,-2.1548,-2.0534,-2.0557,-2.0933,-2.1526,-2.1827,-2.203,-2.1919,-2.2092,-2.1875,-2.1096,-2.1194,-2.1485,-2.1916,-2.2787,-2.3554,-2.4193,-2.4346,-2.4283,-2.397,-2.364,-2.3555,-2.3739,-2.4204,-2.4614,-2.4974,-2.5378,-2.5605,-2.5754,-2.6082,-2.633,-2.6386,-2.5765,-2.4622,-2.3268,-2.2755,-2.2541,-2.2515,-2.2685,-2.2816,-2.2893,-2.2876,-2.2893,-2.2919,-2.2995,-2.3052,-2.3151,-2.3389,-2.3571,-2.3703,-2.3774,-2.3896,-2.3998,-2.4077,-2.4192,-2.4356,-2.4526,-2.4685,-2.4832,-2.5,-2.5141,-2.5241,-2.5243,-2.5283,-2.5311,-2.5244,-2.5293,-2.5368,-2.5421,-2.5489,-2.5545,-2.5598,-2.5586,-2.5576,-2.5535,-2.5362,-2.5207,-2.5138,-2.4845,-2.4548,-2.4229,-2.3846,-2.3333,-2.2695,-2.2136,-2.1524,-2.0844,-2.0224,-1.9717,-1.9369,-1.9072,-1.8049,-1.3907,-1.4534,-1.5209,-1.5671,-1.6329,-1.7122,0.0,0.0,-1.9787,-2.0164,-2.1024,-2.1661,-2.1403,-2.2226,-2.2892,-2.2775,-2.2807,-2.2867,-2.2803,-2.242,-2.2003,-2.1464,-2.1604,-2.1827,-2.2061,-2.2432,-2.2702,-2.293,-2.2774,-2.2776,-2.286,-2.2313,-2.2345,-2.3169,-2.3817,-2.4495,-2.5246,-2.5712,-2.5639,-2.5037,-2.4867,-2.4587,-2.4219,-2.4639,-2.5075,-2.553,-2.5937,-2.6154,-2.6225,-2.626,-2.6435,-2.659,-2.5863,-2.5178,-2.4509,-2.3733,-2.3144,-2.279,-2.2919,-2.3045,-2.3168,-2.3217,-2.3241,-2.3265,-2.3313,-2.3412,-2.3549,-2.3646,-2.3813,-2.3976,-2.4113,-2.4209,-2.4284,-2.4409,-2.4545,-2.4689,-2.4832,-2.4961,-2.5082,-2.5168,-2.5283,-2.537,-2.5376,-2.543,-2.5459,-2.5393,-2.5425,-2.549,-2.5578,-2.5586,-2.5586,-2.5593,-2.5548,-2.5459,-2.5332,-2.5154,-2.4975,-2.4861,-2.4554,-2.4229,-2.3964,-2.3552,-2.3117,-2.2617,-2.2096,-2.1524,-2.0975,-2.0478,-2.0131,-1.9919,-1.969,-1.9185,-1.4462,-1.5563,-1.6757,0.0,-1.8521,-1.9827,-2.0898,-2.1784,-2.2617,-2.3319,-2.3793,-2.3968,-2.3731,-2.4213,-2.4406,0.0,-2.4041,-2.4128,-2.3753,-2.3354,-2.2912,-2.2405,-2.2196,-2.2043,-2.1836,-2.2179,-2.2602,-2.3,-2.3438,-2.3677,-2.3615,-2.3674,-2.3727,-2.3858,-2.4805,-2.5487,-2.5994,-2.6426,-2.6387,-2.5817,-2.5582,-2.5201,-2.4775,-2.5192,-2.5647,-2.6206,-2.6486,-2.6674,-2.6691,-2.6691,-2.6792,-2.6906,-2.6646,-2.5945,-2.4982,-2.4109,-2.3431,-2.3003,-2.3223,-2.3389,-2.3499,-2.3531,-2.3535,-2.3553,-2.3576,-2.3664,-2.3792,-2.3896,-2.4056,-2.4191,-2.4284,-2.4392,-2.4512,-2.4645,-2.4783,-2.4893,-2.5006,-2.5122,-2.5239,-2.5293,-2.5385,-2.5449,-2.5453,-2.5507,-2.555,-2.552,-2.5547,-2.557,-2.5599,-2.5563,-2.5506,-2.5426,-2.5328,-2.5215,-2.508,-2.4839,-2.4644,-2.447,-2.4174,-2.3903,-2.3635,-2.3253,-2.2865,-2.2432,-2.1895,-2.1401,-2.0942,-2.0527,-2.02,-2.0005,-1.9797,-1.9545,-1.5831,-1.7343,0.0,-1.9857,-2.1506,-2.3183,-2.3996,-2.497,-2.5725,-2.604,-2.6134,-2.5922,-2.5229,-2.5288,-2.5211,-2.4489,-2.4679,-2.4754,-2.4343,-2.3896,-2.341,-2.2682,-2.2348,-2.1994,-2.1517,-2.2133,-2.2757,-2.3237,-2.4033,-2.4563,-2.4559,-2.4878,-2.5015,-2.4897,-2.5766,-2.6411,-2.6669,-2.7235,-2.7272,-2.6805,-2.6466,-2.6061,-2.5612,-2.5893,-2.6279,-2.6742,-2.6942,-2.7072,-2.7105,-2.7105,-2.7152,-2.7195,-2.7051,-2.6335,-2.5304,-2.4471,-2.3751,-2.3271,-2.3508,-2.3682,-2.3789,-2.3834,-2.3816,-2.3816,-2.3837,-2.3917,-2.4018,-2.4152,-2.4266,-2.4392,-2.4459,-2.4572,-2.4716,-2.4832,-2.4972,-2.5082,-2.5138,-2.5243,-2.5341,-2.5401,-2.5485,-2.5529,-2.5537,-2.5567,-2.5597,-2.5605,-2.5586,-2.5584,-2.5595,-2.5504,-2.5396,-2.5226,-2.5094,-2.4967,-2.4804,-2.4548,-2.4299,-2.41,-2.3821,-2.354,-2.3271,-2.295,-2.259,-2.2192,-2.1688,-2.1245,-2.0828,-2.041,-2.0131,-1.9919,-1.9762,-1.9654,-1.8454,0.0,-2.2555,-2.3724,-2.5659,-2.7305,-2.7279,-2.8641,-2.948,-2.7931,-2.7871,-2.755,-2.5748,-2.5216,-2.5048,-2.4914,-2.4491,-2.4287,-2.4376,-2.393,-2.3176,-2.1955,-2.1796,-2.1736,0.0,-2.2578,-2.3503,-2.3849,-2.4666,-2.5481,-2.6201,-2.5957,-2.6029,-2.6508,-2.6814,-2.7115,-2.7349,-2.8358,-2.8573,-2.8044,-2.7747,-2.7364,-2.6847,-2.6789,-2.6891,-2.7103,-2.731,-2.7373,-2.7404,-2.7404,-2.7434,-2.7426,-2.669,-2.6104,-2.5603,-2.4998,-2.4275,-2.3594,-2.3732,-2.3876,-2.4016,-2.4151,-2.4151,-2.4094,-2.417,-2.419,-2.421,-2.4339,-2.4497,-2.4607,-2.4673,-2.4794,-2.4902,-2.498,-2.5094,-2.5209,-2.5283,-2.534,-2.5426,-2.5479,-2.5546,-2.5601,-2.5603,-2.5603,-2.5602,-2.5601,-2.5546,-2.5532,-2.5598,-2.5434,-2.5226,-2.5041,-2.4885,-2.4733,-2.4538,-2.4284,-2.4039,-2.3819,-2.3491,-2.3206,-2.2944,-2.2668,-2.2326,-2.1911,-2.1509,-2.1071,-2.0597,-2.0273,-2.001,-1.9797,-1.9726,-1.9654,-1.9803,0.0,-2.4408,-2.613,-2.7799,-2.9044,-2.9464,-2.9652,-2.9448,-2.8368,-2.7414,-2.6274,-2.4614,-2.3784,-2.3299,-2.3246,-2.3283,-2.3441,-2.3996,-2.3723,-2.332,-2.2902,-2.2594,0.0,0.0,0.0,-2.3603,-2.4048,-2.5406,-2.6428,-2.6938,-2.7205,-2.7236,-2.7084,-2.7938,-2.8232,-2.7884,-2.8952,-2.895,-2.7888,-2.7257,-2.6985,-2.7046,-2.7139,-2.7303,-2.7522,-2.7654,-2.7742,-2.7742,-2.7742,-2.7789,-2.784,-2.7147,-2.6522,-2.5967,-2.5365,-2.4712,-2.4114,-2.4077,-2.4115,-2.421,-2.4302,-2.4321,-2.4303,-2.4321,-2.4374,-2.4426,-2.4512,-2.4657,-2.4808,-2.4884,-2.4987,-2.5099,-2.5134,-2.5252,-2.5341,-2.5357,-2.543,-2.5486,-2.5552,-2.5584,-2.5597,-2.5605,-2.5609,-2.5563,-2.548,-2.5446,-2.541,-2.5337,-2.5214,-2.5019,-2.4818,-2.4651,-2.4456,-2.4247,-2.3943,-2.3692,-2.3491,-2.3157,-2.2876,-2.2632,-2.2326,-2.1998,-2.1645,-2.1245,-2.0828,-2.0478,-2.0185,-1.994,-1.9797,-1.9726,-1.9632,-2.2658,-2.5051,-2.7321,-2.9083,-3.0263,-3.1058,-3.094,-3.0426,-2.9461,-2.7952,-2.6409,-2.4767,-2.2951,-2.211,-2.1677,-2.1724,-2.2323,-2.3068,-2.3885,-2.4057,-2.4071,-2.4071,-2.3865,-2.3756,0.0,0.0,0.0,-2.4728,-2.6205,-2.7452,-2.8232,-2.8345,-2.8466,-2.8575,-2.91,-2.9214,-2.8941,-2.974,-2.9502,-2.829,-2.7872,-2.7519,-2.7293,-2.7517,-2.7725,-2.7933,-2.8055,-2.795,-2.77,-2.77,-2.7567,-2.7325,-2.6651,-2.6186,-2.5856,-2.524,-2.4801,-2.4498,-2.4355,-2.4338,-2.4426,-2.4512,-2.4512,-2.4479,-2.4528,-2.4578,-2.4629,-2.4719,-2.4847,-2.4987,-2.505,-2.5157,-2.5273,-2.5284,-2.5359,-2.5441,-2.5473,-2.5515,-2.5554,-2.5598,-2.5602,-2.5602,-2.5595,-2.5532,-2.5446,-2.5303,-2.5274,-2.5234,-2.5141,-2.4987,-2.4823,-2.4607,-2.4407,-2.4211,-2.4019,-2.371,-2.3422,-2.3182,-2.285,-2.2579,-2.2287,-2.2015,-2.1691,-2.1339,-2.0958,-2.0597,-2.0308,-2.001,-1.9848,-1.9741,-1.9617,-1.9472,-2.6752,-2.9154,-3.1039,-3.236,-3.3126,-3.3156,-3.1779,-3.0866,-2.951,-2.6648,-2.4828,-2.3076,0.0,0.0,-2.0331,-2.0457,-2.1729,-2.311,-2.4086,-2.4781,-2.5257,0.0,0.0,0.0,0.0,0.0,0.0,-2.5983,-2.7246,-2.8658,-3.0004,-2.947,-2.9671,-3.0907,-3.0259,-3.0103,-3.051,-3.0642,-3.0224,-2.9246,-2.9455,-2.8891,-2.763,-2.7915,-2.8128,-2.8327,-2.8404,-2.8023,-2.7337,-2.7283,-2.682,-2.6054,-2.5408,-2.523,-2.5337,-2.4737,-2.4588,-2.4689,-2.4588,-2.4572,-2.4639,-2.4772,-2.4723,-2.4639,-2.4772,-2.4806,-2.485,-2.4966,-2.5063,-2.5138,-2.5192,-2.5303,-2.5404,-2.541,-2.5459,-2.5529,-2.558,-2.5603,-2.5593,-2.5605,-2.5595,-2.5584,-2.5591,-2.5418,-2.5245,-2.5107,-2.5025,-2.498,-2.498,-2.4804,-2.4604,-2.4407,-2.4192,-2.4001,-2.3795,-2.3549,-2.3241,-2.2902,-2.2605,-2.2287,-2.1899,-2.1694,-2.1419,-2.1103,-2.0695,-2.0357,-2.0065,-1.9833,-1.9669,-1.9574,-1.9376,-1.9213,-2.8935,-3.0944,-3.2338,-3.3597,-3.3673,-3.3077,-3.1677,-2.9642,-2.743,-2.5002,-2.2936,-2.1074,0.0,0.0,0.0,-1.9759,-2.1183,0.0,-2.3943,-2.4859,0.0,-2.6197,0.0,-2.6948,-2.7538,-2.8618,0.0,-2.9753,-2.9906,-3.0401,-3.142,-3.1586,-3.1597,-3.1413,-3.1421,-3.1266,-3.0942,-3.0755,-3.0368,-2.9791,-2.9376,-2.88,-2.8136,-2.8309,-2.8466,-2.8558,-2.8034,-2.7742,-2.7547,-2.6964,-2.6607,-2.6405,-2.5721,-2.5523,-2.5558,-2.5001,-2.4847,-2.4929,-2.4994,-2.4929,-2.4842,-2.4912,-2.4884,-2.4842,-2.4912,-2.4959,-2.4985,-2.5106,-2.5209,-2.5264,-2.534,-2.5406,-2.5479,-2.5465,-2.5537,-2.5577,-2.5607,-2.5604,-2.5602,-2.5603,-2.5513,-2.5446,-2.5382,-2.5245,-2.5115,-2.4974,-2.4823,-2.47,-2.47,-2.4572,-2.4389,-2.421,-2.3998,-2.3795,-2.3598,-2.3247,-2.2902,-2.2615,-2.2243,-2.1928,-2.1694,-2.1433,-2.1183,-2.0893,-2.0527,-2.0185,-1.9869,-1.9617,-1.945,-1.9376,-1.9101,-1.895,-3.1726,-3.3325,-3.4394,-3.507,-3.4162,-3.2671,-3.0963,-2.8229,-2.5456,-2.3209,-2.1105,0.0,-1.8095,-1.8158,0.0,0.0,0.0,0.0,-2.3966,-2.5409,-2.6619,0.0,-2.8263,0.0,-2.95,-3.0664,-3.1752,-3.2569,-3.1978,-3.1991,-3.2928,-3.2979,-3.283,-3.2538,-3.2425,-3.2139,-3.162,-3.1586,-3.1105,-3.0238,-2.9947,-2.9336,-2.8432,-2.8587,-2.8694,-2.8779,-2.8045,-2.7563,-2.7243,-2.6436,-2.5945,-2.569,-2.5369,-2.5316,-2.5348,-2.5086,-2.5043,-2.5157,-2.5253,-2.5203,-2.5115,-2.513,-2.5087,-2.5043,-2.5075,-2.5118,-2.5141,-2.5261,-2.5351,-2.5404,-2.5425,-2.5479,-2.5541,-2.5538,-2.5568,-2.5602,-2.5604,-2.557,-2.5554,-2.5512,-2.5437,-2.5331,-2.5233,-2.5091,-2.4942,-2.476,-2.4559,-2.4372,-2.4229,-2.4211,-2.4135,-2.3917,-2.3667,-2.3445,-2.3212,-2.2841,-2.25,-2.2215,-2.1882,-2.1584,-2.1309,-2.1071,-2.0811,-2.0595,-2.0304,-2.0025,-1.9762,-1.9487,-1.9302,-1.9168,-1.8784,-1.8592,-3.4546,-3.5748,-3.6317,-3.6245,-3.4423,-3.2102,-2.9857,-2.6795,-2.3787,-2.1605,0.0,-1.7975,-1.719,-1.7681,-1.8268,-1.8602,0.0,-2.3056,-2.4131,-2.6046,-2.766,-2.8447,-3.0163,-3.1325,-3.1589,-3.2772,-3.3914,-3.4712,-3.3809,-3.3611,-3.4448,-3.4041,-3.3884,-3.3979,-3.3394,-3.2875,-3.2545,-3.2737,-3.2143,-3.0742,-3.0872,-3.017,-2.8808,-2.8816,-2.8905,-2.9003,-2.8242,-2.7498,-2.6784,-2.5968,-2.5237,-2.4654,-2.4768,-2.4912,-2.5043,-2.5115,-2.5214,-2.5331,-2.5401,-2.5426,-2.5426,-2.5361,-2.5274,-2.5225,-2.5234,-2.5283,-2.5332,-2.5388,-2.5464,-2.5499,-2.5507,-2.557,-2.5607,-2.5603,-2.5585,-2.5593,-2.5587,-2.5526,-2.5453,-2.5382,-2.5313,-2.5209,-2.5061,-2.4947,-2.4749,-2.4472,-2.4247,-2.3981,-2.3631,-2.3774,-2.3795,-2.3522,-2.3265,-2.2993,-2.2738,-2.2385,-2.2051,-2.1751,-2.1524,-2.1214,-2.0861,-2.063,-2.0444,-2.027,-2.0025,-1.9848,-1.9654,-1.9362,-1.9116,-1.8903,-1.8436,-1.8214,-3.6009,-3.6439,-3.6008,-3.5838,-3.4105,-3.1697,-2.8838,-2.5907,0.0,0.0,-1.9177,-1.7866,-1.7014,-1.7502,-1.8271,-1.899,0.0,0.0,0.0,0.0,-2.774,0.0,0.0,0.0,-3.3068,-3.4189,0.0,-3.599,-3.611,-3.611,-3.5925,-3.5949,-3.5775,-3.5448,-3.4394,-3.3837,-3.3862,-3.3391,-3.2751,-3.1991,-3.1365,-3.0672,-2.9899,-2.9263,-2.9062,-2.9203,-2.8415,-2.7679,-2.6989,-2.618,-2.5449,-2.4861,-2.4929,-2.5043,-2.5171,-2.5303,-2.5393,-2.5471,-2.5486,-2.5515,-2.5542,-2.549,-2.5421,-2.5376,-2.5374,-2.5382,-2.5398,-2.5459,-2.5529,-2.557,-2.557,-2.558,-2.5604,-2.5592,-2.5564,-2.5526,-2.5521,-2.5413,-2.5301,-2.5243,-2.5134,-2.4994,-2.4799,-2.467,-2.4442,-2.4061,-2.3783,-2.3482,-2.3093,-2.3259,-2.33,-2.2972,-2.2695,-2.2449,-2.2237,-2.1866,-2.1584,-2.1402,-2.0991,-2.0697,-2.0579,-2.0254,-2.0096,-2.0041,-1.9669,-1.945,-1.9362,-1.8936,-1.863,-1.8397,-1.8095,-1.7922,-3.6067,-3.6814,-3.6855,-3.5988,-3.3963,-3.1449,-2.8412,0.0,0.0,0.0,-1.8739,-1.7575,-1.7183,0.0,0.0,0.0,0.0,0.0,0.0,0.0,0.0,0.0,0.0,0.0,0.0,-3.5444,-3.6573,-3.6925,-3.7208,-3.7132,-3.6638,-3.6527,-3.6408,-3.6328,-3.4996,-3.4348,-3.446,-3.3814,-3.3112,-3.2437,-3.2099,-3.1384,-3.0332,-2.9991,-2.9694,-2.9412,-2.8595,-2.7865,-2.721,-2.642,-2.5687,-2.5063,-2.5126,-2.5224,-2.5321,-2.5418,-2.5492,-2.554,-2.5547,-2.5601,-2.5645,-2.5617,-2.5556,-2.5492,-2.5493,-2.5505,-2.551,-2.5542,-2.5577,-2.5595,-2.5605,-2.5577,-2.5545,-2.5546,-2.551,-2.5432,-2.5354,-2.5274,-2.5149,-2.5012,-2.4869,-2.4678,-2.447,-2.4264,-2.4003,-2.3638,-2.3328,-2.2972,-2.2538,-2.2441,-2.2415,-2.2395,-2.2119,-2.1803,-2.1552,-2.1291,-2.1071,-2.0844,-2.0512,-2.0258,-2.0154,-1.9833,-1.9632,-1.9508,-1.9288,-1.9064,-1.8936,-1.8592,-1.8344,-1.8161,-1.7788,-1.7556,-3.5663,-3.6827,-3.7421,-3.6114,-3.3977,-3.1342,-2.8249,-2.4717,0.0,0.0,-1.856,-1.7439,-1.7455,0.0,-1.8336,0.0,0.0,0.0,0.0,0.0,0.0,0.0,0.0,0.0,-3.4673,-3.6452,0.0,-3.7614,-3.7809,-3.7667,-3.717,-3.6934,-3.6894,-3.7112,-3.567,-3.4945,-3.4987,-3.4146,-3.3468,-3.2904,-3.2815,-3.2181,-3.1095,-3.0807,-3.0389,-2.9908,-2.9078,-2.8348,-2.7652,-2.693,-2.619,-2.5501,-2.539,-2.5374,-2.5452,-2.5499,-2.5556,-2.5621,-2.5619,-2.5659,-2.5694,-2.5697,-2.5664,-2.5616,-2.5593,-2.5605,-2.5609,-2.5598,-2.5583,-2.558,-2.5581,-2.5539,-2.5471,-2.5466,-2.5401,-2.5322,-2.519,-2.5087,-2.4961,-2.4766,-2.4551,-2.4335,-2.4118,-2.3866,-2.3534,-2.3212,-2.2873,-2.2485,-2.1994,-2.1658,-2.1477,-2.1628,-2.1446,-2.1197,-2.091,-2.0697,-2.0527,-2.0308,-2.008,-1.9889,-1.9681,-1.9384,-1.9139,-1.8988,-1.8784,-1.8592,-1.8422,-1.8226,-1.7988,-1.7828,-1.7461,-1.7267,-3.524,-3.6233,-3.6341,-3.5896,-3.4051,-3.1497,-2.8169,0.0,0.0,-2.0592,-1.9018,-1.7878,-1.771,-1.7715,-1.8007,0.0,0.0,-2.0076,0.0,0.0,0.0,0.0,0.0,0.0,-3.5218,-3.691,-3.7984,-3.8034,-3.8171,-3.8138,-3.7915,-3.8032,-3.8132,-3.8147,-3.6723,-3.5974,-3.5956,-3.4587,-3.3884,-3.3843,-3.3271,-3.2985,-3.2975,-3.1539,-3.0941,-3.1006,-3.0197,-2.9446,-2.8702,-2.7969,-2.7228,-2.6494,-2.5766,-2.5512,-2.5579,-2.5589,-2.5639,-2.5698,-2.5687,-2.5699,-2.5703,-2.5703,-2.5702,-2.5679,-2.5621,-2.5604,-2.5605,-2.5602,-2.5562,-2.5516,-2.5503,-2.546,-2.5387,-2.5332,-2.5271,-2.5176,-2.5044,-2.4861,-2.47,-2.4559,-2.4265,-2.3983,-2.378,-2.3482,-2.3117,-2.2721,-2.2368,-2.1965,-2.1446,-2.1087,-2.0761,-2.0494,-2.0597,-2.063,-2.0478,-2.022,-2.0061,-2.0025,-1.9669,-1.9398,-1.9244,-1.8884,-1.863,-1.8553,-1.8108,-1.7868,-1.7868,-1.7598,-1.7393,-1.7282,-1.7128,-1.7002,-3.2813,-3.4339,-3.4999,-3.4383,-3.2719,-3.0406,-2.7159,0.0,-2.1801,-2.0216,-1.8927,-1.81,-1.8018,-1.7992,-1.8107,0.0,0.0,0.0,0.0,0.0,0.0,0.0,0.0,0.0,0.0,0.0,-3.7808,-3.8415,-3.8533,-3.8515,-3.8478,-3.8446,-3.8465,-3.8609,-3.7092,-3.6305,-3.639,-3.4829,-3.4099,-3.4245,-3.4023,-3.3768,-3.3447,-3.2354,-3.1701,-3.1344,-3.0538,-2.9761,-2.9019,-2.8251,-2.7462,-2.6682,-2.5871,-2.5571,-2.5593,-2.5648,-2.5685,-2.5696,-2.57,-2.5703,-2.5699,-2.5693,-2.5666,-2.5622,-2.5618,-2.5592,-2.559,-2.5558,-2.5484,-2.5447,-2.5439,-2.5354,-2.5254,-2.5126,-2.5106,-2.5032,-2.487,-2.4654,-2.4422,-2.4137,-2.3844,-2.3548,-2.333,-2.3042,-2.2721,-2.2341,-2.1994,-2.1568,-2.1055,-2.0745,-2.0426,-2.0045,-2.017,-2.0239,-2.003,-1.9904,-1.9777,-1.9632,-1.9354,-1.9078,-1.8846,-1.8461,-1.8187,-1.8028,-1.772,-1.7516,-1.7434,-1.724,-1.7115,-1.7086,-1.682,-1.6693,-2.9945,-3.2032,-3.3321,-3.2448,-3.1286,-2.9502,0.0,0.0,-2.1627,-2.0029,-1.8994,-1.8368,-1.8307,-1.8301,-1.8298,0.0,0.0,-1.9794,0.0,0.0,0.0,0.0,0.0,-3.3136,-3.4295,-3.6022,-3.7562,-3.8688,-3.8589,-3.8582,-3.8873,-3.8564,-3.8405,-3.8483,-3.7165,-3.6389,-3.6274,-3.4922,-3.4316,-3.4495,-3.4604,-3.4298,-3.3674,-3.2944,-3.2214,-3.1507,-3.0717,-3.0074,-2.9532,-2.8492,-2.7718,-2.7118,-2.6034,-2.5623,-2.5632,-2.5672,-2.5698,-2.5702,-2.5703,-2.5699,-2.5707,-2.5687,-2.5628,-2.5571,-2.555,-2.5532,-2.5535,-2.5485,-2.5406,-2.5339,-2.5322,-2.5214,-2.5091,-2.4981,-2.4921,-2.4837,-2.4657,-2.4442,-2.4155,-2.3824,-2.3482,-2.317,-2.2952,-2.2642,-2.2326,-2.2027,-2.1645,-2.123,-2.0745,-2.0478,-2.017,-1.9777,-1.9884,-1.9904,-1.9762,-1.9654,-1.9508,-1.9339,-1.9017,-1.8697,-1.8397,-1.8002,-1.772,-1.7475,-1.7269,-1.706,-1.6947,-1.6863,-1.6833,-1.6833,-1.6565,-1.6392,-2.6991,-2.949,-3.1224,-3.0257,-3.0006,-2.9119,0.0,-2.3692,-2.1988,-2.0271,-1.9305,-1.8732,-1.8524,-1.8485,-1.8485,-1.8485,-1.8508,0.0,0.0,0.0,0.0,0.0,0.0,-3.207,-3.3758,-3.5549,-3.7257,-3.8868,-3.834,-3.8256,-3.9045,-3.8385,-3.7949,-3.7794,-3.7023,-3.6259,-3.5535,-3.4884,-3.4623,-3.4687,-3.4908,-3.4599,-3.3875,-3.3125,-3.2391,-3.1645,-3.0859,-3.0537,-3.0467,-2.8863,-2.8184,-2.801,-2.6342,-2.5709,-2.5694,-2.5703,-2.5703,-2.5703,-2.5698,-2.5707,-2.5696,-2.5621,-2.556,-2.5485,-2.5421,-2.5412,-2.5401,-2.5395,-2.5303,-2.5195,-2.5125,-2.5,-2.4902,-2.4898,-2.4749,-2.4575,-2.4424,-2.4192,-2.3917,-2.3631,-2.3236,-2.285,-2.2738,-2.2326,-2.194,-2.1738,-2.1419,-2.1006,-2.0478,-2.0239,-1.9975,-1.9647,-1.9611,-1.9647,-1.969,-1.9523,-1.9339,-1.9101,-1.8736,-1.8307,-1.7841,-1.7543,-1.7225,-1.6918,-1.665,-1.6479,-1.6392,-1.6392,-1.6392,-1.6392,-1.6392,-1.6188,-2.4026,-2.5961,-2.7366,-2.7066,-2.6528,-2.5533,-2.3364,-2.2007,-2.0893,-1.9784,-1.93,-1.9052,-1.9001,-1.8914,-1.8843,-1.8843,-1.9327,0.0,0.0,0.0,0.0,0.0,-3.0257,-3.3165,0.0,-3.6087,-3.695,-3.7471,-3.7266,-3.7567,-3.8515,-3.7766,-3.7511,-3.7996,-3.6739,-3.5998,-3.5916,-3.5167,-3.487,-3.5037,-3.4552,-3.4244,-3.4063,-3.2685,-3.1978,-3.1786,-3.1002,-3.0335,-2.9771,-2.8653,-2.7875,-2.7264,-2.6147,-2.5702,-2.5703,-2.5702,-2.5697,-2.5694,-2.5657,-2.5593,-2.5552,-2.5486,-2.5395,-2.5283,-2.5224,-2.5224,-2.5234,-2.5145,-2.5063,-2.4974,-2.487,-2.4746,-2.4666,-2.4591,-2.4442,-2.4284,-2.4097,-2.384,-2.3562,-2.3188,-2.2859,-2.2517,-2.2215,-2.1823,-2.1524,-2.1386,-2.0942,-2.0545,-2.0239,-1.9869,-1.9545,-1.9413,-1.9228,-1.9213,-1.9398,-1.9288,-1.9064,-1.8784,-1.8464,-1.8069,-1.7598,-1.7282,-1.696,-1.665,-1.6479,-1.6392,-1.6275,-1.6362,-1.6362,-1.6275,-1.61,-1.5736,0.0,-2.2794,-2.4239,-2.3938,-2.3903,0.0,0.0,-2.1124,-2.047,-1.966,-1.9416,-1.9341,-1.9277,-1.9472,-1.9606,-1.9571,-2.0314,0.0,0.0,0.0,0.0,-2.8129,0.0,0.0,-3.5548,-3.5968,-3.6325,-3.6944,-3.6746,-3.7021,-3.7958,-3.7225,-3.702,-3.747,-3.6484,-3.5888,-3.5761,-3.5302,-3.4969,-3.4772,-3.4328,-3.3827,-3.3261,-3.2242,-3.1657,-3.143,-3.093,-3.0273,0.0,-2.8591,-2.7744,-2.691,-2.6035,-2.5702,-2.57,-2.567,-2.5659,-2.5648,-2.5593,-2.5512,-2.5454,-2.5343,-2.5186,-2.5005,-2.493,-2.4987,-2.5056,-2.4921,-2.4837,-2.476,-2.4657,-2.4561,-2.4459,-2.4355,-2.4192,-2.4019,-2.3837,-2.3562,-2.3242,-2.2867,-2.25,-2.2141,-2.1794,-2.1462,-2.1166,-2.1007,-2.0563,-2.0204,-1.996,-1.9566,-1.925,-1.9064,-1.886,-1.8745,-1.8745,-1.8822,-1.8745,-1.8489,-1.8135,-1.7733,-1.7323,-1.7044,-1.6748,-1.6392,-1.6362,-1.6231,-1.6025,-1.61,-1.61,-1.5981,-1.576,-1.539,0.0,0.0,0.0,0.0,0.0,0.0,0.0,-2.0875,0.0,-1.9804,-1.9623,-1.9582,-1.9467,-2.0092,-2.0599,-2.0547,-2.1301,0.0,0.0,0.0,0.0,0.0,-3.1843,0.0,-3.5716,-3.5324,-3.5552,-3.7068,-3.6578,-3.6595,-3.7395,-3.6727,-3.6377,-3.6517,-3.6288,-3.587,-3.5226,-3.5228,-3.4875,-3.4116,-3.4137,-3.3325,-3.182,-3.1821,-3.1411,-3.0711,-3.0763,-3.0274,-2.9359,-2.8609,-2.7754,-2.6836,-2.6009,-2.5689,-2.5683,-2.5619,-2.5582,-2.5585,-2.5517,-2.5446,-2.5348,-2.5205,-2.4949,-2.4666,-2.4588,-2.4697,-2.4847,-2.4704,-2.4626,-2.4559,-2.4478,-2.4356,-2.4247,-2.4173,-2.3998,-2.3813,-2.3588,-2.3289,-2.2968,-2.2608,-2.2164,-2.1764,-2.1493,-2.1119,-2.0795,-2.0597,-2.0273,-1.9975,-1.9711,-1.9332,-1.8983,-1.8592,-1.8461,-1.8226,-1.7787,-1.8187,-1.8358,-1.8149,-1.7733,-1.731,-1.6947,-1.6761,-1.6504,-1.6156,-1.6156,-1.5981,-1.5671,-1.5671,-1.5671,-1.5671,-1.5402,-1.5028,-1.5881,0.0,-1.9549,-1.9361,-2.0053,-2.0706,0.0,0.0,0.0,0.0,0.0,0.0,-1.9786,-2.0395,-2.0891,-2.0899,-2.2135,-2.3195,-2.3465,0.0,0.0,-3.1867,-3.2492,-3.335,-3.5274,-3.531,-3.5362,-3.5742,-3.5621,-3.5921,-3.6776,-3.6074,-3.5979,-3.6708,-3.608,-3.5637,-3.5432,-3.4821,-3.4469,-3.4313,-3.3052,-3.2283,-3.1935,-3.1334,-3.0958,-3.0771,-3.0799,-2.9951,-2.8573,-2.8379,-2.7381,-2.5986,-2.5715,-2.5623,-2.5609,-2.5547,-2.5515,-2.5499,-2.5441,-2.5312,-2.5122,-2.4836,-2.462,-2.4441,-2.4338,-2.4389,-2.4491,-2.4355,-2.4266,-2.4192,-2.4078,-2.3939,-2.3837,-2.375,-2.3553,-2.3319,-2.3109,-2.2859,-2.25,-2.2084,-2.1735,-2.137,-2.0878,-2.0663,-2.0444,-2.0239,-1.9818,-1.9508,-1.9332,-1.8822,-1.8372,-1.8147,-1.7828,-1.7557,-1.7352,-1.772,-1.7787,-1.7447,-1.7227,-1.6909,-1.6497,-1.6362,-1.6156,-1.5804,-1.5626,-1.5525,-1.557,-1.5435,-1.5402,-1.5402,-1.5006,-1.4731,-1.5177,-1.6761,-1.8302,-1.834,-1.9224,-2.0087,0.0,0.0,0.0,0.0,0.0,0.0,0.0,0.0,0.0,-2.1687,-2.3089,0.0,0.0,0.0,-2.8859,-3.1885,-3.2589,-3.3352,-3.4663,-3.5172,-3.5449,-3.5443,-3.5438,-3.5656,-3.6158,-3.5765,-3.5774,-3.6325,-3.5911,-3.5466,-3.4999,-3.4594,-3.4011,-3.3283,-3.2389,-3.1763,-3.1437,-3.0999,-3.0819,-3.0811,-3.0425,-2.9511,-2.8261,-2.7867,-2.688,-2.5651,-2.5601,-2.5571,-2.5546,-2.5486,-2.543,-2.5393,-2.5303,-2.5084,-2.4842,-2.4604,-2.4425,-2.4266,-2.4115,-2.404,-2.4041,-2.4019,-2.3979,-2.3881,-2.3795,-2.3689,-2.358,-2.3486,-2.3247,-2.2977,-2.2686,-2.2392,-2.2027,-2.1568,-2.1245,-2.0926,-2.0545,-2.0323,-2.015,-1.996,-1.9581,-1.925,-1.8959,-1.8436,-1.8016,-1.7733,-1.7406,-1.7115,-1.6905,-1.706,-1.7089,-1.6892,-1.6667,-1.6398,-1.6095,-1.5944,-1.5748,-1.5435,-1.5165,-1.5028,-1.5074,-1.4926,-1.4891,-1.4891,-1.4547,-1.4269,-1.515,-1.6447,-1.7572,-1.7769,-1.9027,-2.0234,0.0,0.0,0.0,0.0,0.0,0.0,0.0,0.0,0.0,0.0,0.0,0.0,-2.7775,-2.8078,-2.9004,-3.1435,-3.2383,-3.3205,-3.416,-3.4974,-3.548,-3.5607,-3.5639,-3.5659,-3.5718,-3.5728,-3.5756,-3.5815,-3.5706,-3.5201,-3.4264,-3.4292,-3.3537,-3.2021,-3.1874,-3.1464,-3.0825,-3.0811,-3.0776,-3.0663,-2.9922,-2.9022,-2.8041,-2.7286,-2.6445,-2.5598,-2.559,-2.5538,-2.5464,-2.5401,-2.5322,-2.5233,-2.508,-2.4809,-2.4559,-2.4478,-2.4321,-2.4132,-2.3915,-2.371,-2.3562,-2.3646,-2.3646,-2.3584,-2.3518,-2.3445,-2.3365,-2.323,-2.2985,-2.2677,-2.2275,-2.1969,-2.1601,-2.1118,-2.078,-2.0512,-2.0254,-2.0061,-1.9884,-1.969,-1.9398,-1.9064,-1.863,-1.8187,-1.776,-1.7391,-1.7086,-1.6791,-1.6479,-1.6436,-1.6436,-1.6349,-1.6076,-1.5856,-1.5656,-1.5501,-1.5289,-1.5062,-1.48,-1.4662,-1.4581,-1.4477,-1.4373,-1.4373,-1.4104,-1.3926,-1.5156,-1.6073,-1.6943,-1.7702,-1.9146,-2.0362,0.0,0.0,0.0,0.0,0.0,0.0,0.0,0.0,0.0,0.0,0.0,-2.7121,0.0,0.0,-2.9776,-3.165,-3.1999,-3.2695,-3.4301,-3.4581,-3.4967,-3.5714,-3.5772,-3.5779,-3.5779,-3.5846,-3.5866,-3.5878,-3.5222,-3.4445,-3.3555,-3.3507,-3.3005,-3.2079,-3.1348,-3.0946,-3.0876,-3.0878,-3.0488,-2.9785,-2.9664,-2.8682,-2.7188,-2.6991,-2.6407,-2.5593,-2.5485,-2.5398,-2.5311,-2.5253,-2.5157,-2.5006,-2.4764,-2.4559,-2.4425,-2.4303,-2.4113,-2.3896,-2.3703,-2.3481,-2.3223,-2.3077,-2.3126,-2.3175,-2.3035,-2.2952,-2.2876,-2.2738,-2.25,-2.2209,-2.1869,-2.157,-2.1214,-2.0679,-2.0512,-2.0308,-1.994,-1.9797,-1.969,-1.9487,-1.9139,-1.8745,-1.8383,-1.7828,-1.7393,-1.7086,-1.6778,-1.6479,-1.6275,-1.6231,-1.61,-1.5691,-1.568,-1.5457,-1.504,-1.4937,-1.4914,-1.4868,-1.4673,-1.4627,-1.4581,-1.4477,-1.4373,-1.4373,-1.4104,-1.3973,-1.4989,-1.5951,-1.6703,-1.7107,-1.8471,-1.987,-2.0355,0.0,0.0,0.0,0.0,0.0,0.0,0.0,-2.3378,-2.4832,0.0,-2.7443,-2.9162,-2.9405,-2.9883,-3.1156,-3.1721,-3.233,-3.314,-3.3601,-3.4016,-3.4422,-3.4442,-3.4467,-3.4496,-3.4525,-3.4558,-3.455,-3.4192,-3.3578,-3.2707,-3.266,-3.2251,-3.1457,-3.1049,-3.0877,-3.0898,-3.0859,-3.0368,-2.9525,-2.9042,-2.8112,-2.6903,-2.6374,-2.5892,-2.5478,-2.5374,-2.5284,-2.5173,-2.5025,-2.4893,-2.4775,-2.4559,-2.4391,-2.4284,-2.4171,-2.3996,-2.3753,-2.3549,-2.3295,-2.3045,-2.2816,-2.279,-2.2816,-2.2764,-2.2598,-2.2446,-2.2298,-2.2056,-2.1718,-2.1355,-2.1071,-2.0761,-2.0323,-2.0115,-1.996,-1.9741,-1.9596,-1.9413,-1.9205,-1.8874,-1.8461,-1.8028,-1.7598,-1.7199,-1.6876,-1.665,-1.6436,-1.6318,-1.6318,-1.6057,-1.5435,-1.5277,-1.5096,-1.4846,-1.4822,-1.4787,-1.4673,-1.4627,-1.4581,-1.4477,-1.4419,-1.4373,-1.428,-1.401,-1.3868,-1.4582,-1.5625,-1.6316,-1.653,0.0,-1.9375,-2.0038,0.0,0.0,0.0,0.0,0.0,0.0,-2.2294,0.0,-2.6801,-2.7231,-2.7826,-2.9558,-2.9806,-3.0046,-3.0726,-3.139,-3.1877,-3.2072,-3.2654,-3.3103,-3.3301,-3.3321,-3.3344,-3.3409,-3.3392,-3.3398,-3.3408,-3.3215,-3.2789,-3.2109,-3.1718,-3.121,-3.0605,-3.0605,-3.0488,-3.029,-3.0248,-2.9736,-2.8847,-2.8193,-2.7385,-2.652,-2.5777,-2.5437,-2.5365,-2.5293,-2.5149,-2.4975,-2.4798,-2.466,-2.4526,-2.4391,-2.4284,-2.4172,-2.4036,-2.3855,-2.3602,-2.3365,-2.3144,-2.2893,-2.2605,-2.2497,-2.2453,-2.2453,-2.2281,-2.2068,-2.1895,-2.1645,-2.1324,-2.0893,-2.0646,-2.0357,-1.999,-1.9762,-1.9617,-1.9487,-1.9302,-1.9078,-1.8865,-1.8528,-1.8161,-1.7679,-1.7323,-1.7002,-1.6718,-1.6577,-1.6479,-1.6392,-1.6349,-1.6044,-1.548,-1.5187,-1.5017,-1.4949,-1.4914,-1.4868,-1.4765,-1.4708,-1.4616,-1.4512,-1.4466,-1.4373,-1.428,-1.401,-1.3763,-1.3835,-1.4681,-1.5487,-1.6309,0.0,0.0,-1.9282,-2.0543,0.0,0.0,0.0,0.0,0.0,-2.3673,-2.5158,-2.7771,-2.8207,-2.8795,-3.0467,-3.0706,-3.0728,-3.078,-3.0858,-3.1211,-3.2016,-3.2153,-3.2526,-3.3332,-3.339,-3.3392,-3.3392,-3.3394,-3.3396,-3.3396,-3.2675,-3.2226,-3.2108,-3.0566,-2.9745,-2.9687,-2.9687,-2.9276,-2.8488,-2.8479,-2.7978,-2.7082,-2.7021,-2.6468,-2.5596,-2.5461,-2.5378,-2.5292,-2.516,-2.4968,-2.4704,-2.4578,-2.4479,-2.4412,-2.4266,-2.417,-2.4074,-2.3816,-2.3624,-2.344,-2.3126,-2.2876,-2.2685,-2.246,-2.2231,-2.2056,-2.2056,-2.1957,-2.1751,-2.1493,-2.134,-2.1103,-2.0628,-2.0444,-2.0273,-1.9818,-1.9603,-1.942,-1.9176,-1.886,-1.8592,-1.8397,-1.7988,-1.7693,-1.7432,-1.7141,-1.6846,-1.6718,-1.6577,-1.6479,-1.6392,-1.6175,-1.6001,-1.5944,-1.568,-1.5501,-1.5468,-1.5345,-1.5267,-1.5267,-1.5017,-1.4858,-1.4858,-1.4662,-1.4581,-1.4581,-1.4161,-1.3973,-1.3637,-1.4481,-1.5216,-1.5549,0.0,0.0,0.0,0.0,0.0,0.0,-2.248,0.0,0.0,0.0,-2.5071,-2.716,-2.7944,-2.8708,-2.9897,-3.0525,-3.0857,-3.0857,-3.0857,-3.0779,-3.0565,-3.0545,-3.0467,-3.0233,-3.0234,-3.0234,-3.0234,-3.0234,-3.0234,-3.0234,-2.9921,-2.9764,-2.9741,-2.9114,-2.8504,-2.7928,-2.8506,-2.86,-2.8232,-2.8236,-2.7736,-2.6843,-2.6799,-2.625,-2.5367,-2.5303,-2.5212,-2.5099,-2.4869,-2.4697,-2.4545,-2.4392,-2.4303,-2.4247,-2.4056,-2.3937,-2.3816,-2.3642,-2.3417,-2.3199,-2.2952,-2.2738,-2.2542,-2.2377,-2.2147,-2.194,-2.1899,-2.1691,-2.1402,-2.1103,-2.0844,-2.0628,-2.0254,-2.0115,-1.994,-1.9669,-1.9435,-1.9161,-1.8936,-1.8539,-1.8147,-1.7948,-1.7639,-1.7323,-1.7099,-1.6888,-1.6705,-1.6577,-1.6522,-1.6479,-1.6479,-1.6392,-1.6293,-1.6293,-1.5957,-1.5691,-1.5691,-1.5614,-1.5525,-1.5435,-1.5153,-1.496,-1.4903,-1.4708,-1.4523,-1.4326,-1.401,-1.3773,-1.3201,-1.4178,-1.5099,0.0,0.0,0.0,0.0,0.0,0.0,0.0,-2.3306,0.0,0.0,0.0,0.0,-2.6757,-2.75,-2.8281,-2.9433,-2.9883,-3.0175,-3.0468,-3.0254,-2.9844,-2.9257,-2.9199,-2.8945,-2.8339,-2.83,-2.83,-2.83,-2.8299,-2.8298,-2.8298,-2.8276,-2.8271,-2.8266,-2.8006,-2.754,-2.6907,-2.7254,-2.7386,-2.7351,-2.7347,-2.6986,-2.6355,-2.6251,-2.5842,-2.5201,-2.5134,-2.5006,-2.4842,-2.4623,-2.4478,-2.4392,-2.421,-2.4114,-2.4054,-2.3873,-2.3728,-2.3598,-2.3394,-2.3175,-2.2944,-2.2738,-2.2525,-2.2332,-2.2192,-2.202,-2.1781,-2.1631,-2.1433,-2.1151,-2.0794,-2.0527,-2.0289,-1.999,-1.9848,-1.9741,-1.9523,-1.9265,-1.8936,-1.8592,-1.8147,-1.776,-1.7516,-1.724,-1.7002,-1.6846,-1.6705,-1.662,-1.6522,-1.6522,-1.6522,-1.6522,-1.6522,-1.6522,-1.6522,-1.6175,-1.6013,-1.6001,-1.5937,-1.5792,-1.5647,-1.5334,-1.5062,-1.4903,-1.4605,-1.4384,-1.414,-1.381,-1.3563,-1.2395,-1.3621,-1.5111,0.0,0.0,0.0,0.0,0.0,0.0,0.0,0.0,-2.5701,-2.5705,-2.5707,0.0,-2.6846,-2.6983,-2.7609,-2.9331,-2.8844,-2.8629,-2.9488,-2.8826,-2.83,-2.8298,-2.8299,-2.8279,-2.8273,-2.8277,-2.8277,-2.8273,-2.8273,-2.8273,-2.8271,-2.8205,-2.8176,-2.8187,-2.7312,-2.6894,-2.6873,-2.5952,-2.5493,-2.5498,-2.5506,-2.5449,-2.5387,-2.5264,-2.5126,-2.4994,-2.4929,-2.479,-2.4575,-2.4446,-2.4303,-2.4173,-2.4056,-2.3917,-2.3774,-2.3638,-2.3522,-2.3336,-2.3077,-2.2868,-2.2659,-2.246,-2.2203,-2.1998,-2.1911,-2.1738,-2.1542,-2.1261,-2.1151,-2.099,-2.0595,-2.0392,-2.02,-1.9884,-1.9797,-1.969,-1.9376,-1.9064,-1.8707,-1.8108,-1.772,-1.7393,-1.7044,-1.6846,-1.6675,-1.6675,-1.6577,-1.6522,-1.6522,-1.6522,-1.6522,-1.6522,-1.6522,-1.6522,-1.6522,-1.6436,-1.6436,-1.6522,-1.6318,-1.6144,-1.5988,-1.5525,-1.5165,-1.4903,-1.4455,-1.414,-1.3973,-1.3563,-1.342,-1.2314,-1.3521,0.0,0.0,0.0,0.0,0.0,0.0,0.0,0.0,-2.541,-2.5636,-2.5636,-2.5668,-2.5774,-2.6049,-2.6601,-2.7171,-2.77,-2.8075,-2.8408,-2.8642,-2.8467,-2.8057,-2.7451,-2.7391,-2.7134,-2.6525,-2.6464,-2.6464,-2.6462,-2.6434,-2.6409,-2.6403,-2.6376,-2.6377,-2.6374,-2.6076,-2.588,-2.5846,-2.5514,-2.5371,-2.543,-2.5385,-2.5303,-2.5182,-2.5103,-2.4987,-2.4827,-2.4645,-2.4497,-2.4356,-2.4191,-2.4075,-2.3978,-2.3789,-2.3664,-2.3553,-2.3319,-2.3175,-2.3052,-2.2816,-2.2544,-2.2309,-2.2101,-2.1945,-2.1768,-2.1556,-2.1419,-2.123,-2.0861,-2.0697,-2.0545,-2.0273,-2.008,-1.9919,-1.9705,-1.9647,-1.9538,-1.9168,-1.8836,-1.8422,-1.7868,-1.7434,-1.7086,-1.6846,-1.6663,-1.6565,-1.6565,-1.6522,-1.6522,-1.6522,-1.6522,-1.6522,-1.6522,-1.6522,-1.6522,-1.6522,-1.6436,-1.6392,-1.6436,-1.61,-1.5881,-1.5792,-1.5289,-1.4926,-1.4708,-1.4186,-1.381,-1.3573,-1.3296,-1.3162,-1.2558,0.0,0.0,0.0,0.0,0.0,0.0,0.0,0.0,0.0,0.0,-2.5551,-2.5556,-2.5595,-2.5628,-2.5617,-2.6054,-2.6529,-2.6906,-2.7108,-2.7365,-2.7696,-2.7449,-2.702,-2.6487,-2.6448,-2.6208,-2.5664,-2.5648,-2.5644,-2.5617,-2.5613,-2.5585,-2.5552,-2.5556,-2.5554,-2.5518,-2.5485,-2.5434,-2.5367,-2.5274,-2.5234,-2.5234,-2.5212,-2.5115,-2.5006,-2.4874,-2.4734,-2.4582,-2.4375,-2.4228,-2.4115,-2.3935,-2.3792,-2.3707,-2.3481,-2.3365,-2.3271,-2.3028,-2.2893,-2.2764,-2.2508,-2.2226,-2.1982,-2.1764,-2.157,-2.1324,-2.1151,-2.099,-2.0827,-2.0545,-2.0326,-2.012,-2.0015,-1.9854,-1.969,-1.9523,-1.9465,-1.9265,-1.8889,-1.8567,-1.8201,-1.7598,-1.724,-1.6918,-1.6663,-1.6565,-1.6522,-1.6522,-1.6522,-1.6522,-1.6522,-1.6522,-1.6522,-1.6522,-1.6522,-1.6522,-1.6522,-1.6392,-1.6318,-1.6318,-1.5969,-1.5748,-1.5715,-1.5187,-1.4777,-1.4523,-1.4057,-1.361,-1.3314,-1.3162,-1.3036,0.0,0.0,0.0,0.0,0.0,0.0,0.0,0.0,-2.535,-2.5382,0.0,-2.5476,-2.5478,-2.5485,-2.5499,-2.5505,-2.5492,-2.5801,-2.6645,-2.6087,-2.5873,-2.667,-2.6067,-2.5585,-2.5586,-2.56,-2.5571,-2.5498,-2.556,-2.5565,-2.5492,-2.5562,-2.5562,-2.5492,-2.5479,-2.5464,-2.5398,-2.5376,-2.5351,-2.5271,-2.5126,-2.5031,-2.4966,-2.4987,-2.4934,-2.4842,-2.4594,-2.441,-2.4284,-2.4133,-2.3996,-2.3855,-2.3638,-2.3526,-2.3435,-2.3151,-2.302,-2.2944,-2.2738,-2.2579,-2.2415,-2.2141,-2.1911,-2.1691,-2.1417,-2.1135,-2.0844,-2.0761,-2.0545,-2.0342,-2.0254,-1.9995,-1.9752,-1.9717,-1.9711,-1.9581,-1.9288,-1.9139,-1.8898,-1.85,-1.8254,-1.7949,-1.7282,-1.7086,-1.6876,-1.6565,-1.6522,-1.6522,-1.6522,-1.6522,-1.6522,-1.6522,-1.6522,-1.6522,-1.6522,-1.6522,-1.6522,-1.6522,-1.6318,-1.6244,-1.6244,-1.5925,-1.5748,-1.5671,-1.5187,-1.4731,-1.443,-1.4057,-1.361,-1.3218,-1.3162,-1.3027,0.0,-1.3755,0.0,0.0,0.0,0.0,0.0,0.0,-2.5049,-2.5214,-2.5303,-2.536,-2.5412,-2.541,-2.5434,-2.5495,-2.551,-2.5575,-2.5763,-2.5641,-2.5596,-2.5771,-2.5641,-2.5525,-2.5518,-2.5525,-2.5511,-2.5498,-2.551,-2.5529,-2.5495,-2.5522,-2.5495,-2.5414,-2.541,-2.5395,-2.5322,-2.5273,-2.5168,-2.5056,-2.4974,-2.4851,-2.4685,-2.4798,-2.4719,-2.4491,-2.4392,-2.4303,-2.4209,-2.3958,-2.3795,-2.3649,-2.3389,-2.3199,-2.3077,-2.2868,-2.2712,-2.2596,-2.2432,-2.226,-2.2056,-2.184,-2.1617,-2.134,-2.1023,-2.0778,-2.0545,-2.0308,-2.0204,-2.01,-1.9904,-1.9711,-1.9493,-1.9228,-1.9191,-1.9124,-1.8822,-1.8707,-1.8461,-1.7948,-1.776,-1.7475,-1.7044,-1.6846,-1.6705,-1.6522,-1.6522,-1.6522,-1.6522,-1.6522,-1.6522,-1.6522,-1.6522,-1.6522,-1.6522,-1.6522,-1.6522,-1.6522,-1.6392,-1.6362,-1.6362,-1.5869,-1.5558,-1.5558,-1.5142,-1.4789,-1.4581,-1.428,-1.3894,-1.3515,-1.3276,-1.3152,0.0,0.0,0.0,0.0,0.0,0.0,0.0,0.0,-2.4318,-2.4847,-2.5099,-2.522,-2.5252,-2.5264,-2.5274,-2.5351,-2.537,-2.536,-2.5369,-2.5376,-2.5393,-2.5393,-2.539,-2.5398,-2.541,-2.5401,-2.5393,-2.5406,-2.5406,-2.5397,-2.5351,-2.5388,-2.537,-2.5303,-2.5303,-2.5262,-2.5168,-2.5111,-2.5044,-2.4893,-2.4808,-2.4657,-2.4461,-2.4566,-2.4497,-2.4302,-2.4266,-2.4171,-2.4054,-2.3792,-2.3598,-2.3376,-2.3126,-2.2944,-2.279,-2.2579,-2.2415,-2.2271,-2.2135,-2.1915,-2.1675,-2.1526,-2.123,-2.0909,-2.0679,-2.046,-2.022,-2.001,-1.9925,-1.9869,-1.9705,-1.9472,-1.9236,-1.8889,-1.8836,-1.8745,-1.8383,-1.8226,-1.7988,-1.7557,-1.7352,-1.7157,-1.6846,-1.6705,-1.6577,-1.6522,-1.6522,-1.6522,-1.6522,-1.6522,-1.6522,-1.6522,-1.6522,-1.6522,-1.6522,-1.6522,-1.6522,-1.6522,-1.6436,-1.6392,-1.6392,-1.5957,-1.5691,-1.5647,-1.5322,-1.5062,-1.4846,-1.4558,-1.4233,-1.3894,-1.361,-1.3382,0.0,0.0,0.0,0.0,0.0,0.0,0.0,-2.289,-2.3347,-2.4083,-2.4662,-2.5032,-2.5057,-2.5075,-2.5091,-2.5145,-2.5164,-2.5176,-2.5179,-2.5086,-2.5088,-2.5231,-2.5129,-2.5111,-2.5234,-2.5254,-2.5274,-2.5261,-2.5147,-2.5032,-2.499,-2.4886,-2.4818,-2.4755,-2.4878,-2.4877,-2.4772,-2.4872,-2.487,-2.4742,-2.461,-2.4369,-2.4082,-2.4266,-2.4284,-2.4173,-2.4171,-2.4054,-2.3855,-2.366,-2.3407,-2.3144,-2.2868,-2.2685,-2.2525,-2.2349,-2.2192,-2.201,-2.1811,-2.157,-2.1293,-2.1135,-2.0828,-2.0512,-2.0376,-2.015,-1.9919,-1.9797,-1.9726,-1.9654,-1.9574,-1.9302,-1.8936,-1.8592,-1.8436,-1.8319,-1.7962,-1.772,-1.7475,-1.7157,-1.7002,-1.6876,-1.6675,-1.6565,-1.6522,-1.6522,-1.6522,-1.6522,-1.6522,-1.6522,-1.6522,-1.6522,-1.6522,-1.6522,-1.6522,-1.6522,-1.6522,-1.6522,-1.6436,-1.6436,-1.6436,-1.6207,-1.6044,-1.5925,-1.5647,-1.5424,-1.5198,-1.4971,-1.4651,-1.4362,-1.4093,-1.381,0.0,0.0,0.0,0.0,0.0,0.0,0.0,0.0,-2.215,0.0,-2.3637,-2.4779,-2.4921,-2.4929,-2.4955,-2.5019,-2.5019,-2.5019,-2.5031,-2.4434,-2.4255,-2.4955,-2.4426,-2.4266,-2.4967,-2.5087,-2.5118,-2.5137,-2.448,-2.4072,-2.406,-2.3381,-2.2969,-2.2958,-2.3574,-2.3853,-2.3795,-2.4354,-2.4626,-2.4528,-2.4356,-2.3879,-2.3199,-2.384,-2.4133,-2.4113,-2.4036,-2.3917,-2.3692,-2.3504,-2.3265,-2.2995,-2.2738,-2.2525,-2.2405,-2.2271,-2.2049,-2.1811,-2.1615,-2.1308,-2.0926,-2.073,-2.0512,-2.0289,-2.0096,-1.9955,-1.9797,-1.9726,-1.9669,-1.9574,-1.9376,-1.9026,-1.8592,-1.8187,-1.7814,-1.7556,-1.7474,-1.7295,-1.7044,-1.6803,-1.6663,-1.6565,-1.6522,-1.6522,-1.6522,-1.6522,-1.6522,-1.6522,-1.6522,-1.6522,-1.6522,-1.6522,-1.6522,-1.6522,-1.6522,-1.6522,-1.6522,-1.6522,-1.6479,-1.6479,-1.6479,-1.6436,-1.6392,-1.6318,-1.5969,-1.5691,-1.5546,-1.5424,-1.5244,-1.4971,-1.4662,-1.4337,0.0,0.0,0.0,0.0,0.0,0.0,0.0,0.0,-2.0613,-2.1581,-2.2402,-2.3033,-2.3299,-2.3338,-2.3347,-2.3375,-2.3375,-2.3375,-2.3375,-2.3132,-2.3082,-2.3442,-2.3202,-2.3152,-2.3499,-2.3569,-2.3582,-2.3582,-2.3271,-2.3031,-2.3007,-2.2641,-2.2407,-2.2331,-2.2631,-2.2778,-2.2769,-2.3008,-2.31,-2.2986,-2.2866,-2.2594,-2.2228,-2.2937,-2.3538,-2.3976,-2.3876,-2.3732,-2.3576,-2.3295,-2.3045,-2.2816,-2.2579,-2.2432,-2.2338,-2.2106,-2.1903,-2.1678,-2.1308,-2.0958,-2.0646,-2.041,-2.017,-1.9975,-1.9919,-1.9777,-1.9669,-1.9632,-1.9523,-1.9391,-1.9168,-1.8798,-1.8344,-1.7908,-1.7488,-1.7141,-1.7015,-1.6931,-1.6803,-1.662,-1.6522,-1.6522,-1.6522,-1.6522,-1.6522,-1.6522,-1.6522,-1.6522,-1.6522,-1.6522,-1.6522,-1.6522,-1.6522,-1.6522,-1.6522,-1.6522,-1.6522,-1.6522,-1.6522,-1.6522,-1.6522,-1.6522,-1.6479,-1.6479,-1.6275,-1.6044,-1.5925,-1.5824,-1.5635,-1.5367,-1.5017,-1.4708,0.0,0.0,0.0,0.0,0.0,0.0,0.0,0.0,-1.9141,-2.0625,-2.0951,-2.1038,-2.1282,-2.1723,-2.2044,-2.2058,-2.2058,-2.2058,-2.2058,-2.1967,-2.199,-2.2196,-2.2088,-2.2077,-2.2284,-2.2316,-2.2316,-2.2316,-2.2128,-2.2002,-2.1961,-2.1727,-2.1569,-2.1461,-2.1648,-2.1745,-2.1753,-2.1866,-2.1789,-2.1469,-2.1605,-2.1534,-2.128,-2.2165,-2.2865,-2.3422,-2.3556,-2.3531,-2.3365,-2.3052,-2.2842,-2.2632,-2.2432,-2.2338,-2.2254,-2.1945,-2.1721,-2.1526,-2.0991,-2.0646,-2.0357,-2.0115,-1.9904,-1.9762,-1.9741,-1.9683,-1.9574,-1.9538,-1.9391,-1.9153,-1.8927,-1.8528,-1.8028,-1.7679,-1.724,-1.6876,-1.6675,-1.6633,-1.662,-1.6522,-1.6522,-1.6522,-1.6522,-1.6522,-1.6522,-1.6522,-1.6522,-1.6522,-1.6522,-1.6522,-1.6522,-1.6522,-1.6522,-1.6522,-1.6522,-1.6522,-1.6522,-1.6522,-1.6522,-1.6522,-1.6522,-1.6522,-1.6522,-1.6522,-1.6436,-1.6362,-1.6231,-1.6044,-1.5869,-1.5635,-1.5289,-1.4926,0.0,0.0,0.0,0.0,0.0,0.0,0.0,0.0,-1.7965,-1.893,-1.9197,-1.9247,-1.9259,-2.0715,-2.1927,-2.199,-2.2009,-2.2009,-2.2009,-2.1354,-2.115,-2.1931,-2.1354,-2.1168,-2.195,-2.2085,-2.2114,-2.2114,-2.1409,-2.098,-2.098,-2.0197,-1.9727,-1.9727,-2.0404,-2.076,-2.076,-2.1465,-2.1382,-2.0578,-2.1279,-2.1134,-2.0318,-2.1752,-2.2303,-2.2152,-2.3023,-2.3265,-2.3003,-2.2868,-2.2685,-2.2487,-2.2366,-2.2254,-2.2185,-2.1814,-2.1542,-2.1246,-2.0763,-2.0395,-2.008,-1.9869,-1.9762,-1.969,-1.9647,-1.9611,-1.9574,-1.9376,-1.9168,-1.8941,-1.8592,-1.8108,-1.7639,-1.7323,-1.696,-1.6675,-1.6522,-1.6522,-1.6522,-1.6522,-1.6522,-1.6522,-1.6522,-1.6522,-1.6522,-1.6522,-1.6522,-1.6522,-1.6522,-1.6522,-1.6522,-1.6522,-1.6522,-1.6522,-1.6522,-1.6522,-1.6522,-1.6522,-1.6522,-1.6522,-1.6522,-1.6522,-1.6522,-1.6522,-1.6436,-1.6392,-1.6392,-1.6013,-1.5792,-1.5792,-1.5334,-1.5006,0.0,0.0,0.0,0.0,0.0,-1.437,-1.5186,-1.6026,-1.6888,-1.779,-1.8396,-1.8825,-1.8948,-1.964,-2.0189,-2.027,-2.027,-2.0268,-2.028,-2.0055,-2.0015,-2.0311,-2.0104,-2.0078,-2.0374,-2.0426,-2.0422,-2.0422,-2.0163,-1.9967,-1.9937,-1.9645,-1.945,-1.9416,-1.966,-1.9792,-1.9798,-2.0012,-1.9946,-1.9606,-1.974,-1.9615,-1.9272,-2.0129,-2.0719,-2.1086,-2.1864,-2.2399,-2.2738,-2.2605,-2.2415,-2.2158,-2.2089,-2.1991,-2.1844,-2.1542,-2.1293,-2.1055,-2.0579,-2.0289,-2.0065,-1.9833,-1.9726,-1.969,-1.9611,-1.9501,-1.9391,-1.9168,-1.8851,-1.8475,-1.8161,-1.7774,-1.7378,-1.696,-1.6705,-1.6565,-1.6522,-1.6522,-1.6522,-1.6522,-1.6522,-1.6522,-1.6522,-1.6522,-1.6522,-1.6522,-1.6522,-1.6522,-1.6522,-1.6522,-1.6522,-1.6522,-1.6522,-1.6522,-1.6522,-1.6522,-1.6522,-1.6522,-1.6522,-1.6522,-1.6522,-1.6522,-1.6522,-1.6522,-1.6262,-1.6175,-1.6275,-1.5969,-1.5691,-1.5457,-1.5142,-1.4766,0.0,0.0,0.0,0.0,0.0,-1.3796,-1.4588,-1.5245,-1.5976,-1.7099,-1.7787,-1.8285,-1.8735,-1.8913,-1.9052,-1.9202,-1.9219,-1.9235,-1.9227,-1.9277,-1.9311,-1.9329,-1.936,-1.9408,-1.9408,-1.9408,-1.9408,-1.9408,-1.9424,-1.9408,-1.936,-1.9375,-1.9357,-1.9305,-1.9308,-1.9295,-1.9266,-1.9186,-1.9086,-1.9001,-1.8807,-1.8661,-1.8619,-1.9175,-1.9629,-2.0044,-2.0976,-2.1814,-2.2487,-2.236,-2.2158,-2.1911,-2.1764,-2.1661,-2.1542,-2.1166,-2.0974,-2.0763,-2.0357,-2.0115,-1.9975,-1.9762,-1.969,-1.969,-1.9574,-1.9413,-1.9228,-1.8903,-1.8542,-1.8161,-1.7774,-1.7419,-1.7057,-1.6705,-1.6565,-1.6522,-1.6522,-1.6522,-1.6522,-1.6522,-1.6522,-1.6522,-1.6522,-1.6522,-1.6522,-1.6522,-1.6522,-1.6522,-1.6522,-1.6522,-1.6522,-1.6522,-1.6522,-1.6522,-1.6522,-1.6522,-1.6522,-1.6522,-1.6522,-1.6522,-1.6522,-1.6522,-1.6522,-1.6522,-1.6219,-1.6044,-1.6013,-1.5635,-1.5277,-1.5051,-1.4686,-1.4316,0.0,0.0,0.0,0.0,0.0,0.0,-1.447,0.0,-1.5211,-1.6776,-1.7148,-1.745,-1.8335,-1.8478,-1.8608,-1.8982,-1.9069,-1.9086,-1.9099,-1.9081,-1.9115,-1.9184,-1.9184,-1.9184,-1.9202,-1.9202,-1.9202,-1.9202,-1.9251,-1.9282,-1.9282,-1.9292,-1.9289,-1.9289,-1.928,-1.9251,-1.9184,-1.9052,-1.8931,-1.8789,-1.8587,-1.8469,-1.842,-1.8979,-1.9167,-1.9083,-2.0526,-2.1566,-2.2248,-2.2141,-2.1969,-2.1768,-2.1479,-2.134,-2.1214,-2.0763,-2.0545,-2.0426,-2.0096,-1.9919,-1.9797,-1.9726,-1.969,-1.9654,-1.945,-1.9339,-1.9191,-1.862,-1.8361,-1.8043,-1.7528,-1.7028,-1.6675,-1.6522,-1.6522,-1.6522,-1.6522,-1.6522,-1.6522,-1.6522,-1.6522,-1.6522,-1.6522,-1.6522,-1.6522,-1.6522,-1.6522,-1.6522,-1.6522,-1.6522,-1.6522,-1.6522,-1.6522,-1.6522,-1.6522,-1.6479,-1.6479,-1.6522,-1.6479,-1.6479,-1.6522,-1.6479,-1.6479,-1.6479,-1.6275,-1.5969,-1.5591,-1.4983,-1.4674,-1.4581,-1.401,-1.3621,-1.3288,0.0,0.0,0.0,0.0,0.0,-1.3563,-1.3701,-1.3922,-1.4418,-1.4588,-1.488,-1.5749,-1.5906,-1.6326,-1.754,-1.8395,-1.8896,-1.8948,-1.8965,-1.8982,-1.9035,-1.907,-1.9069,-1.912,-1.912,-1.912,-1.912,-1.9137,-1.9172,-1.9172,-1.9153,-1.917,-1.917,-1.9153,-1.9086,-1.8982,-1.8896,-1.8752,-1.8584,-1.8391,-1.8266,-1.8197,-1.8254,-1.8518,-1.8985,-1.9815,-2.0504,-2.1109,-2.149,-2.1446,-2.115,-2.1007,-2.0844,-2.0646,-2.046,-2.0323,-2.0185,-1.994,-1.9848,-1.9777,-1.9669,-1.9647,-1.956,-1.925,-1.9064,-1.8836,-1.8425,-1.7989,-1.757,-1.7044,-1.6705,-1.6534,-1.6522,-1.6522,-1.6522,-1.6522,-1.6522,-1.6522,-1.6522,-1.6522,-1.6522,-1.6522,-1.6522,-1.6522,-1.6522,-1.6522,-1.6522,-1.6522,-1.6522,-1.6522,-1.6522,-1.6479,-1.6436,-1.6436,-1.6362,-1.6318,-1.6436,-1.6362,-1.6318,-1.6436,-1.625,-1.612,-1.612,-1.5869,-1.5558,-1.5244,-1.4949,-1.4593,-1.4161,-1.3546,-1.3258,0.0,0.0,0.0,0.0,0.0,0.0,-1.3084,-1.294,-1.2908,-1.3261,-1.3157,-1.3269,-1.4091,-1.4469,-1.5003,-1.5953,-1.7124,-1.8118,-1.8662,-1.8716,-1.877,-1.8843,-1.8825,-1.8861,-1.8896,-1.8896,-1.8896,-1.8896,-1.8931,-1.8984,-1.9018,-1.9018,-1.9018,-1.9018,-1.9002,-1.8914,-1.8825,-1.8678,-1.8544,-1.8368,-1.8205,-1.8095,-1.8009,-1.7922,-1.8031,-1.8377,-1.9002,-1.9359,-1.9572,-2.0388,-2.0751,-2.0844,-2.0679,-2.0478,-2.0273,-2.015,-2.0045,-1.996,-1.9797,-1.9741,-1.9705,-1.9574,-1.9465,-1.9339,-1.8988,-1.8745,-1.8514,-1.8055,-1.7529,-1.7073,-1.6761,-1.662,-1.6522,-1.6522,-1.6522,-1.6522,-1.6522,-1.6522,-1.6522,-1.6522,-1.6522,-1.6522,-1.6522,-1.6522,-1.6522,-1.6522,-1.6522,-1.6479,-1.6479,-1.6479,-1.6436,-1.6293,-1.6262,-1.6219,-1.6132,-1.61,-1.6057,-1.6132,-1.61,-1.6057,-1.6088,-1.5901,-1.5812,-1.578,-1.5558,-1.5198,-1.4789,-1.4686,-1.4269,-1.3594,-1.322,-1.3027,0.0,0.0,0.0,0.0,-1.2834,0.0,-1.2852,-1.232,-1.2025,-1.2688,-1.2273,-1.2031,-1.2756,-1.3497,-1.4105,-1.438,-1.5547,-1.6874,-1.8141,-1.8393,-1.8465,-1.8528,-1.8528,-1.8547,-1.8547,-1.8547,-1.8547,-1.8547,-1.8658,-1.8734,-1.8825,-1.8807,-1.8843,-1.8825,-1.8788,-1.8715,-1.8659,-1.8465,-1.8304,-1.8184,-1.8053,-1.7944,-1.79,-1.7833,-1.7704,-1.7622,-1.8228,-1.8287,-1.807,-1.9167,-2.0003,-2.0585,-2.0413,-2.0204,-2.003,-1.9869,-1.9797,-1.9762,-1.9726,-1.9669,-1.9574,-1.9413,-1.9265,-1.9026,-1.8669,-1.8422,-1.8108,-1.7598,-1.7073,-1.6675,-1.6675,-1.6577,-1.6522,-1.6522,-1.6522,-1.6522,-1.6522,-1.6522,-1.6522,-1.6522,-1.6522,-1.6522,-1.6479,-1.6479,-1.6479,-1.6436,-1.6423,-1.6436,-1.6349,-1.6306,-1.6219,-1.5988,-1.5901,-1.5869,-1.5748,-1.5691,-1.5691,-1.5703,-1.5691,-1.5647,-1.5546,-1.5501,-1.5457,-1.5379,-1.521,-1.4891,-1.4384,-1.4233,-1.3763,-1.3123,-1.2978,-1.2881,0.0,0.0,0.0,0.0,-1.2447,0.0,-1.2577,-1.1647,-1.0849,-1.1043,-1.0141,-0.9538,-1.0269,-1.1016,-1.1909,-1.3189,-1.4086,-1.5221,-1.6976,-1.7717,-1.8117,-1.8128,-1.8128,-1.817,-1.827,-1.8232,-1.8232,-1.827,-1.8252,-1.8273,-1.8333,-1.8351,-1.8353,-1.843,-1.841,-1.8371,-1.829,-1.826,-1.8172,-1.8048,-1.7966,-1.7883,-1.7833,-1.7749,-1.7641,-1.7559,-1.8112,-1.8182,-1.7999,-1.9075,-1.9479,-1.9451,-1.9797,-1.9869,-1.9747,-1.9726,-1.9726,-1.9726,-1.969,-1.9669,-1.9574,-1.9376,-1.9191,-1.8941,-1.8475,-1.8147,-1.7747,-1.7199,-1.6846,-1.6675,-1.6577,-1.6522,-1.6522,-1.6522,-1.6522,-1.6522,-1.6522,-1.6522,-1.6522,-1.6522,-1.6522,-1.6479,-1.6436,-1.6436,-1.6349,-1.6132,-1.6076,-1.6044,-1.5925,-1.5824,-1.5724,-1.568,-1.5457,-1.5289,-1.5244,-1.504,-1.4994,-1.5244,-1.504,-1.4994,-1.5198,-1.4823,-1.4651,-1.4605,-1.4384,-1.4208,-1.4067,-1.3858,-1.3515,-1.318,-1.2968,-1.2881,0.0,0.0,0.0,-1.3266,-1.3211,0.0,0.0,-1.2276,-1.1349,-1.1354,-1.0318,-0.9524,-0.9888,-1.0527,-1.1279,-1.211,-1.3151,-1.408,-1.4721,-1.5883,-1.6678,-1.6744,-1.6723,-1.6761,-1.6884,-1.6826,-1.6959,-1.7314,-1.7667,-1.7893,-1.7992,-1.8057,-1.8121,-1.8184,-1.818,-1.8121,-1.8117,-1.8009,-1.7922,-1.7917,-1.7811,-1.7749,-1.7749,-1.7641,-1.7532,-1.7408,-1.7542,-1.7448,-1.7262,-1.8018,-1.8176,-1.8123,-1.9321,-1.9762,-1.969,-1.969,-1.969,-1.969,-1.969,-1.9617,-1.9465,-1.9265,-1.9003,-1.8673,-1.8214,-1.7774,-1.7282,-1.6876,-1.6705,-1.6577,-1.6522,-1.6522,-1.6522,-1.6522,-1.6522,-1.6522,-1.6522,-1.6522,-1.6522,-1.6522,-1.6479,-1.6436,-1.6392,-1.6306,-1.6163,-1.6032,-1.5901,-1.5724,-1.5546,-1.5412,-1.5289,-1.5108,-1.4926,-1.4834,-1.4743,-1.4593,-1.449,-1.464,-1.4433,-1.4398,-1.4466,-1.4233,-1.4046,-1.3999,-1.3858,-1.3773,-1.3716,-1.3515,-1.3314,-1.3218,-1.3007,-1.2881,0.0,0.0,0.0,0.0,0.0,-1.4017,0.0,0.0,0.0,-1.1918,-1.0958,-1.0179,-1.0179,-1.072,-1.1222,-1.1336,-1.2483,-1.3129,-1.253,-1.373,-1.4767,-1.4964,-1.5058,-1.5091,-1.5076,-1.5157,-1.5415,-1.5937,-1.6647,-1.7176,-1.7462,-1.7608,-1.7764,-1.7966,-1.79,-1.7878,-1.7878,-1.7726,-1.7681,-1.7704,-1.7612,-1.7572,-1.7618,-1.7486,-1.7344,-1.7224,-1.6935,-1.6696,-1.6495,-1.6901,-1.703,-1.7075,-1.8895,-1.9581,-1.951,-1.963,-1.969,-1.969,-1.969,-1.956,-1.9376,-1.9153,-1.8774,-1.8321,-1.7868,-1.7378,-1.6876,-1.6718,-1.6577,-1.6522,-1.6522,-1.6522,-1.6522,-1.6522,-1.6522,-1.6522,-1.6522,-1.6522,-1.6522,-1.6522,-1.6436,-1.6362,-1.6362,-1.6132,-1.5957,-1.5869,-1.568,-1.5412,-1.5175,-1.5051,-1.4834,-1.4569,-1.4477,-1.4384,-1.428,-1.4129,-1.4082,-1.4082,-1.3931,-1.3789,-1.3716,-1.3762,-1.3707,-1.3611,-1.3693,-1.3685,-1.3626,-1.3479,-1.334,-1.318,-1.2968,-1.293,0.0,0.0,0.0,0.0,-1.382,-1.3695,-1.315,0.0,-1.1776,-1.1241,0.0,-1.0038,-1.009,0.0,0.0,-1.1222,-1.1858,-1.2147,-1.154,-1.2085,-1.2688,-1.3057,-1.3609,-1.3775,-1.3256,-1.3727,-1.4076,-1.4112,-1.4794,-1.5521,-1.6249,-1.6357,-1.6723,-1.7462,-1.7455,-1.7472,-1.7472,-1.7448,-1.7432,-1.7448,-1.7432,-1.7408,-1.7344,-1.7224,-1.706,-1.6935,-1.667,-1.6474,-1.6347,-1.68,-1.6985,-1.703,-1.8317,-1.8807,-1.8897,-1.9465,-1.969,-1.969,-1.9647,-1.9538,-1.9339,-1.9093,-1.8556,-1.7882,-1.7406,-1.7115,-1.6833,-1.6607,-1.6522,-1.6522,-1.6522,-1.6522,-1.6522,-1.6522,-1.6522,-1.6522,-1.6522,-1.6522,-1.6522,-1.6522,-1.6362,-1.6244,-1.6244,-1.6013,-1.5703,-1.5435,-1.5244,-1.5017,-1.4708,-1.4569,-1.4419,-1.4269,-1.4046,-1.3868,-1.3858,-1.3658,-1.3563,-1.3658,-1.3409,-1.3362,-1.342,-1.363,-1.3691,-1.3691,-1.4059,-1.4258,-1.4373,-1.4258,-1.3818,-1.3123,-1.2978,-1.3076,0.0,0.0,-1.5319,-1.5049,-1.4947,-1.4899,-1.4641,-1.3745,-1.2936,-1.2682,0.0,0.0,0.0,0.0,0.0,0.0,-1.1835,-1.1795,-1.1162,-1.1632,-1.1856,-1.1401,-1.1904,-1.2047,-1.1439,-1.2031,-1.2425,-1.2348,-1.3023,-1.3786,-1.4555,-1.5123,-1.5788,-1.656,-1.6979,-1.7167,-1.7167,-1.7093,-1.7093,-1.7167,-1.7093,-1.7093,-1.7126,-1.6917,-1.6747,-1.6644,-1.6436,-1.6246,-1.6139,-1.6302,-1.6307,-1.6338,-1.7174,-1.7724,-1.8208,-1.8867,-1.9101,-1.909,-1.9405,-1.9354,-1.9093,-1.8567,-1.8069,-1.7556,-1.7212,-1.6918,-1.6748,-1.6565,-1.6522,-1.6522,-1.6522,-1.6522,-1.6522,-1.6522,-1.6522,-1.6522,-1.6522,-1.6522,-1.6622,-1.6948,-1.6878,-1.6888,-1.721,-1.6623,-1.6053,-1.5881,-1.5962,-1.5804,-1.5107,-1.4979,-1.4726,-1.4125,-1.3962,-1.3868,-1.3821,-1.3467,-1.3314,-1.3362,-1.3142,-1.3055,-1.3104,-1.3431,-1.3557,-1.3557,-1.3978,-1.4184,-1.4247,-1.4184,-1.4008,-1.3665,-1.3603,-1.3701,-1.5983,-1.587,-1.5799,-1.5799,-1.5799,-1.5754,-1.5574,-1.4767,-1.3974,-1.36,-1.2747,0.0,0.0,0.0,0.0,0.0,0.0,-1.1565,-1.0902,-1.138,-1.1373,-1.0268,-1.0356,-1.0338,-0.9916,-1.0214,-1.0434,-1.0399,-1.1075,-1.1897,-1.2816,-1.3887,-1.487,-1.5799,-1.6497,-1.6841,-1.6841,-1.6738,-1.6738,-1.6841,-1.6738,-1.6738,-1.6815,-1.6596,-1.6463,-1.6367,-1.6207,-1.6067,-1.5983,-1.5885,-1.5827,-1.5786,-1.6159,-1.6603,-1.7136,-1.8034,-1.8431,-1.8564,-1.8877,-1.8858,-1.862,-1.8082,-1.7652,-1.7308,-1.7044,-1.6846,-1.6675,-1.6522,-1.6522,-1.6522,-1.6522,-1.6522,-1.6522,-1.6522,-1.6522,-1.6522,-1.6522,-1.6635,-1.6886,-1.73,-1.7397,-1.7563,-1.7915,-1.7312,-1.6693,-1.6515,-1.6699,-1.6497,-1.5717,-1.5612,-1.5344,-1.4628,-1.4489,-1.4392,-1.415,-1.3787,-1.3481,-1.3312,-1.3027,-1.293,-1.3047,-1.3457,-1.374,-1.3857,-1.4268,-1.4482,-1.4482,-1.4482,-1.4482,-1.4473,-1.4194,-1.4145,-1.5913,-1.5856,-1.5799,-1.5799,-1.5799,-1.5634,-1.4989,-1.4797,-1.4393,-1.3115,-1.2801,-1.2553,-1.1844,0.0,0.0,0.0,0.0,0.0,0.0,-1.114,-1.1073,-0.9865,-0.9171,-0.8771,-0.8756,-0.8304,-0.8031,-0.8105,-0.8789,-0.9804,-1.1203,-1.2593,-1.3976,-1.5393,-1.6077,-1.6425,-1.6425,-1.6409,-1.6409,-1.6425,-1.6409,-1.6382,-1.6328,-1.6234,-1.6194,-1.6095,-1.597,-1.59,-1.59,-1.5827,-1.5741,-1.561,-1.5536,-1.5477,-1.5561,-1.691,-1.7807,-1.8264,-1.8029,-1.7969,-1.8002,-1.7787,-1.7475,-1.7157,-1.696,-1.6803,-1.6675,-1.6522,-1.6522,-1.6522,-1.6522,-1.6522,-1.6522,-1.6522,-1.6522,-1.6522,-1.6522,-1.6961,-1.7363,-1.7388,-1.7697,-1.7964,-1.7977,-1.7786,-1.7557,-1.7302,-1.7156,-1.6947,-1.6528,-1.6466,-1.6316,-1.5873,-1.5709,-1.5453,-1.5008,-1.4726,-1.423,-1.3567,-1.3105,-1.3066,-1.3467,-1.3887,-1.4307,-1.4736,-1.5156,-1.5371,-1.5371,-1.5371,-1.5371,-1.5352,-1.4467,-1.4355,-1.6034,-1.5856,-1.5799,-1.5799,-1.5799,-1.5739,-1.5514,-1.5124,-1.4663,-1.4225,-1.343,-1.2718,-1.2409,0.0,0.0,0.0,0.0,0.0,0.0,-1.1051,-1.0861,-1.042,-0.9614,-0.8964,-0.8599,-0.8404,-0.8162,-0.7827,-0.802,-0.8783,-1.0209,-1.1602,-1.3023,-1.4443,-1.5553,-1.6179,-1.6207,-1.6179,-1.6179,-1.6207,-1.6179,-1.6151,-1.6163,-1.6055,-1.597,-1.597,-1.5799,-1.5712,-1.5697,-1.558,-1.5507,-1.5448,-1.5255,-1.5104,-1.5158,-1.6163,-1.6819,-1.7249,-1.7644,-1.7678,-1.7543,-1.7323,-1.7086,-1.6846,-1.6803,-1.6663,-1.6565,-1.6522,-1.6522,-1.6522,-1.6522,-1.6522,-1.6522,-1.6522,-1.6522,-1.6522,-1.6522,-1.6974,-1.7488,-1.7852,-1.8319,-1.8758,-1.8995,-1.9019,-1.8694,-1.7989,-1.8178,-1.8057,-1.7345,-1.722,-1.694,-1.6255,-1.5957,-1.5599,-1.5164,-1.4672,-1.4113,-1.3535,-1.3633,-1.3652,-1.3516,-1.4189,-1.4639,-1.4785,-1.5195,-1.541,-1.541,-1.541,-1.541,-1.54,-1.5117,-1.5059,-1.6322,-1.6007,-1.5799,-1.5799,-1.5799,-1.5799,-1.5799,-1.5469,-1.5109,-1.4842,-1.4094,-1.3297,-1.2734,-1.2188,0.0,0.0,0.0,0.0,0.0,-1.0825,-1.0656,-1.0572,-0.9872,-0.9204,-0.8688,-0.8226,-0.7859,-0.7618,-0.756,-0.8271,-0.9927,-1.1298,-1.2692,-1.4105,-1.5227,-1.5826,-1.5898,-1.587,-1.587,-1.5898,-1.587,-1.5898,-1.5926,-1.5827,-1.5799,-1.577,-1.561,-1.5522,-1.5463,-1.5374,-1.5269,-1.5179,-1.4966,-1.4797,-1.4683,-1.528,-1.5789,-1.6386,-1.7236,-1.7365,-1.7183,-1.696,-1.6748,-1.6633,-1.6633,-1.6577,-1.6522,-1.6522,-1.6522,-1.6522,-1.6522,-1.6522,-1.6522,-1.6522,-1.6522,-1.6522,-1.6522,-1.6974,-1.7488,-1.7793,-1.8294,-1.8684,-1.8882,-1.8881,-1.8792,-1.8521,-1.877,-1.8761,-1.8037,-1.7909,-1.7594,-1.6886,-1.6464,-1.5988,-1.5429,-1.4844,-1.4302,-1.3975,-1.4072,-1.4082,-1.3965,-1.4492,-1.4853,-1.501,-1.5273,-1.541,-1.541,-1.541,-1.541,-1.541,-1.541,-1.541]},{"header":{"parameterUnit":"m.s-1","parameterCategory":1,"la1":30.6,"la2":29.2853,"lo1":-89.7004,"lo2":-87.6739,"dy":0.0162,"dx":0.0183,"nx":112,"ny":82,"refTime":"2023-07-26T12:00:00:Z","depth":0,"parameterNumber":3,"parameterNumberName":"V-component_of_WINDS"},"data":[0.0,0.0,0.0,0.0,0.0,0.0,0.0,0.0,0.0,0.0,0.0,0.0,0.0,0.0,0.0,0.0,0.0,0.0,0.0,0.0,0.0,0.0,0.0,0.0,0.0,0.0,0.0,0.0,0.0,0.0,0.0,0.0,0.0,0.0,0.0,0.0,0.0,0.0,0.0,0.0,0.0,0.0,0.0,0.0,0.0,0.0,0.0,0.0,0.0,0.0,0.0,0.0,0.0,0.0,0.0,0.0,0.0,0.0,0.0,0.0,0.0,0.0,0.0,0.0,0.0,0.0,0.0,0.0,0.0,0.0,0.0,0.0,0.0,0.0,0.0,0.0,0.0,0.0,0.0,0.0,0.0,0.0,0.0,0.0,0.0,0.0,0.0,0.0,0.0,0.0,-0.922,-0.9546,-1.1699,-1.3418,-1.4233,-1.486,-1.5043,-1.465,0.0,0.0,0.0,0.0,0.0,0.0,0.0,0.0,0.0,0.0,0.0,0.0,0.0,0.0,0.0,0.0,0.0,0.0,0.0,0.0,0.0,0.0,0.0,0.0,0.0,0.0,0.0,0.0,0.0,0.0,0.0,0.0,0.0,0.0,0.0,0.0,0.0,0.0,0.0,0.0,0.0,0.0,0.0,0.0,0.0,0.0,0.0,0.0,0.0,0.0,0.0,0.0,0.0,0.0,0.0,0.0,0.0,0.0,0.0,0.0,0.0,0.0,0.0,0.0,0.0,0.0,0.0,0.0,0.0,0.0,0.0,0.0,0.0,0.0,0.0,0.0,0.0,0.0,0.0,0.0,0.0,0.0,0.0,0.0,0.0,0.0,0.0,0.0,0.0,0.0,0.0,0.0,0.0,0.0,0.0,0.0,0.0,0.0,0.0,0.0,0.0,0.0,0.0,0.0,-1.0575,-1.2065,-1.3231,-1.4271,-1.5137,-1.5257,-1.5146,-1.4779,0.0,0.0,0.0,0.0,0.0,0.0,0.0,0.0,0.0,0.0,0.0,0.0,0.0,0.0,0.0,0.0,0.0,0.0,0.0,0.0,0.0,0.0,0.0,0.0,0.0,0.0,0.0,0.0,0.0,0.0,0.0,0.0,0.0,0.0,0.0,0.0,0.0,0.0,0.0,0.0,0.0,0.0,0.0,0.0,0.0,0.0,0.0,0.0,0.0,0.0,0.0,0.0,0.0,0.0,0.0,0.0,0.0,0.0,0.0,0.0,0.0,0.0,0.0,0.0,0.0,0.0,0.0,0.0,0.0,0.0,0.0,0.0,0.0,0.0,0.0,0.0,0.0,0.0,0.0,0.0,0.0,0.0,0.0,0.0,0.0,0.0,0.0,0.0,0.0,0.0,0.0,0.0,0.0,0.0,0.0,0.0,0.0,0.0,0.0,0.0,0.0,0.0,0.0,-1.1305,-1.2104,-1.3377,-1.3866,-1.4451,-1.5331,-1.5303,-1.5115,-1.4821,-1.4112,0.0,0.0,0.0,0.0,0.0,0.0,0.0,0.0,0.0,0.0,0.0,0.0,0.0,0.0,0.0,0.0,0.0,0.0,0.0,0.0,0.0,0.0,0.0,0.0,0.0,0.0,0.0,0.0,0.0,0.0,0.0,0.0,0.0,0.0,0.0,0.0,0.0,0.0,0.0,0.0,0.0,0.0,0.0,0.0,0.0,0.0,0.0,0.0,0.0,0.0,0.0,0.0,0.0,0.0,0.0,0.0,0.0,0.0,0.0,0.0,0.0,0.0,0.0,0.0,0.0,0.0,0.0,0.0,0.0,0.0,0.0,0.0,0.0,0.0,0.0,0.0,0.0,0.0,0.0,0.0,0.0,0.0,0.0,0.0,0.0,0.0,0.0,0.0,0.0,0.0,0.0,0.0,0.0,0.0,0.0,0.0,0.0,0.0,0.0,0.0,0.0,0.0,-1.2544,-1.333,-1.4004,-1.4254,-1.4642,-1.5323,-1.5282,-1.5121,-1.4859,-1.4341,0.0,0.0,0.0,0.0,0.0,0.0,0.0,0.0,0.0,0.0,0.0,0.0,0.0,0.0,0.0,0.0,0.0,0.0,0.0,0.0,0.0,0.0,0.0,0.0,0.0,0.0,0.0,0.0,0.0,0.0,0.0,0.0,0.0,0.0,0.0,0.0,0.0,0.0,0.0,0.0,0.0,0.0,0.0,0.0,0.0,0.0,0.0,0.0,0.0,0.0,0.0,0.0,0.0,0.0,0.0,0.0,0.0,0.0,0.0,0.0,0.0,0.0,0.0,0.0,0.0,0.0,0.0,0.0,0.0,0.0,0.0,0.0,0.0,0.0,0.0,0.0,0.0,0.0,0.0,0.0,0.0,0.0,0.0,0.0,0.0,0.0,0.0,0.0,0.0,0.0,0.0,0.0,0.0,0.0,0.0,0.0,0.0,0.0,0.0,0.0,0.0,0.0,-1.3414,-1.3934,-1.3994,-1.4729,-1.5239,-1.5295,-1.5292,-1.5216,-1.5006,-1.4876,0.0,0.0,0.0,0.0,0.0,0.0,0.0,0.0,0.0,0.0,0.0,0.0,0.0,0.0,0.0,0.0,0.0,0.0,0.0,0.0,0.0,0.0,0.0,0.0,0.0,0.0,0.0,0.0,0.0,0.0,0.0,0.0,0.0,0.0,0.0,0.0,0.0,0.0,0.0,0.0,0.0,0.0,0.0,0.0,0.0,0.0,0.0,0.0,0.0,0.0,0.0,0.0,0.0,0.0,0.0,0.0,0.0,0.0,0.0,0.0,0.0,0.0,0.0,0.0,0.0,0.0,0.0,0.0,0.0,0.0,0.0,0.0,0.0,0.0,0.0,0.0,0.0,0.0,0.0,0.0,0.0,0.0,0.0,0.0,0.0,0.0,0.0,0.0,0.0,0.0,0.0,0.0,0.0,0.0,0.0,0.0,0.0,0.0,0.0,0.0,0.0,0.0,-1.4192,-1.4668,-1.4622,-1.492,-1.5159,-1.5221,-1.5249,-1.5165,-1.5003,0.0,0.0,0.0,0.0,0.0,0.0,0.0,0.0,0.0,0.0,0.0,0.0,0.0,0.0,0.0,0.0,0.0,0.0,0.0,0.0,0.0,0.0,0.0,0.0,0.0,0.0,0.0,0.0,0.0,0.0,0.0,0.0,0.0,0.0,0.0,0.0,0.0,0.0,0.0,0.0,0.0,0.0,0.0,0.0,0.0,0.0,0.0,0.0,0.0,0.0,0.0,0.0,0.0,0.0,0.0,0.0,0.0,0.0,0.0,0.0,0.0,0.0,0.0,0.0,0.0,0.0,0.0,0.0,0.0,0.0,0.0,0.0,0.0,0.0,0.0,0.0,0.0,0.0,0.0,0.0,0.0,0.0,0.0,0.0,0.0,0.0,0.0,0.0,0.0,0.0,0.0,0.0,0.0,0.0,0.0,0.0,0.0,0.0,0.0,0.0,0.0,0.0,-1.4347,-1.4686,-1.498,-1.4916,-1.4927,-1.4986,-1.5129,-1.5173,-1.5251,-1.5392,0.0,0.0,0.0,0.0,0.0,0.0,0.0,0.0,0.0,0.0,0.0,0.0,0.0,0.0,0.0,0.0,0.0,0.0,0.0,0.0,0.0,0.0,0.0,0.0,0.0,0.0,0.0,0.0,0.0,0.0,0.0,0.0,0.0,0.0,0.0,0.0,0.0,0.0,0.0,0.0,0.0,0.0,0.0,0.0,0.0,0.0,0.0,0.0,0.0,0.0,0.0,0.0,0.0,0.0,0.0,0.0,0.0,0.0,0.0,0.0,0.0,0.0,0.0,0.0,0.0,0.0,0.0,0.0,0.0,0.0,0.0,0.0,0.0,0.0,0.0,0.0,0.0,0.0,0.0,0.0,0.0,0.0,0.0,0.0,0.0,0.0,0.0,0.0,0.0,0.0,0.0,0.0,0.0,0.0,0.0,0.0,0.0,0.0,0.0,0.0,0.0,0.0,-1.5014,-1.4877,-1.4766,-1.471,-1.4746,-1.4847,-1.4983,-1.5123,-1.5502,0.0,0.0,0.0,0.0,0.0,0.0,0.0,0.0,0.0,0.0,0.0,0.0,0.0,0.0,0.0,0.0,0.0,0.0,0.0,0.0,0.0,0.0,0.0,0.0,0.0,0.0,0.0,0.0,0.0,0.0,0.0,0.0,0.0,0.0,0.0,0.0,0.0,0.0,0.0,0.0,0.0,0.0,0.0,0.0,0.0,0.0,0.0,0.0,0.0,0.0,0.0,0.0,0.0,0.0,0.0,0.0,0.0,0.0,0.0,0.0,0.0,0.0,0.0,0.0,0.0,0.0,0.0,0.0,0.0,0.0,0.0,0.0,0.0,0.0,0.0,0.0,0.0,0.0,0.0,0.0,0.0,0.0,0.0,0.0,0.0,0.0,0.0,0.0,0.0,0.0,0.0,0.0,0.0,0.0,0.0,0.0,0.0,0.0,0.0,0.0,0.0,0.0,0.0,-1.4801,-1.4621,-1.4501,-1.4428,-1.4441,-1.4505,-1.4635,-1.4861,-1.507,-1.5308,0.0,0.0,0.0,0.0,0.0,0.0,0.0,0.0,0.0,0.0,0.0,0.0,0.0,0.0,0.0,0.0,0.0,0.0,0.0,0.0,0.0,0.0,0.0,0.0,0.0,0.0,0.0,0.0,0.0,0.0,0.0,0.0,0.0,0.0,0.0,0.0,0.0,0.0,0.0,0.0,0.0,0.0,0.0,0.0,0.0,0.0,0.0,0.0,0.0,0.0,0.0,0.0,0.0,0.0,0.0,0.0,0.0,0.0,0.0,0.0,0.0,0.0,0.0,0.0,0.0,0.0,0.0,0.0,0.0,0.0,0.0,0.0,0.0,0.0,0.0,0.0,0.0,0.0,0.0,0.0,0.0,0.0,0.0,0.0,0.0,0.0,0.0,0.0,0.0,0.0,0.0,0.0,0.0,0.0,0.0,0.0,0.0,0.0,0.0,0.0,0.0,0.0,-1.4605,-1.4354,-1.4201,-1.4159,-1.4162,-1.4222,-1.4323,-1.454,-1.4832,-1.5225,0.0,0.0,0.0,0.0,0.0,0.0,0.0,0.0,0.0,0.0,0.0,0.0,0.0,0.0,0.0,0.0,0.0,0.0,0.0,0.0,0.0,0.0,0.0,0.0,0.0,0.0,0.0,0.0,0.0,0.0,0.0,0.0,0.0,0.0,0.0,0.0,0.0,0.0,0.0,0.0,0.0,0.0,0.0,0.0,0.0,0.0,0.0,0.0,0.0,0.0,0.0,0.0,0.0,0.0,0.0,0.0,0.0,0.0,0.0,0.0,0.0,0.0,0.0,0.0,0.0,0.0,0.0,0.0,0.0,0.0,0.0,0.0,0.0,0.0,0.0,0.0,0.0,0.0,0.0,0.0,0.0,0.0,0.0,0.0,0.0,0.0,0.0,0.0,0.0,0.0,0.0,0.0,0.0,0.0,0.0,0.0,0.0,0.0,0.0,0.0,0.0,0.0,-1.4593,-1.4275,-1.4082,-1.3938,-1.3965,-1.4002,-1.3989,-1.4113,-1.4577,-1.5529,0.0,0.0,0.0,0.0,0.0,0.0,0.0,0.0,0.0,0.0,0.0,0.0,0.0,0.0,0.0,0.0,0.0,0.0,0.0,0.0,0.0,0.0,0.0,0.0,0.0,0.0,0.0,0.0,0.0,0.0,0.0,0.0,0.0,0.0,0.0,0.0,0.0,0.0,0.0,0.0,0.0,0.0,0.0,0.0,0.0,0.0,0.0,0.0,0.0,0.0,0.0,0.0,0.0,0.0,0.0,0.0,0.0,0.0,0.0,0.0,-1.3603,-1.3618,0.0,0.0,0.0,0.0,0.0,0.0,0.0,0.0,0.0,0.0,0.0,0.0,0.0,0.0,0.0,0.0,0.0,0.0,0.0,0.0,0.0,0.0,0.0,0.0,0.0,0.0,0.0,0.0,0.0,0.0,0.0,0.0,0.0,0.0,0.0,0.0,0.0,0.0,0.0,0.0,-1.5715,-1.5367,-1.4908,-1.4222,-1.4048,-1.378,-1.3278,-1.3274,-1.3484,-1.3959,-1.4709,0.0,0.0,0.0,0.0,0.0,0.0,0.0,0.0,0.0,0.0,0.0,0.0,0.0,0.0,0.0,0.0,0.0,0.0,0.0,0.0,0.0,0.0,0.0,0.0,0.0,0.0,0.0,0.0,0.0,0.0,0.0,0.0,0.0,0.0,0.0,0.0,0.0,0.0,0.0,0.0,0.0,0.0,0.0,0.0,0.0,0.0,0.0,0.0,0.0,0.0,0.0,0.0,0.0,0.0,0.0,0.0,0.0,0.0,0.0,-1.5338,-1.505,0.0,0.0,0.0,0.0,0.0,0.0,0.0,0.0,0.0,0.0,0.0,0.0,0.0,0.0,0.0,0.0,0.0,0.0,0.0,0.0,0.0,0.0,0.0,0.0,0.0,0.0,0.0,0.0,0.0,0.0,0.0,0.0,0.0,0.0,0.0,0.0,0.0,0.0,0.0,0.0,-1.567,-1.5241,-1.4815,-1.4288,-1.3977,-1.365,-1.3257,-1.3025,-1.3042,-1.3336,-1.3629,0.0,0.0,0.0,0.0,0.0,0.0,0.0,0.0,0.0,0.0,0.0,0.0,0.0,0.0,0.0,0.0,0.0,0.0,0.0,0.0,0.0,0.0,0.0,0.0,0.0,0.0,0.0,0.0,0.0,0.0,0.0,0.0,0.0,0.0,0.0,0.0,0.0,0.0,0.0,0.0,0.0,0.0,0.0,0.0,0.0,0.0,0.0,0.0,0.0,0.0,0.0,0.0,0.0,-1.8841,-1.9011,-1.879,-1.8683,-1.8495,-1.8219,-1.7269,-1.6641,-1.6341,-1.6323,0.0,0.0,0.0,0.0,0.0,0.0,0.0,0.0,0.0,0.0,0.0,0.0,0.0,0.0,0.0,0.0,0.0,0.0,0.0,0.0,0.0,0.0,-1.5199,-1.5795,-1.6465,-1.7331,-1.8873,0.0,0.0,0.0,0.0,0.0,0.0,0.0,0.0,0.0,0.0,0.0,-1.5381,-1.4883,-1.4497,-1.4212,-1.374,-1.3333,-1.3139,-1.2673,-1.2496,-1.2724,-1.2367,-1.2473,0.0,0.0,0.0,0.0,0.0,0.0,0.0,0.0,0.0,0.0,0.0,0.0,0.0,0.0,0.0,0.0,0.0,0.0,0.0,0.0,0.0,0.0,0.0,0.0,0.0,0.0,0.0,0.0,0.0,0.0,0.0,0.0,-1.6269,-1.7267,0.0,0.0,0.0,0.0,0.0,0.0,0.0,0.0,0.0,0.0,0.0,0.0,0.0,-1.827,-1.9434,-1.9447,-1.9755,-2.0311,-2.0906,-2.0766,-1.9996,-2.0475,-2.022,-1.9368,-1.91,0.0,-1.6471,-1.6399,0.0,0.0,0.0,0.0,0.0,0.0,0.0,0.0,0.0,0.0,0.0,0.0,0.0,0.0,0.0,0.0,0.0,0.0,0.0,0.0,0.0,0.0,-1.4977,-1.5605,-1.5768,-1.6065,-1.6965,-1.7961,-1.8642,-1.8578,-1.8515,-1.8448,0.0,0.0,0.0,0.0,0.0,0.0,-1.584,-1.5334,-1.4688,-1.3785,-1.3124,-1.2419,-1.1673,-1.1051,-1.0774,-1.0924,-1.0833,-1.0884,-1.117,-1.1041,0.0,0.0,0.0,0.0,0.0,0.0,0.0,0.0,0.0,0.0,0.0,0.0,0.0,0.0,0.0,0.0,0.0,0.0,0.0,0.0,0.0,0.0,0.0,0.0,0.0,0.0,0.0,0.0,0.0,-1.7624,-1.8077,-1.8377,-1.9124,-1.9752,0.0,0.0,0.0,0.0,0.0,0.0,0.0,0.0,0.0,-1.9505,-1.9425,-1.9756,-2.0576,-2.0932,-2.1404,-2.1997,-2.2603,-2.2643,-2.2241,-2.2347,-2.1915,-2.1059,-2.0844,-1.9771,-1.8145,-1.7532,-1.7166,-1.6984,0.0,0.0,0.0,0.0,-1.659,-1.6684,-1.6087,-1.6006,-1.6117,-1.574,0.0,0.0,0.0,0.0,0.0,0.0,0.0,-1.4383,-1.4858,-1.4749,-1.4673,-1.5221,-1.5276,-1.5309,-1.5652,-1.6124,-1.6669,-1.7305,-1.7383,-1.7311,-1.7215,-1.6855,0.0,0.0,0.0,-1.5155,-1.4886,-1.4318,-1.3779,-1.3194,-1.2435,-1.1744,-1.1138,-1.039,-0.9909,-0.9813,-0.9189,-0.895,-0.9258,-0.8875,-0.9065,0.0,0.0,0.0,0.0,0.0,0.0,0.0,0.0,0.0,0.0,0.0,0.0,0.0,0.0,0.0,0.0,0.0,0.0,0.0,0.0,0.0,0.0,0.0,0.0,0.0,0.0,0.0,0.0,-1.8119,-1.8962,-1.8849,-1.9525,-1.9974,0.0,0.0,0.0,0.0,0.0,0.0,-2.0299,-2.0319,-2.0569,-2.1144,-2.1216,-2.143,-2.1894,-2.2336,-2.2789,-2.3156,-2.377,-2.3933,-2.3651,-2.3606,-2.3109,-2.2197,-2.185,-2.0964,-1.9705,-1.8712,-1.8219,-1.8047,-1.7492,-1.7364,-1.7426,-1.7242,-1.7369,-1.7504,-1.6763,-1.6697,-1.6863,-1.6293,-1.6084,-1.5963,-1.5344,0.0,0.0,0.0,0.0,-1.4516,-1.4948,-1.4803,-1.46,-1.4966,-1.492,-1.4786,-1.4621,-1.458,-1.4904,-1.6018,-1.616,-1.608,-1.5918,-1.5542,0.0,-1.4857,-1.4273,-1.3756,-1.3519,-1.2967,-1.2483,-1.2224,-1.1443,-1.0774,-1.0338,-0.9506,-0.8873,-0.8543,-0.7521,-0.7018,-0.7121,-0.6482,-0.6585,-0.7621,0.0,0.0,0.0,0.0,0.0,0.0,0.0,0.0,0.0,0.0,0.0,0.0,0.0,0.0,0.0,0.0,0.0,0.0,0.0,0.0,0.0,0.0,0.0,0.0,0.0,0.0,0.0,0.0,0.0,-1.8619,-1.9277,0.0,0.0,0.0,0.0,-2.0258,-2.0674,-2.0841,-2.0688,-2.1149,-2.1644,-2.2112,-2.2668,-2.3243,-2.3769,-2.3687,-2.3605,-2.3569,-2.4251,-2.4094,-2.3256,-2.3891,-2.3465,-2.226,-2.1662,-2.11,-2.0453,-1.9531,-1.8746,-1.8084,-1.785,-1.782,-1.7867,-1.7725,-1.7548,-1.7368,-1.7088,-1.6832,-1.6571,-1.6291,-1.6121,-1.5899,-1.544,-1.5319,0.0,0.0,-1.5436,-1.5344,-1.5882,-1.5581,-1.5104,-1.4955,-1.4765,-1.4449,-1.3889,-1.3777,-1.3992,-1.4752,-1.4884,-1.4823,-1.4547,0.0,-1.3945,-1.3544,-1.3017,-1.2531,-1.2165,-1.1575,-1.1058,-1.0654,-0.9886,-0.9195,-0.8674,-0.79,-0.7189,-0.6668,-0.5927,-0.5204,-0.4531,-0.3784,-0.3565,-0.3958,-0.2037,0.0,0.0,0.0,0.0,0.0,0.0,0.0,0.0,0.0,0.0,0.0,0.0,0.0,0.0,0.0,0.0,0.0,0.0,0.0,0.0,0.0,0.0,0.0,0.0,0.0,0.0,0.0,0.0,-2.0616,-2.077,0.0,-2.0693,-2.0716,-2.0845,-2.1192,-2.1237,-2.1581,-2.2275,-2.2367,-2.2622,-2.3091,-2.3178,-2.3418,-2.3811,-2.3775,-2.3941,-2.423,-2.4483,-2.4444,-2.4092,-2.4225,-2.3668,-2.2674,-2.2233,-2.1585,-2.0743,-1.9773,-1.8892,-1.81,-1.7567,-1.7324,-1.7294,-1.706,-1.7231,-1.7427,-1.6641,-1.6514,-1.659,-1.5766,-1.5385,-1.5258,-1.4988,-1.4961,-1.5021,-1.5095,-1.4972,-1.4863,-1.493,-1.4596,-1.4165,-1.399,-1.3738,-1.3507,-1.3191,-1.3054,-1.2935,-1.2775,-1.3017,-1.3171,-1.2967,-1.2657,-1.2354,-1.2105,-1.1619,-1.1212,-1.0881,-1.0224,-0.969,-0.9327,-0.8577,-0.7941,-0.7377,-0.6609,-0.5839,-0.5196,-0.4192,-0.3337,-0.2606,-0.178,-0.1245,-0.1061,0.1206,0.2805,0.0,0.0,0.0,0.0,0.0,0.0,0.0,0.0,0.0,0.0,0.0,0.0,0.0,0.0,0.0,0.0,0.0,0.0,0.0,0.0,0.0,0.0,0.0,0.0,0.0,-2.0681,-2.1337,-2.1934,-2.1787,-2.17,-2.1822,-2.1847,-2.1958,-2.2212,-2.2283,-2.2642,-2.336,-2.3455,-2.3538,-2.3719,-2.3783,-2.3861,-2.403,-2.3991,-2.4106,-2.441,-2.441,-2.4369,-2.4245,-2.412,-2.361,-2.2822,-2.2319,-2.1642,-2.0755,-1.9824,-1.8918,-1.8082,-1.7551,-1.7311,-1.7211,-1.6955,-1.7068,-1.7202,-1.64,-1.6284,-1.6384,-1.553,-1.5163,-1.5012,-1.4877,-1.4906,-1.4976,-1.4976,-1.4923,-1.4812,-1.4618,-1.4232,-1.3809,-1.366,-1.3336,-1.3065,-1.2721,-1.2507,-1.2146,-1.133,-1.1659,-1.196,-1.1608,-1.1328,-1.1142,-1.1054,-1.0666,-1.0278,-1.0026,-0.9304,-0.865,-0.8234,-0.7461,-0.6784,-0.6204,-0.5422,-0.4644,-0.3862,-0.2758,-0.1802,-0.0941,-0.0039,0.0693,0.1209,0.3981,0.5801,0.6624,0.0,0.0,0.0,0.0,0.0,0.0,0.0,0.0,0.0,0.0,0.0,0.0,0.0,0.0,0.0,0.0,0.0,0.0,0.0,0.0,0.0,0.0,0.0,-2.0749,-2.122,-2.1823,-2.2416,-2.2247,-2.23,-2.2892,-2.3419,-2.3596,-2.3363,-2.3871,-2.4115,-2.3868,-2.4351,-2.4422,-2.4036,-2.4493,-2.467,-2.4498,-2.4359,-2.4219,-2.4063,-2.4078,-2.3894,-2.3551,-2.3551,-2.3246,-2.262,-2.1914,-2.1257,-2.0653,-1.9709,-1.8821,-1.8004,-1.7852,-1.7733,-1.7625,-1.7353,-1.7063,-1.671,-1.6398,-1.6151,-1.5944,-1.568,-1.5445,-1.5266,-1.5096,-1.5142,-1.5266,-1.5344,-1.5299,-1.522,-1.5062,-1.4593,-1.414,-1.3962,-1.3668,-1.3202,-1.2536,-1.2161,-1.1657,-1.0507,-1.0842,-1.1126,-1.0449,-1.038,-1.0371,-1.0437,-1.0176,0.0,-0.9571,-0.8768,-0.8026,-0.741,-0.65,-0.5701,-0.5087,-0.4303,-0.3517,-0.2726,-0.1654,-0.0582,0.0404,0.1401,0.2246,0.2922,0.6174,0.8536,0.9908,0.0,0.0,0.0,0.0,0.0,0.0,0.0,0.0,0.0,0.0,0.0,0.0,0.0,0.0,0.0,0.0,0.0,0.0,0.0,0.0,0.0,-2.1857,-2.2656,-2.2695,-2.3187,-2.3762,-2.4416,-2.4234,-2.4046,-2.4081,-2.3958,-2.4078,-2.4431,-2.4392,-2.4489,-2.4857,-2.4786,-2.4626,-2.4365,-2.4318,-2.4204,-2.4009,-2.3867,-2.3696,-2.3523,-2.3334,-2.3143,-2.292,-2.2709,-2.2434,-2.2156,-2.1566,-2.1165,-2.085,-1.9821,-1.9162,-1.8789,-1.797,-1.7368,-1.6921,-1.6544,-1.6213,-1.5932,-1.58,-1.5591,-1.5322,-1.5142,-1.4915,-1.464,-1.4501,-1.4398,-1.434,-1.4269,-1.4176,-1.3978,-1.3684,-1.3304,-1.2987,-1.2803,-1.2608,-1.2325,-1.1969,-1.1599,-1.1034,-0.9915,-0.9573,-0.9439,-0.9501,-0.9426,-0.9407,-0.9432,-0.9148,-0.8822,-0.8533,-0.7668,-0.6836,-0.6145,-0.5389,-0.4679,-0.4134,-0.3346,-0.2544,-0.1797,-0.0681,0.0438,0.1511,0.25,0.3898,0.5819,0.8239,1.0325,0.0,0.0,0.0,0.0,0.0,0.0,0.0,0.0,0.0,0.0,0.0,0.0,0.0,0.0,0.0,0.0,0.0,0.0,0.0,0.0,0.0,0.0,-2.3241,-2.4465,-2.5192,-2.5122,-2.539,-2.6303,-2.615,-2.5998,-2.6084,-2.5773,-2.5553,-2.5501,-2.526,-2.5096,-2.5084,-2.4846,-2.4564,-2.4291,-2.4283,-2.4068,-2.3523,-2.3718,-2.354,-2.3008,-2.2768,-2.2526,-2.2249,-2.1921,-2.1636,-2.1396,-2.0908,-2.0573,-2.0359,-1.9472,-1.8907,-1.8386,0.0,0.0,0.0,0.0,-1.5254,-1.5096,-1.4994,-1.4812,-1.464,-1.449,-1.4269,-1.4046,-1.3836,-1.3742,-1.3647,-1.3409,-1.3266,-1.3112,-1.2812,-1.254,-1.2264,-1.2175,-1.1927,-1.1669,-1.1301,-1.0897,-1.0281,-0.9307,-0.867,0.0,-0.834,-0.8331,-0.8396,-0.8475,-0.8263,-0.8019,-0.7735,-0.6856,-0.6002,-0.5242,-0.4434,-0.3726,-0.3104,-0.2327,0.0,0.0,0.0,0.1654,0.3301,0.4222,0.0,0.0,0.0,1.1491,1.3082,1.5059,0.0,0.0,1.7326,1.8039,0.0,0.0,0.0,0.0,0.0,0.0,0.0,0.0,0.0,0.0,0.0,0.0,0.0,0.0,0.0,0.0,-2.4879,-2.6336,-2.775,-2.7012,-2.6753,-2.7913,-2.782,-2.7798,-2.8157,-2.7891,-2.7332,-2.6406,-2.6132,-2.5627,-2.4883,-2.457,0.0,0.0,0.0,-2.4103,-2.3272,-2.3737,-2.3508,-2.2623,-2.2399,-2.1996,-2.1506,-2.1188,-2.0845,-2.0459,-2.0055,-1.9747,-1.9448,-1.8946,-1.8213,-1.7306,-1.6824,-1.6349,-1.5857,-1.4724,-1.4326,-1.4233,-1.4025,0.0,0.0,-1.3763,-1.3621,-1.3467,-1.3218,-1.3122,-1.3025,-1.2716,-1.257,-1.2423,-1.2218,-1.194,-1.1719,-1.1669,-1.1368,-1.0956,-1.0517,-1.0005,-0.9399,-0.862,-0.7931,-0.7402,-0.7025,-0.7228,-0.7493,-0.7639,-0.7518,-0.7332,-0.6919,-0.6135,-0.5284,-0.4435,-0.3544,0.0,-0.2067,-0.1262,-0.0405,0.0508,0.1524,0.3089,0.5345,0.6307,0.7555,0.9273,1.0887,1.2294,1.3495,1.5194,1.6282,1.6803,1.778,1.812,0.0,0.0,0.0,0.0,0.0,0.0,0.0,0.0,0.0,0.0,0.0,0.0,0.0,0.0,0.0,-2.4414,-2.5752,-2.7147,-2.858,-2.857,-2.8445,-2.8498,-2.8125,-2.7879,-2.7753,-2.7358,-2.6972,-2.6557,-2.5784,-2.5226,-2.506,-2.424,-2.3936,-2.4313,-2.4097,-2.408,-2.4293,-2.3649,-2.3138,-2.2818,-2.1883,0.0,-2.0957,-2.0446,-2.0042,-1.9759,-1.9344,-1.9081,-1.891,-1.8429,-1.758,-1.6457,-1.5643,-1.511,-1.4665,-1.4121,-1.3763,-1.361,-1.3552,-1.3351,-1.3208,-1.316,-1.3035,-1.2813,-1.2666,-1.2461,0.0,-1.1859,-1.166,-1.141,-1.0897,-1.0753,-1.06,-1.0277,-1.0079,-0.9814,-0.9392,-0.8862,-0.8237,-0.7658,-0.6966,-0.6372,-0.61,-0.6567,-0.6998,-0.6839,-0.6625,-0.626,-0.5747,-0.4907,-0.3977,-0.3026,-0.237,-0.1627,-0.0734,-0.0105,0.069,0.1638,0.3431,0.5004,0.6299,0.7759,0.9156,1.045,1.2044,1.3485,1.4679,1.5973,1.6665,1.675,1.7467,1.7884,0.0,0.0,0.0,0.0,0.0,0.0,0.0,0.0,0.0,0.0,0.0,-2.1697,0.0,0.0,-2.5538,-2.6341,-2.7621,-2.8812,-2.9653,-2.9645,-2.9475,-2.9256,-2.8967,-2.8672,-2.8268,-2.7973,-2.7517,-2.6964,-2.6291,-2.5682,-2.5014,-2.4283,-2.3939,-2.4095,-2.4038,-2.3964,-2.3923,-2.3414,-2.2844,-2.2305,-2.1299,-2.061,-2.0308,-1.9747,-1.9291,-1.8922,-1.8441,-1.817,-1.7941,-1.7446,-1.6749,-1.6029,-1.5299,-1.4697,-1.4192,-1.3555,-1.32,-1.2997,-1.2803,-1.2598,-1.2442,-1.2442,-1.2363,-1.2274,-1.2126,-1.1977,-1.1728,-1.1217,-1.0913,-1.0659,-1.019,-0.9984,-0.9829,-0.9569,-0.9302,-0.8935,-0.8455,-0.7919,-0.7331,-0.675,-0.6105,-0.5614,-0.5391,-0.5437,-0.5601,-0.5714,-0.5441,-0.4941,-0.4271,-0.3558,-0.2766,-0.1798,-0.1198,-0.049,0.0327,0.152,0.2569,0.3392,0.4878,0.6249,0.7331,0.8593,0.9946,1.1266,1.2609,1.3862,1.5062,1.6071,1.6645,1.685,1.737,1.7497,0.0,0.0,0.0,0.0,0.0,0.0,0.0,0.0,-2.0461,-2.1688,-2.264,-2.3458,-2.4085,-2.587,-2.7482,-2.8227,-2.9312,-3.0085,-3.0228,-2.9959,-2.9659,-2.9326,-2.9358,-2.9212,-2.8826,-2.8574,-2.8071,-2.7311,-2.6919,-2.6186,-2.503,-2.4381,-2.3967,-2.3813,-2.3907,-2.3761,-2.3363,-2.3204,-2.2644,-2.1773,-2.0824,-2.0118,-1.9656,-1.9081,-1.8548,-1.8061,-1.7523,-1.719,-1.6965,-1.6457,-1.6056,-1.5776,-1.5177,-1.4576,-1.3912,-1.3204,-1.2753,-1.248,-1.2126,-1.1877,-1.1728,-1.1719,-1.1728,-1.1678,-1.1528,-1.1368,-1.1167,-1.0659,-1.0249,-0.994,-0.9666,-0.9413,-0.9152,-0.8942,-0.8626,-0.815,-0.7557,-0.702,-0.648,-0.5887,-0.5344,-0.4849,-0.4736,-0.4288,-0.4122,-0.4622,-0.4233,-0.3622,-0.2896,-0.223,-0.1451,-0.0614,0.0056,0.0726,0.1618,0.3226,0.4501,0.5171,0.6195,0.7213,0.8283,0.9273,1.045,1.1814,1.2909,1.3978,1.5006,1.58,1.6398,1.6837,1.7173,1.7128,-1.6427,-1.6868,-1.7342,-1.8027,-1.862,-1.9353,0.0,0.0,-2.2964,-2.3925,-2.5167,-2.6161,-2.6549,-2.7817,-2.8909,-2.915,-2.9323,-2.94,-2.945,-2.8956,-2.829,-2.7596,-2.8155,-2.8574,-2.8493,-2.8201,-2.791,-2.757,-2.6783,-2.6085,-2.5725,-2.4244,-2.3546,-2.3783,-2.3303,-2.3245,-2.3645,-2.305,-2.2485,-2.1957,-2.0774,-1.9822,-1.9093,-1.8483,-1.7886,-1.7301,-1.6684,-1.6343,-1.6228,-1.6171,-1.5884,-1.5429,-1.5008,-1.4318,-1.3516,-1.3223,-1.2632,-1.1927,-1.1678,-1.1427,-1.1175,-1.1074,-1.1023,-1.0972,-1.0871,-1.0608,-1.03,-0.9976,-0.9621,-0.9263,-0.8956,-0.8692,-0.8421,-0.799,-0.7563,-0.7079,-0.648,-0.605,-0.5618,-0.512,-0.4629,-0.4245,-0.3962,-0.3461,-0.3239,-0.3852,-0.3347,-0.2623,-0.1845,-0.1005,-0.0112,0.0782,0.1395,0.2339,0.3729,0.4889,0.5823,0.6372,0.7331,0.8283,0.902,0.9997,1.0965,1.1963,1.3016,1.3978,1.4755,1.5501,1.6013,1.6275,1.6522,1.6899,-1.6203,-1.7209,-1.8368,0.0,-2.0036,-2.1355,-2.2706,-2.3669,-2.4575,-2.5785,-2.6541,-2.7091,-2.7299,-2.8225,-2.8958,0.0,-2.9034,-2.9139,-2.8815,-2.8081,-2.7305,-2.6583,-2.6452,-2.6504,-2.6726,-2.7025,-2.7055,-2.6692,-2.6491,-2.6067,-2.5435,-2.4409,-2.3727,-2.3344,-2.303,-2.2949,-2.2998,-2.247,-2.1848,-2.1188,-2.0077,-1.9164,-1.8333,-1.7722,-1.7056,-1.6296,-1.5836,-1.5556,-1.5488,-1.5488,-1.5313,-1.4991,-1.4694,-1.3941,-1.3005,-1.2819,-1.2262,-1.1469,-1.1015,-1.0659,-1.0462,-1.0293,-1.0233,-1.0241,-1.019,-0.9984,-0.9673,-0.9413,-0.9054,-0.8685,-0.8362,-0.8043,-0.767,-0.73,-0.6815,-0.6322,-0.5773,-0.534,-0.4963,-0.446,-0.3907,-0.3463,-0.3125,-0.2456,-0.1955,-0.184,-0.173,-0.134,-0.0559,0.039,0.1448,0.2672,0.3335,0.4106,0.516,0.6136,0.695,0.754,0.8442,0.9235,0.985,1.072,1.1525,1.2307,1.3351,1.4165,1.4801,1.5468,1.5925,1.62,1.6392,1.6693,-1.6829,-1.8196,0.0,-2.0384,-2.1885,-2.3386,-2.4312,-2.5189,-2.6064,-2.6848,-2.73,-2.7556,-2.7533,-2.8086,-2.8495,-2.8296,-2.839,-2.8351,-2.788,-2.7129,-2.6229,-2.5413,-2.482,-2.4534,-2.4643,-2.5686,-2.6179,-2.5807,-2.6112,-2.5884,-2.4992,-2.4341,-2.3635,-2.2814,-2.2695,-2.2457,-2.218,-2.1858,-2.1308,-2.0475,-1.9495,-1.8589,-1.7768,-1.6896,-1.6104,-1.5439,-1.5088,-1.4852,-1.4793,-1.4793,-1.4666,-1.446,-1.4232,-1.3491,-1.241,-1.2068,-1.1584,-1.0913,-1.0344,-0.9991,-0.9732,-0.9569,-0.9562,-0.9562,-0.951,-0.9361,-0.9099,-0.885,-0.8474,-0.8043,-0.7771,-0.7337,-0.6912,-0.6712,-0.6168,-0.5618,-0.5171,-0.4736,-0.4298,-0.3796,-0.3186,-0.2627,-0.2122,-0.1396,-0.067,0.0,0.0056,0.0279,0.0726,0.1783,0.295,0.4278,0.4992,0.5592,0.6357,0.7213,0.8013,0.8593,0.9444,1.0174,1.0728,1.1443,1.2138,1.2812,1.3684,1.4398,1.4994,1.5591,1.6013,1.6275,1.6436,1.6565,-1.8779,0.0,-2.1403,-2.2612,-2.4032,-2.513,-2.5216,-2.6591,-2.7611,-2.6972,-2.7509,-2.7913,-2.7371,-2.7518,-2.7697,-2.7792,-2.72,-2.6621,-2.6486,-2.5888,-2.4962,-2.3751,-2.3579,-2.3207,0.0,-2.4318,-2.5537,-2.5242,-2.5542,-2.537,-2.454,-2.3681,-2.2928,-2.2342,-2.2005,-2.1665,-2.1368,-2.1369,-2.1047,-2.0282,-1.9248,-1.8284,-1.7435,-1.5938,-1.5059,-1.4715,-1.4369,-1.4249,-1.4189,-1.4189,-1.413,-1.3974,-1.3526,-1.2732,-1.1735,-1.0934,-1.0492,-1.0198,-0.9769,-0.9465,-0.9159,-0.891,-0.891,-0.9008,-0.8857,-0.8745,-0.8573,-0.8321,-0.7783,-0.7289,-0.7133,-0.6701,-0.6209,-0.6055,-0.5563,-0.5014,-0.4629,-0.4184,-0.363,-0.3072,-0.246,-0.179,-0.1062,-0.0335,0.0391,0.1118,0.2011,0.2402,0.1846,0.3123,0.4505,0.5437,0.6032,0.6627,0.7385,0.8243,0.8988,0.9503,1.0336,1.1006,1.1628,1.2116,1.2696,1.3362,1.4035,1.4686,1.5311,1.5768,1.6132,1.6392,1.6479,1.6565,-1.8628,0.0,-2.2366,-2.3839,-2.514,-2.6267,-2.6647,-2.6934,-2.6984,-2.6454,-2.6129,-2.5707,-2.4938,-2.4629,-2.4552,-2.4603,-2.4216,-2.4063,-2.4312,-2.362,-2.2916,-2.2506,-2.201,0.0,0.0,0.0,-2.4124,-2.3736,-2.4215,-2.4323,-2.3728,-2.3031,-2.2352,-2.164,-2.1437,-2.1082,-2.0633,-2.0556,-2.0083,-1.9077,-1.7448,-1.6295,-1.5615,-1.4812,-1.4213,-1.3872,-1.3563,-1.3381,-1.3381,-1.3381,-1.3329,-1.313,-1.2443,-1.1739,-1.0956,-1.0055,-0.9362,-0.8896,-0.8942,-0.8837,-0.8633,-0.8309,-0.8315,-0.8427,-0.8256,-0.8096,-0.7937,-0.767,-0.7187,-0.6647,-0.6436,-0.5941,-0.5449,-0.5285,-0.4794,-0.4298,-0.3959,-0.3461,-0.2847,-0.2179,-0.1453,-0.067,0.0168,0.0894,0.1788,0.2903,0.3181,0.3458,0.3956,0.4787,0.5719,0.6534,0.7069,0.7652,0.829,0.9131,0.9814,1.0336,1.1108,1.1719,1.2224,1.2696,1.3218,1.3789,1.4398,1.4994,1.5501,1.5913,1.6219,1.6392,1.6479,1.662,-1.987,-2.197,-2.3855,-2.5281,-2.6424,-2.7117,-2.7134,-2.6683,-2.6065,-2.5058,-2.42,-2.3299,-2.226,-2.1918,-2.1771,-2.1724,-2.1841,-2.2082,-2.2469,-2.2141,-2.1865,-2.1865,-2.1394,-2.1017,0.0,0.0,0.0,-2.2363,-2.3083,-2.3343,-2.2862,-2.2345,-2.1744,-2.1144,-2.0853,-2.0456,-1.9891,-1.9684,-1.8976,-1.7678,-1.6255,-1.5175,-1.4359,-1.3795,-1.3373,-1.3025,-1.2712,-1.2517,-1.2406,-1.2406,-1.2274,-1.1952,-1.1244,-1.058,-0.9925,-0.9,-0.8298,-0.7842,-0.809,-0.8143,-0.7937,-0.767,-0.767,-0.7836,-0.7616,-0.7456,-0.7354,-0.6972,-0.6426,-0.5941,-0.5668,-0.5175,-0.4684,-0.4515,-0.4073,-0.3519,-0.3128,-0.2569,-0.1899,-0.1174,-0.0391,0.0391,0.1229,0.2178,0.3181,0.4291,0.4457,0.4677,0.5344,0.5941,0.6593,0.7289,0.7871,0.8455,0.904,0.9821,1.049,1.1057,1.1769,1.2323,1.2803,1.3228,1.3752,1.4258,1.4812,1.5311,1.5724,1.6132,1.6362,1.6491,1.6607,1.6778,-2.2447,-2.4355,-2.5815,-2.6914,-2.7551,-2.7698,-2.6666,-2.59,-2.4872,-2.2961,-2.1869,-2.0869,0.0,0.0,-1.9377,-1.9244,-1.9998,-2.0627,-2.0937,-2.1447,-2.1763,0.0,0.0,0.0,0.0,0.0,0.0,-2.1324,-2.2063,-2.239,-2.2101,-2.1608,-2.1164,-2.0749,-2.0314,-1.9736,-1.9065,-1.8777,-1.7803,-1.6128,-1.5661,-1.48,-1.37,-1.3017,-1.2597,-1.2243,-1.1911,-1.1608,-1.1324,-1.1301,-1.1041,-1.0593,-0.9945,-0.937,-0.8724,-0.78,-0.7283,-0.7079,-0.7283,-0.7337,-0.7182,-0.6928,-0.7031,-0.7182,-0.6928,-0.6879,-0.6717,-0.6109,-0.5614,-0.5171,-0.4897,-0.4405,-0.391,-0.3741,-0.3239,-0.2627,-0.2069,-0.1454,-0.0782,-0.0056,0.0726,0.1453,0.2183,0.3403,0.4508,0.5222,0.5778,0.6055,0.6055,0.6588,0.723,0.7871,0.8508,0.9033,0.9614,1.03,1.1023,1.1669,1.2274,1.2803,1.342,1.3821,1.4244,1.4708,1.5244,1.5691,1.6032,1.6349,1.6577,1.6718,1.6918,1.7073,-2.2606,-2.4285,-2.5608,-2.6724,-2.6785,-2.6311,-2.531,-2.379,-2.2114,-2.061,-1.9246,-1.7999,0.0,0.0,0.0,-1.7252,-1.7932,0.0,-1.9562,-1.9951,0.0,-2.0559,0.0,-2.0123,-2.0377,-2.0319,0.0,-2.064,-2.1136,-2.1485,-2.1594,-2.1105,-2.052,-2.0012,-1.9634,-1.9066,-1.8317,-1.7312,-1.6232,-1.5098,-1.4487,-1.366,-1.2674,-1.2236,-1.1864,-1.1538,-1.1113,-1.0788,-1.0643,-1.0418,-1.0147,-0.9741,-0.9045,-0.854,-0.812,-0.7051,-0.6426,-0.61,-0.5828,-0.61,-0.6598,-0.6327,-0.6436,-0.6598,-0.6327,-0.6223,-0.6114,-0.5508,-0.5014,-0.4625,-0.4184,-0.3627,-0.3072,-0.2676,-0.2122,-0.1564,-0.095,-0.0279,0.0447,0.1062,0.2176,0.3181,0.3793,0.4508,0.5281,0.5996,0.6593,0.6966,0.6966,0.7337,0.7925,0.8633,0.9152,0.9614,1.0138,1.0964,1.1669,1.2215,1.2842,1.3372,1.3821,1.4186,1.4558,1.4971,1.5468,1.5913,1.6306,1.6607,1.6833,1.6918,1.7199,1.7365,-2.3156,-2.4772,-2.5918,-2.6547,-2.6095,-2.5183,-2.3974,-2.1956,-1.9889,-1.8544,-1.7014,0.0,-1.5049,-1.5035,0.0,0.0,0.0,0.0,-1.8142,-1.8888,-1.9518,0.0,-1.9975,0.0,-2.018,-1.9913,-1.9841,-2.0154,-2.047,-2.0775,-2.0978,-2.0309,-1.9726,-1.9262,-1.8721,-1.7999,-1.7079,-1.6007,-1.5087,-1.4181,-1.3648,-1.2908,-1.1996,-1.1622,-1.1303,-1.0975,-1.0486,-1.01,-0.9781,-0.9426,-0.8997,-0.8471,-0.7938,-0.7439,-0.697,-0.6196,-0.5609,-0.5175,-0.468,-0.4842,-0.5281,-0.5399,-0.5504,-0.5609,-0.5559,-0.5454,-0.5344,-0.4853,-0.4356,-0.391,-0.3347,-0.2734,-0.2066,-0.1562,-0.0949,-0.0391,0.0223,0.0893,0.1619,0.24,0.3405,0.4239,0.4791,0.5391,0.6046,0.675,0.745,0.7978,0.8343,0.8455,0.8725,0.9361,0.9925,1.0438,1.0947,1.1701,1.2344,1.289,1.3409,1.3884,1.4373,1.4686,1.5051,1.5379,1.5792,1.6144,1.6436,1.6791,1.7002,1.7183,1.7516,1.772,-2.3632,-2.4915,-2.5905,-2.5973,-2.5125,-2.3863,-2.2397,-2.01,-1.7925,-1.6504,0.0,-1.3855,-1.337,-1.3629,-1.3891,-1.3639,0.0,-1.6446,-1.6819,-1.8068,-1.9099,-1.9643,-1.9965,-2.0149,-2.0027,-1.9595,-1.9383,-1.9639,-1.9915,-2.0096,-2.0292,-1.9555,-1.8879,-1.8545,-1.757,-1.666,-1.5698,-1.4919,-1.4143,-1.3447,-1.2946,-1.2343,-1.1493,-1.1206,-1.0807,-1.0485,-1.0001,-0.9468,-0.8832,-0.8438,-0.7836,-0.7128,-0.6869,-0.6327,-0.5609,-0.5281,-0.4787,-0.4239,-0.3796,-0.363,-0.363,-0.4301,-0.457,-0.4618,-0.4677,-0.4629,-0.4467,-0.4135,-0.3635,-0.3074,-0.2456,-0.1676,-0.095,-0.0335,0.0223,0.0782,0.1397,0.2009,0.2788,0.3793,0.4463,0.5014,0.5441,0.6105,0.6864,0.7599,0.8349,0.9086,0.9909,0.9666,0.9614,1.0167,1.0787,1.1401,1.19,1.2472,1.3054,1.3658,1.3978,1.4444,1.4949,1.5266,1.5546,1.5836,1.6144,1.6362,1.6565,1.6905,1.7212,1.7474,1.7882,1.8135,-2.261,-2.2991,-2.305,-2.3385,-2.2467,-2.1079,-1.9452,-1.7475,0.0,0.0,-1.3304,-1.2452,-1.2136,-1.2427,-1.2793,-1.299,0.0,0.0,0.0,0.0,-1.7672,0.0,0.0,0.0,-1.9092,-1.8854,0.0,-1.9136,-1.8698,-1.8698,-1.9506,-1.9215,-1.8623,-1.7674,-1.6221,-1.5331,-1.4988,-1.426,-1.3566,-1.2844,-1.2514,-1.1928,-1.1104,-1.0796,-1.0434,-0.9913,-0.9439,-0.886,-0.8251,-0.7755,-0.7118,-0.6372,-0.61,-0.5609,-0.5007,-0.4405,-0.3852,-0.3297,-0.3016,-0.2569,-0.2291,-0.3299,-0.3799,-0.3962,-0.3849,-0.3793,-0.3683,-0.3239,-0.2627,-0.1956,-0.134,-0.0558,0.0279,0.0838,0.1452,0.2009,0.2514,0.3289,0.4064,0.4736,0.5285,0.5828,0.6529,0.7074,0.7824,0.8758,0.9488,1.021,1.1015,1.0661,1.0618,1.1266,1.1814,1.2316,1.2774,1.3399,1.3884,1.4233,1.4766,1.5175,1.5367,1.5824,1.6057,1.6156,1.6577,1.6833,1.6905,1.7352,1.7679,1.7922,1.8254,1.8478,-2.0928,-2.1469,-2.1709,-2.141,-2.0609,-1.9366,-1.7668,0.0,0.0,0.0,-1.2169,-1.1523,-1.1373,0.0,0.0,0.0,0.0,0.0,0.0,0.0,0.0,0.0,0.0,0.0,0.0,-1.7768,-1.7641,-1.7811,-1.735,-1.7513,-1.8567,-1.7914,-1.7171,-1.6269,-1.5126,-1.4403,-1.4186,-1.3491,-1.2876,-1.2289,-1.2081,-1.1423,-1.0593,-1.0327,-0.9863,-0.9274,-0.8811,-0.8188,-0.7418,-0.6894,-0.6286,-0.5614,-0.5226,-0.4732,-0.4181,-0.3685,-0.313,-0.2516,-0.2235,-0.179,-0.14,-0.1847,-0.2348,-0.2792,-0.2961,-0.285,-0.2625,-0.2291,-0.1564,-0.0726,-0.0112,0.067,0.1451,0.2011,0.2625,0.3292,0.3846,0.4457,0.5117,0.566,0.6258,0.6902,0.754,0.8178,0.8915,0.9791,1.0509,1.1266,1.211,1.2248,1.2297,1.2414,1.2899,1.3426,1.3862,1.4294,1.4686,1.5006,1.5457,1.5756,1.5888,1.6349,1.662,1.6735,1.6989,1.724,1.7352,1.772,1.7948,1.8161,1.8581,1.8827,-1.8962,-1.9684,-2.0107,-1.9608,-1.8834,-1.7823,-1.6227,-1.4415,0.0,0.0,-1.1318,-1.0791,-1.0802,0.0,-1.1457,0.0,0.0,0.0,0.0,0.0,0.0,0.0,0.0,0.0,-1.6724,-1.6612,0.0,-1.6453,-1.6049,-1.6378,-1.7432,-1.6541,-1.5756,-1.5183,-1.4321,-1.3765,-1.3606,-1.2852,-1.2264,-1.1814,-1.154,-1.0924,-1.0103,-0.9787,-0.9291,-0.8505,-0.8064,-0.7397,-0.6639,-0.6032,-0.5388,-0.4842,-0.4363,-0.3849,-0.3294,-0.2905,-0.2348,-0.1792,-0.1511,-0.112,-0.0673,-0.0561,-0.1008,-0.1567,-0.1902,-0.1734,-0.1342,-0.1174,-0.0391,0.0558,0.1117,0.1842,0.2621,0.3183,0.3796,0.4408,0.5011,0.5504,0.605,0.6578,0.7272,0.7966,0.8541,0.9221,0.999,1.0762,1.1466,1.2209,1.315,1.3732,1.4014,1.3779,1.4061,1.4433,1.4846,1.5175,1.5468,1.5724,1.6044,1.625,1.6441,1.685,1.7157,1.7323,1.7516,1.772,1.7868,1.8068,1.8305,1.8461,1.8889,1.9093,-1.6808,-1.6992,-1.6946,-1.7605,-1.6885,-1.5704,-1.4664,0.0,0.0,-1.1356,-1.065,-1.0166,-1.038,-1.0487,-1.0607,0.0,0.0,-1.1358,0.0,0.0,0.0,0.0,0.0,0.0,-1.5496,-1.5667,-1.5733,-1.556,-1.5325,-1.5409,-1.5899,-1.5462,-1.5213,-1.5123,-1.4097,-1.354,-1.3533,-1.2503,-1.1916,-1.1736,-1.1052,-1.0479,-0.9846,-0.9193,-0.8508,-0.7803,-0.725,-0.6595,-0.597,-0.5247,-0.4618,-0.4019,-0.3449,-0.2963,-0.2519,-0.1958,-0.1512,-0.1122,-0.0897,-0.0449,-0.0056,-0.0056,-0.028,-0.0504,-0.0447,-0.0223,0.0056,0.0391,0.1116,0.1896,0.2287,0.2901,0.3624,0.4353,0.4798,0.5179,0.5782,0.6372,0.6966,0.745,0.8296,0.9026,0.9547,1.021,1.0965,1.1765,1.2463,1.3198,1.4061,1.4628,1.5153,1.5513,1.5311,1.5266,1.5501,1.5869,1.61,1.6144,1.6577,1.6863,1.6951,1.738,1.7679,1.776,1.8187,1.8422,1.8422,1.8707,1.8898,1.9026,1.9191,1.9302,-1.4609,-1.502,-1.5218,-1.5308,-1.4911,-1.4098,-1.2881,0.0,-1.0989,-1.0356,-0.9958,-0.9725,-0.9834,-0.9922,-1.0037,0.0,0.0,0.0,0.0,0.0,0.0,0.0,0.0,0.0,0.0,0.0,-1.4703,-1.465,-1.4503,-1.4496,-1.4482,-1.4566,-1.4573,-1.4243,-1.35,-1.3035,-1.2797,-1.1993,-1.1409,-1.0962,-1.0564,-0.9922,-0.9119,-0.8518,-0.7757,-0.6877,-0.6352,-0.565,-0.4921,-0.4285,-0.3737,-0.3217,-0.2548,-0.2181,-0.1902,-0.1344,-0.0953,-0.0617,-0.0393,0.0056,0.0449,0.0729,0.0952,0.1063,0.0615,0.0838,0.1341,0.1563,0.2286,0.3012,0.3236,0.3846,0.4567,0.5226,0.5508,0.5837,0.649,0.7128,0.7759,0.8547,0.9332,1.0056,1.0694,1.1301,1.1891,1.2511,1.315,1.3873,1.4674,1.5142,1.5603,1.6088,1.5901,1.5812,1.6076,1.6262,1.6448,1.662,1.6973,1.7253,1.7421,1.7828,1.8108,1.8266,1.8592,1.8784,1.886,1.9064,1.9176,1.9228,1.9435,1.9545,-1.248,-1.3105,-1.3462,-1.3275,-1.3119,-1.2675,0.0,0.0,-1.0142,-0.95,-0.9264,-0.9208,-0.9328,-0.9426,-0.9475,0.0,0.0,-0.9761,0.0,0.0,0.0,0.0,0.0,-1.3136,-1.3337,-1.3468,-1.3579,-1.3795,-1.3665,-1.3568,-1.3385,-1.3562,-1.36,-1.3439,-1.2888,-1.2441,-1.2049,-1.1347,-1.0738,-1.0218,-0.9841,-0.919,-0.824,-0.7682,-0.6921,-0.5982,-0.5416,-0.4763,-0.4019,-0.3372,-0.2913,-0.2432,-0.1763,-0.1455,-0.1287,-0.0784,-0.0505,-0.0224,0.0112,0.0449,0.0898,0.1346,0.1961,0.2406,0.1955,0.2178,0.2571,0.2679,0.3345,0.407,0.4294,0.4787,0.5391,0.5882,0.6213,0.6539,0.7187,0.7824,0.8554,0.9384,1.021,1.099,1.1569,1.2166,1.2696,1.317,1.3789,1.4455,1.5142,1.5501,1.5901,1.6448,1.6318,1.6262,1.6436,1.6565,1.6735,1.696,1.735,1.7666,1.7922,1.8319,1.8592,1.8822,1.9011,1.9199,1.9325,1.9398,1.945,1.945,1.9654,1.9797,-1.0293,-1.1026,-1.1519,-1.1539,-1.1593,-1.1397,0.0,-0.9814,-0.9333,-0.8972,-0.8646,-0.8537,-0.8935,-0.9016,-0.9016,-0.9016,-0.8878,0.0,0.0,0.0,0.0,0.0,0.0,-1.1593,-1.2037,-1.2241,-1.2557,-1.3099,-1.2643,-1.2523,-1.2687,-1.238,-1.233,-1.2737,-1.2208,-1.1781,-1.1289,-1.0416,-0.9846,-0.962,-0.8784,-0.8067,-0.7278,-0.6664,-0.593,-0.5083,-0.4543,-0.402,-0.3471,-0.2652,-0.2094,-0.1775,-0.115,-0.0842,-0.0673,-0.0168,0.0,0.0056,0.0505,0.0898,0.1178,0.1792,0.2517,0.3186,0.3799,0.3855,0.3796,0.3965,0.4519,0.5183,0.5513,0.5887,0.6209,0.6381,0.6864,0.7396,0.7818,0.8567,0.9361,0.9909,1.0897,1.1769,1.2026,1.2696,1.3314,1.3716,1.4244,1.4846,1.5501,1.5812,1.6175,1.6633,1.6675,1.6633,1.6522,1.6748,1.696,1.7199,1.7625,1.8069,1.8475,1.8812,1.913,1.9376,1.9581,1.9726,1.9797,1.9797,1.9797,1.9797,1.9797,1.999,-0.8567,-0.913,-0.949,-0.9518,-0.9459,-0.9167,-0.8446,-0.8119,-0.7864,-0.7594,-0.7651,-0.7746,-0.787,-0.8077,-0.8242,-0.8242,-0.8303,0.0,0.0,0.0,0.0,0.0,-1.0271,-1.0936,0.0,-1.1551,-1.1739,-1.1904,-1.1839,-1.1665,-1.15,-1.1277,-1.1379,-1.1798,-1.1232,-1.0578,-0.9792,-0.9341,-0.8775,-0.8169,-0.766,-0.7045,-0.6236,-0.5616,-0.485,-0.4114,-0.3601,-0.3055,-0.2343,-0.1815,-0.14,-0.1071,-0.0513,-0.028,-0.0168,0.028,0.0561,0.0673,0.1176,0.1621,0.2179,0.2847,0.3569,0.4288,0.4732,0.4732,0.4677,0.523,0.5614,0.5996,0.649,0.6804,0.7015,0.7343,0.7824,0.8302,0.883,0.9451,1.0123,1.0998,1.171,1.2353,1.289,1.3505,1.3978,1.4222,1.4869,1.5412,1.5812,1.6306,1.6693,1.6876,1.7086,1.7073,1.6863,1.6989,1.724,1.7516,1.7909,1.8307,1.8707,1.9026,1.9339,1.9581,1.9726,1.9797,1.9919,1.9848,1.9848,1.9919,2.0061,2.0323,0.0,-0.7461,-0.7817,-0.7605,-0.7651,0.0,0.0,-0.6914,-0.6899,-0.6674,-0.6781,-0.6992,-0.7112,-0.7426,-0.7674,-0.7709,-0.7849,0.0,0.0,0.0,0.0,-0.86,0.0,0.0,-1.0445,-1.0399,-1.0502,-1.0681,-1.045,-1.0267,-1.0171,-0.9887,-0.9746,-0.9953,-0.9861,-0.9365,-0.8503,-0.815,-0.7672,-0.6995,-0.6517,-0.5889,-0.5119,-0.4531,-0.3887,-0.3096,-0.2774,-0.2183,0.0,-0.1123,-0.0727,-0.047,0.0057,0.028,0.0393,0.084,0.112,0.1344,0.1902,0.24,0.2956,0.3788,0.4725,0.5601,0.5928,0.5769,0.5555,0.6213,0.6539,0.675,0.7187,0.7509,0.7771,0.809,0.8567,0.904,0.951,1.0123,1.0838,1.1651,1.2344,1.2977,1.3552,1.4071,1.4547,1.4777,1.5355,1.5856,1.6163,1.6637,1.7031,1.724,1.7434,1.7557,1.7557,1.7475,1.7557,1.7855,1.8214,1.8606,1.8988,1.9265,1.9523,1.9797,1.9848,1.9955,2.0146,2.0061,2.0061,2.0181,2.0354,2.061,0.0,0.0,0.0,0.0,0.0,0.0,0.0,-0.6134,0.0,-0.6102,-0.6093,-0.6221,-0.6513,-0.6918,-0.7244,-0.7276,-0.7543,0.0,0.0,0.0,0.0,0.0,-0.8235,0.0,-0.9403,-0.8971,-0.8782,-0.9242,-0.8697,-0.8365,-0.8633,-0.8226,-0.7815,-0.743,-0.8128,-0.8117,-0.7407,-0.7007,-0.6464,-0.5939,-0.533,-0.4683,-0.3837,-0.3485,-0.2886,-0.208,-0.1882,-0.152,-0.0961,-0.0499,-0.0121,0.0117,0.0568,0.0841,0.1009,0.1511,0.1789,0.2014,0.2738,0.3181,0.3619,0.4728,0.5932,0.7015,0.7283,0.6907,0.6426,0.7025,0.7295,0.745,0.7777,0.815,0.8527,0.8679,0.9152,0.9621,1.0012,1.0736,1.1451,1.2021,1.2861,1.36,1.4025,1.4582,1.504,1.5311,1.5768,1.6175,1.6466,1.6879,1.7242,1.772,1.7828,1.8068,1.85,1.8108,1.7962,1.8228,1.8606,1.8974,1.9325,1.9538,1.9756,2.0041,2.0041,2.0181,2.0423,2.0423,2.0423,2.0423,2.0626,2.0876,-0.3051,0.0,-0.4829,-0.4693,-0.4907,-0.5115,0.0,0.0,0.0,0.0,0.0,0.0,-0.5394,-0.5896,-0.6287,-0.6191,-0.6557,-0.6761,-0.6452,0.0,0.0,-0.7138,-0.7203,-0.7394,-0.7739,-0.7667,-0.7516,-0.7516,-0.7328,-0.7227,-0.7232,-0.6849,-0.6506,-0.6308,-0.6038,-0.5964,-0.6009,-0.5749,-0.5228,-0.4517,-0.4058,-0.3393,-0.2724,-0.2397,-0.1893,-0.1344,-0.1143,-0.0784,-0.0249,0.0,0.0299,0.0737,0.1179,0.1455,0.1679,0.2235,0.2569,0.2905,0.3519,0.4236,0.5054,0.6308,0.7176,0.7765,0.8143,0.7925,0.7605,0.809,0.8355,0.8508,0.8883,0.9249,0.951,0.9777,1.0241,1.0812,1.1209,1.171,1.2344,1.3074,1.3647,1.4212,1.4892,1.522,1.5546,1.5812,1.6337,1.6735,1.6879,1.7475,1.7975,1.8147,1.8461,1.8745,1.8936,1.8592,1.85,1.8874,1.9049,1.9281,1.966,1.9848,2.0041,2.032,2.0457,2.0509,2.0475,2.0577,2.0626,2.0626,2.0844,2.1039,-0.1528,-0.2542,-0.3599,-0.3607,-0.3868,-0.4132,0.0,0.0,0.0,0.0,0.0,0.0,0.0,0.0,0.0,-0.5457,-0.581,0.0,0.0,0.0,-0.5479,-0.5982,-0.604,-0.6106,-0.6424,-0.636,-0.6251,-0.617,-0.6089,-0.5967,-0.5808,-0.5665,-0.5347,-0.4944,-0.4648,-0.459,-0.4841,-0.4631,-0.4101,-0.3205,-0.2905,-0.243,-0.1716,-0.1489,-0.1144,-0.074,-0.0531,-0.0193,0.0185,0.0486,0.088,0.1288,0.179,0.2181,0.246,0.3016,0.3461,0.3852,0.4405,0.5332,0.6367,0.723,0.7877,0.8415,0.8837,0.8928,0.8869,0.904,0.9145,0.9347,0.9614,0.9873,1.0131,1.0395,1.0964,1.1519,1.1999,1.254,1.317,1.3873,1.4398,1.4858,1.5412,1.5736,1.5957,1.6163,1.665,1.7031,1.7297,1.7882,1.8333,1.8606,1.8912,1.9176,1.9362,1.9199,1.9147,1.9347,1.9515,1.9717,1.9965,2.0135,2.0339,2.0577,2.0777,2.0876,2.0843,2.0925,2.0974,2.0974,2.1166,2.1355,-0.043,-0.1367,-0.2391,-0.2537,-0.2971,-0.3341,0.0,0.0,0.0,0.0,0.0,0.0,0.0,0.0,0.0,0.0,0.0,0.0,-0.4897,-0.451,-0.4399,-0.4909,-0.4912,-0.4963,-0.5181,-0.5149,-0.5065,-0.5004,-0.4771,-0.4616,-0.4465,-0.4387,-0.4153,-0.3606,-0.3517,-0.3467,-0.3601,-0.3529,-0.3008,-0.2099,-0.1949,-0.158,-0.0942,-0.074,-0.0537,-0.0201,0.0,0.0253,0.0551,0.1012,0.1444,0.1846,0.2408,0.291,0.3352,0.3796,0.4294,0.4791,0.5445,0.6416,0.745,0.7777,0.8315,0.8962,0.942,0.9821,1.0123,0.9976,0.9976,1.0072,1.0226,1.0438,1.071,1.0956,1.146,1.2058,1.2667,1.3266,1.3894,1.4514,1.5028,1.5457,1.5824,1.61,1.6318,1.6522,1.6863,1.724,1.7679,1.8108,1.8553,1.8979,1.9228,1.9487,1.9726,1.9762,1.9762,1.9833,2.003,2.0204,2.0311,2.0478,2.0662,2.0827,2.1038,2.1135,2.1215,2.1262,2.1309,2.1309,2.1511,2.165,0.0,-0.021,-0.0592,-0.1354,-0.1886,-0.2275,0.0,0.0,0.0,0.0,0.0,0.0,0.0,0.0,0.0,0.0,0.0,-0.3631,0.0,0.0,-0.3656,-0.4097,-0.4142,-0.4087,-0.3984,-0.394,-0.3829,-0.3439,-0.3444,-0.3366,-0.3366,-0.3057,-0.2823,-0.2666,-0.2231,-0.1805,-0.1612,-0.2123,-0.2019,-0.1401,-0.1095,-0.081,-0.0404,-0.0202,0.0,0.013,0.0453,0.0751,0.1009,0.1474,0.202,0.2577,0.3186,0.3683,0.4122,0.468,0.5175,0.5773,0.681,0.745,0.7877,0.8427,0.8956,0.9413,0.994,1.0454,1.1015,1.1318,1.1217,1.1116,1.136,1.1569,1.1719,1.2026,1.2344,1.2822,1.3467,1.3941,1.4512,1.5232,1.5457,1.5724,1.6219,1.6392,1.6522,1.6791,1.7157,1.7557,1.7908,1.8461,1.8898,1.9228,1.9472,1.9726,1.9919,1.9955,2.0061,2.0357,2.0342,2.0512,2.0795,2.0941,2.1006,2.1038,2.1151,2.1183,2.1215,2.1262,2.1309,2.1309,2.1511,2.162,0.095,0.0906,0.0729,0.0299,-0.0443,-0.1128,-0.12,0.0,0.0,0.0,0.0,0.0,0.0,0.0,-0.2715,-0.272,0.0,-0.2522,-0.2808,-0.2508,-0.2417,-0.2657,-0.2705,-0.2686,-0.2608,-0.2718,-0.2677,-0.2483,-0.2484,-0.241,-0.2261,-0.2112,-0.1887,-0.166,-0.1343,-0.1026,-0.0714,-0.0998,-0.0985,-0.0686,-0.061,-0.0337,0.0,0.0202,0.0398,0.058,0.1078,0.135,0.1645,0.2192,0.2721,0.3241,0.3849,0.4401,0.4893,0.5778,0.6322,0.6696,0.745,0.7984,0.8362,0.8798,0.9211,0.9718,1.03,1.0863,1.1427,1.1877,1.1927,1.1877,1.1977,1.2206,1.2442,1.2745,1.3122,1.3637,1.4269,1.4686,1.5153,1.5736,1.6001,1.6163,1.6491,1.6663,1.6876,1.7141,1.7447,1.7828,1.8266,1.8707,1.9101,1.9413,1.9581,1.9762,1.9884,1.9884,2.0096,2.0577,2.0646,2.0778,2.1006,2.107,2.1119,2.1151,2.1183,2.1215,2.1262,2.1277,2.1309,2.1371,2.1573,2.1664,0.1758,0.1746,0.1715,0.1737,0.0,0.0,-0.0175,0.0,0.0,0.0,0.0,0.0,0.0,-0.1755,0.0,-0.1992,-0.1725,-0.158,-0.1743,-0.1497,-0.1378,-0.1476,-0.1508,-0.1531,-0.1541,-0.164,-0.1662,-0.16,-0.1601,-0.1529,-0.1386,-0.1312,-0.1166,-0.0802,-0.0725,-0.0501,-0.014,-0.0208,-0.0204,-0.02,-0.02,0.0,0.0397,0.0594,0.0779,0.107,0.1663,0.2035,0.232,0.288,0.3405,0.3904,0.446,0.5117,0.5823,0.6761,0.7246,0.7557,0.7984,0.8362,0.8738,0.9106,0.9517,1.0079,1.071,1.1226,1.1728,1.2274,1.2471,1.251,1.251,1.2735,1.3064,1.3351,1.3789,1.4316,1.4903,1.5277,1.5691,1.6188,1.6436,1.6607,1.6791,1.7002,1.7253,1.7515,1.7814,1.8161,1.863,1.8988,1.9302,1.9574,1.9669,1.9726,1.9797,1.9833,2.008,2.0543,2.0712,2.086,2.0957,2.1006,2.1038,2.1087,2.1103,2.1167,2.1214,2.1246,2.1309,2.1371,2.1573,2.1708,0.2037,0.2194,0.2349,0.2401,0.0,0.0,0.0758,0.0403,0.0,0.0,0.0,0.0,0.0,-0.093,-0.0934,-0.1091,-0.0923,-0.088,-0.113,-0.1005,-0.0939,-0.1142,-0.1145,-0.109,-0.0978,-0.0982,-0.0923,-0.0727,-0.0729,-0.0656,-0.0656,-0.051,-0.0364,-0.0364,-0.0143,0.007,0.028,0.02,0.0195,0.0194,0.0194,0.0319,0.0684,0.0994,0.1283,0.1597,0.2186,0.2665,0.3086,0.3522,0.4076,0.4688,0.5062,0.5937,0.7025,0.7456,0.7836,0.8168,0.8593,0.8857,0.9061,0.9562,1.0028,1.0498,1.1217,1.1719,1.2126,1.2578,1.29,1.3122,1.3122,1.3324,1.3658,1.4025,1.4326,1.4708,1.5334,1.5546,1.5768,1.6337,1.6595,1.6808,1.7115,1.7434,1.772,1.7922,1.8305,1.8644,1.8941,1.9205,1.9465,1.9574,1.9669,1.9726,1.9797,1.9975,2.0115,2.0135,2.0342,2.0478,2.0527,2.0644,2.0726,2.0726,2.086,2.0926,2.0926,2.1135,2.1215,2.1215,2.1497,2.162,0.262,0.2782,0.2889,0.2917,0.0,0.0,0.0,0.0,0.0,0.0,0.0,0.0,0.0,0.0,-0.0602,-0.0652,-0.0549,-0.0438,-0.0587,-0.04,-0.0337,-0.0404,-0.0404,-0.0403,-0.0333,-0.0333,-0.0332,-0.0264,-0.0198,-0.0198,-0.0198,-0.0066,0.0,0.0,0.0196,0.0325,0.0519,0.0635,0.0809,0.1097,0.0746,0.0874,0.1294,0.1603,0.2061,0.2644,0.3053,0.3514,0.4018,0.4405,0.4901,0.5449,0.6258,0.6907,0.7563,0.8043,0.8368,0.8646,0.9054,0.9309,0.9562,1.0035,1.0549,1.1065,1.1569,1.2026,1.2431,1.2725,1.3045,1.3314,1.342,1.3752,1.4233,1.464,1.5006,1.5334,1.5824,1.6001,1.6219,1.6577,1.682,1.7102,1.7352,1.7747,1.8147,1.8344,1.8669,1.8988,1.9242,1.9428,1.956,1.9669,1.969,1.9726,1.9726,1.9797,1.9854,1.9854,2.015,2.0357,2.0357,2.0441,2.0509,2.0577,2.0761,2.0877,2.0893,2.1103,2.123,2.134,2.1573,2.1724,0.3078,0.3273,0.3451,0.0,0.0,0.0,0.0,0.0,0.0,0.0,0.0814,0.0,0.0,0.0,0.0,-0.0117,0.0,0.0062,-0.0064,0.0065,0.0132,0.0133,0.0132,0.0065,0.0128,0.0064,0.0126,0.0185,0.0185,0.0123,0.0247,0.0309,0.037,0.037,0.0555,0.074,0.0925,0.11,0.1443,0.1882,0.1667,0.1735,0.1973,0.2272,0.2777,0.347,0.3923,0.4382,0.4956,0.5285,0.5773,0.6367,0.7235,0.7777,0.8043,0.8573,0.8896,0.9113,0.9524,0.9829,1.0138,1.06,1.1116,1.1628,1.2026,1.2421,1.2764,1.3007,1.3296,1.361,1.3847,1.4186,1.4605,1.5108,1.5468,1.578,1.6188,1.6362,1.6491,1.6748,1.7044,1.7352,1.772,1.8147,1.8553,1.8784,1.9064,1.9302,1.9465,1.956,1.9632,1.969,1.969,1.969,1.969,1.969,1.969,1.969,1.9975,2.0131,2.0115,2.0216,2.0304,2.0392,2.0628,2.0827,2.0893,2.1151,2.1325,2.1464,2.1678,2.1811,0.3321,0.365,0.4049,0.0,0.0,0.0,0.0,0.0,0.0,0.0,0.0,0.1066,0.0954,0.0898,0.0,0.0703,0.0707,0.0663,0.0512,0.0441,0.0437,0.0515,0.0314,0.0247,0.037,0.0309,0.037,0.0679,0.0494,0.0494,0.0679,0.0679,0.0679,0.074,0.0985,0.123,0.1416,0.167,0.2058,0.2528,0.2899,0.2961,0.2736,0.3019,0.3463,0.4021,0.4625,0.5226,0.5828,0.61,0.6642,0.7396,0.8002,0.8368,0.8679,0.9054,0.9361,0.9666,1.0095,1.0411,1.082,1.1318,1.1778,1.2175,1.2578,1.2949,1.3218,1.3362,1.3716,1.4057,1.4408,1.4605,1.4834,1.5379,1.5647,1.5925,1.6318,1.6392,1.6522,1.6918,1.724,1.7598,1.8187,1.8592,1.8898,1.9265,1.9465,1.9611,1.9611,1.9669,1.969,1.969,1.969,1.969,1.969,1.969,1.969,1.969,1.9762,1.9762,1.969,1.9884,2.0025,2.01,2.0509,2.0777,2.0893,2.123,2.1464,2.162,2.1811,2.1899,0.3677,0.4005,0.0,0.0,0.0,0.0,0.0,0.0,0.0,0.0,0.2,0.1568,0.1568,0.1345,0.1182,0.1137,0.1045,0.0949,0.0907,0.0796,0.0744,0.075,0.0745,0.0735,0.0719,0.0777,0.0888,0.0984,0.104,0.104,0.1098,0.127,0.1384,0.1499,0.1613,0.1902,0.2192,0.2453,0.2834,0.3288,0.3699,0.3735,0.3461,0.3907,0.4405,0.4952,0.5336,0.5941,0.6652,0.73,0.7783,0.815,0.8685,0.9001,0.9204,0.9732,0.9984,1.0241,1.0812,1.1116,1.1368,1.1877,1.2304,1.2686,1.3084,1.3382,1.3668,1.3999,1.4244,1.4523,1.4949,1.5175,1.5412,1.5768,1.6044,1.6275,1.6534,1.6633,1.6761,1.7183,1.7488,1.7868,1.8422,1.886,1.9228,1.9465,1.9596,1.9654,1.9654,1.969,1.969,1.969,1.969,1.969,1.969,1.969,1.969,1.969,1.9762,1.9797,1.9762,2.0061,2.0235,2.0304,2.0662,2.0925,2.1103,2.1433,2.1678,2.1827,2.202,2.2123,0.4263,0.0,0.0,0.0,0.0,0.0,0.0,0.0,0.0,0.0,0.0,0.2404,0.2348,0.2127,0.1961,0.1847,0.1765,0.1681,0.1587,0.148,0.1434,0.1452,0.1318,0.1298,0.1388,0.1386,0.1488,0.1738,0.1681,0.1737,0.1847,0.1903,0.2014,0.2179,0.2348,0.2573,0.2907,0.3186,0.3574,0.4018,0.4457,0.4677,0.4677,0.4901,0.5281,0.5773,0.6317,0.6918,0.7574,0.8215,0.8639,0.8837,0.9368,0.9673,0.988,1.0454,1.071,1.0913,1.1418,1.1728,1.1977,1.2412,1.2832,1.3208,1.36,1.3941,1.4316,1.4605,1.4834,1.5062,1.5412,1.5668,1.5932,1.6064,1.6293,1.6522,1.6748,1.6846,1.7044,1.7461,1.7774,1.8121,1.8707,1.9064,1.9376,1.9596,1.9654,1.969,1.969,1.969,1.969,1.969,1.969,1.969,1.969,1.969,1.969,1.969,1.9797,1.9884,1.9884,2.0166,2.0339,2.0388,2.0712,2.1007,2.123,2.1542,2.1781,2.194,2.2123,2.2242,0.0,0.0,0.0,0.0,0.0,0.0,0.0,0.0,0.4128,0.3793,0.0,0.3411,0.3241,0.3186,0.3074,0.285,0.2792,0.2655,0.2448,0.234,0.232,0.2392,0.2109,0.2014,0.2238,0.2071,0.2181,0.2736,0.2517,0.2462,0.2792,0.2687,0.2687,0.2792,0.3072,0.3352,0.3683,0.3962,0.4356,0.4798,0.5226,0.5664,0.6109,0.5941,0.6159,0.6598,0.7402,0.8049,0.848,0.8903,0.9211,0.9517,1.0095,1.0352,1.0557,1.1167,1.1477,1.1628,1.2026,1.2323,1.2618,1.2977,1.3362,1.3752,1.4176,1.4593,1.5006,1.5153,1.5412,1.568,1.5824,1.612,1.6355,1.6398,1.6466,1.665,1.6989,1.7157,1.7393,1.7787,1.8095,1.8425,1.9026,1.9228,1.9413,1.9654,1.969,1.969,1.969,1.969,1.969,1.969,1.969,1.969,1.969,1.969,1.969,1.969,1.9884,1.997,1.997,2.02,2.0339,2.0423,2.0712,2.1039,2.1294,2.1542,2.1781,2.1998,2.2123,2.2225,0.0,0.5315,0.0,0.0,0.0,0.0,0.0,0.0,0.5496,0.4787,0.4405,0.4187,0.3855,0.3741,0.3574,0.3413,0.3302,0.3254,0.3163,0.3035,0.2916,0.2936,0.2865,0.2852,0.2907,0.3021,0.3132,0.3244,0.3302,0.3304,0.3413,0.336,0.3413,0.3572,0.3741,0.3965,0.4294,0.4684,0.512,0.5555,0.5996,0.6485,0.702,0.6761,0.6972,0.7605,0.8043,0.8427,0.8752,0.9256,0.9614,0.9917,1.0659,1.1065,1.1318,1.1778,1.2076,1.2332,1.2627,1.2852,1.3122,1.3515,1.3905,1.4326,1.4789,1.5096,1.5412,1.5724,1.5856,1.5988,1.6262,1.6466,1.6723,1.7086,1.7128,1.7144,1.7475,1.7598,1.7828,1.8344,1.8553,1.8822,1.9265,1.9465,1.956,1.969,1.969,1.969,1.969,1.969,1.969,1.969,1.969,1.969,1.969,1.969,1.969,1.969,1.9797,1.9848,1.9848,2.022,2.046,2.046,2.0745,2.1023,2.1215,2.1371,2.1601,2.184,2.1986,2.2106,0.0,0.0,0.0,0.0,0.0,0.0,0.0,0.0,0.6516,0.6023,0.5449,0.4959,0.4794,0.4625,0.4457,0.4356,0.4245,0.4187,0.4132,0.3962,0.3852,0.3852,0.3738,0.3683,0.3741,0.3796,0.3852,0.4024,0.4024,0.4079,0.4242,0.4135,0.4245,0.4405,0.4519,0.4739,0.512,0.5395,0.5782,0.6322,0.6647,0.7187,0.783,0.7628,0.7783,0.8249,0.8474,0.8798,0.9113,0.9673,1.0138,1.0592,1.1217,1.1628,1.1927,1.2323,1.2618,1.2793,1.3104,1.343,1.3742,1.4046,1.4455,1.4915,1.5232,1.5558,1.5869,1.6132,1.6207,1.6306,1.6534,1.6778,1.7018,1.7461,1.7488,1.7557,1.7908,1.8068,1.8305,1.8745,1.8936,1.9139,1.9465,1.956,1.9669,1.969,1.969,1.969,1.969,1.969,1.969,1.969,1.969,1.969,1.969,1.969,1.969,1.969,1.9762,1.9797,1.9797,2.015,2.0357,2.0392,2.0613,2.0827,2.1006,2.1183,2.1402,2.1601,2.1781,2.1945,0.0,0.0,0.0,0.0,0.0,0.0,0.0,0.7162,0.7138,0.7134,0.6436,0.5837,0.5727,0.5559,0.5391,0.523,0.5234,0.5179,0.5066,0.4933,0.482,0.4904,0.4601,0.4484,0.4677,0.4567,0.457,0.4853,0.4718,0.4696,0.4914,0.4837,0.488,0.5093,0.5175,0.5458,0.5833,0.6086,0.649,0.7036,0.7348,0.7859,0.841,0.8355,0.848,0.8679,0.8798,0.9113,0.9517,1.0043,1.0667,1.1226,1.1778,1.2126,1.2421,1.2774,1.3007,1.316,1.3563,1.3941,1.4362,1.4593,1.4994,1.5457,1.5635,1.5957,1.6275,1.6392,1.6479,1.6565,1.6718,1.7002,1.7352,1.772,1.7882,1.8002,1.8358,1.8592,1.8822,1.9139,1.9302,1.9413,1.9611,1.9654,1.969,1.969,1.969,1.969,1.969,1.969,1.969,1.969,1.969,1.969,1.969,1.969,1.969,1.969,1.9762,1.9762,1.9762,1.9925,2.008,2.02,2.0392,2.0561,2.0728,2.0893,2.1119,2.1293,2.1495,2.1678,0.0,0.0,0.0,0.0,0.0,0.0,0.0,0.0,0.7358,0.0,0.7058,0.6756,0.6213,0.61,0.5991,0.5719,0.5719,0.5719,0.5664,0.5473,0.5377,0.5647,0.5415,0.5324,0.5592,0.5504,0.5454,0.5458,0.5259,0.5117,0.5169,0.5077,0.504,0.509,0.5551,0.5892,0.6043,0.6754,0.7295,0.7616,0.815,0.8397,0.8386,0.8736,0.8903,0.8956,0.9106,0.9361,0.9814,1.0403,1.0972,1.1528,1.2026,1.2421,1.2676,1.2988,1.3248,1.3563,1.3836,1.4305,1.4858,1.513,1.5457,1.578,1.6057,1.6231,1.6392,1.6479,1.6577,1.6718,1.6918,1.7282,1.772,1.8108,1.8528,1.8827,1.8903,1.904,1.9265,1.9501,1.9596,1.9654,1.969,1.969,1.969,1.969,1.969,1.969,1.969,1.969,1.969,1.969,1.969,1.969,1.969,1.969,1.969,1.969,1.9726,1.9726,1.9726,1.9762,1.9797,1.9884,2.0166,2.0357,2.0444,2.0561,2.0695,2.0893,2.1135,2.1356,0.0,0.0,0.0,0.0,0.0,0.0,0.0,0.0,0.7553,0.7748,0.7768,0.7484,0.6681,0.6472,0.6365,0.6263,0.6263,0.6263,0.6263,0.6036,0.5916,0.6008,0.5839,0.5719,0.5859,0.5822,0.577,0.577,0.5641,0.5636,0.5736,0.575,0.5795,0.5931,0.617,0.6371,0.6475,0.6979,0.7339,0.7691,0.8097,0.8335,0.8366,0.8862,0.9095,0.9263,0.9465,0.9769,1.019,1.0863,1.1427,1.1877,1.2323,1.2627,1.2832,1.3152,1.3488,1.381,1.4305,1.4812,1.5277,1.5591,1.5901,1.6175,1.6275,1.6448,1.6577,1.662,1.6748,1.6931,1.7183,1.7529,1.7948,1.8383,1.8836,1.9205,1.9317,1.9391,1.9501,1.9632,1.969,1.969,1.969,1.969,1.969,1.969,1.969,1.969,1.969,1.969,1.969,1.969,1.969,1.969,1.969,1.969,1.969,1.969,1.969,1.969,1.969,1.969,1.9726,1.9726,1.9919,2.008,2.02,2.0254,2.0376,2.0579,2.086,2.1103,0.0,0.0,0.0,0.0,0.0,0.0,0.0,0.0,0.7734,0.8072,0.8095,0.7866,0.7121,0.6901,0.6792,0.6744,0.6744,0.6744,0.6744,0.6507,0.6357,0.6417,0.6229,0.6122,0.618,0.6136,0.6136,0.6136,0.6085,0.6102,0.6245,0.6282,0.6338,0.6561,0.6618,0.67,0.6807,0.7158,0.7449,0.7655,0.8024,0.8212,0.8329,0.8955,0.9413,0.9702,0.9938,1.0293,1.071,1.1368,1.1828,1.2224,1.2627,1.2832,1.2978,1.3382,1.3705,1.4046,1.4766,1.5277,1.5691,1.6001,1.6262,1.6436,1.6491,1.659,1.6718,1.6761,1.6931,1.717,1.7419,1.7814,1.8266,1.863,1.9064,1.9413,1.9611,1.9647,1.9632,1.969,1.969,1.969,1.969,1.969,1.969,1.969,1.969,1.969,1.969,1.969,1.969,1.969,1.969,1.969,1.969,1.969,1.969,1.969,1.969,1.969,1.969,1.969,1.969,1.969,1.9762,1.9848,1.9955,2.008,2.022,2.0376,2.0662,2.0925,0.0,0.0,0.0,0.0,0.0,0.0,0.0,0.0,0.7811,0.7889,0.7805,0.7679,0.7489,0.7386,0.7284,0.7092,0.7098,0.7098,0.7098,0.6836,0.677,0.702,0.6836,0.6776,0.7026,0.6858,0.6761,0.6761,0.6597,0.6464,0.6464,0.6416,0.641,0.641,0.6728,0.6896,0.6896,0.7549,0.7782,0.7592,0.8115,0.8378,0.8416,0.9289,0.993,1.0448,1.0614,1.0972,1.1469,1.1778,1.2126,1.2529,1.2783,1.2978,1.3133,1.3631,1.4057,1.4466,1.5085,1.5579,1.6044,1.6306,1.6436,1.6522,1.6633,1.6675,1.6718,1.6918,1.7183,1.7432,1.772,1.8187,1.8669,1.8988,1.9339,1.9611,1.969,1.969,1.969,1.969,1.969,1.969,1.969,1.969,1.969,1.969,1.969,1.969,1.969,1.969,1.969,1.969,1.969,1.969,1.969,1.969,1.969,1.969,1.969,1.969,1.969,1.969,1.969,1.969,1.9762,1.9797,1.9797,2.0131,2.0304,2.0304,2.0628,2.0844,0.0,0.0,0.0,0.0,0.0,0.7204,0.7448,0.773,0.7965,0.8061,0.8238,0.8234,0.7897,0.7588,0.7348,0.7178,0.7178,0.7127,0.7033,0.6906,0.6843,0.6944,0.6824,0.6718,0.6817,0.6785,0.6734,0.6734,0.6649,0.6681,0.6768,0.6716,0.6745,0.6781,0.6914,0.7009,0.7108,0.7432,0.7607,0.7674,0.8076,0.8326,0.848,0.9333,1.0049,1.0628,1.108,1.1536,1.2026,1.2274,1.2618,1.2987,1.3142,1.3344,1.3583,1.4057,1.4362,1.4674,1.5367,1.578,1.6032,1.6349,1.6479,1.6522,1.6675,1.6803,1.6931,1.7183,1.7502,1.7841,1.8161,1.8567,1.8965,1.9339,1.956,1.9654,1.969,1.969,1.969,1.969,1.969,1.969,1.969,1.969,1.969,1.969,1.969,1.969,1.969,1.969,1.969,1.969,1.969,1.969,1.969,1.969,1.969,1.969,1.969,1.969,1.969,1.969,1.969,1.969,1.9904,1.9975,1.9919,2.0166,2.0357,2.0512,2.0745,2.0991,0.0,0.0,0.0,0.0,0.0,0.7335,0.7634,0.781,0.8009,0.8293,0.8484,0.8527,0.8292,0.8028,0.7746,0.7419,0.7377,0.7335,0.7189,0.7112,0.7076,0.7083,0.6999,0.6921,0.6921,0.6921,0.6921,0.6921,0.6878,0.6921,0.6999,0.6956,0.695,0.6979,0.7027,0.7118,0.7251,0.7461,0.7663,0.787,0.8226,0.8504,0.8781,0.956,1.0218,1.077,1.1508,1.2092,1.2529,1.2715,1.2987,1.3362,1.36,1.38,1.4057,1.4547,1.4823,1.5085,1.5691,1.6001,1.6175,1.6436,1.6522,1.6522,1.6718,1.6876,1.7086,1.7474,1.7828,1.8161,1.8567,1.8927,1.928,1.956,1.9654,1.969,1.969,1.969,1.969,1.969,1.969,1.969,1.969,1.969,1.969,1.969,1.969,1.969,1.969,1.969,1.969,1.969,1.969,1.969,1.969,1.969,1.969,1.969,1.969,1.969,1.969,1.969,1.969,1.969,1.994,2.008,2.0131,2.0376,2.0646,2.0811,2.1071,2.1324,0.0,0.0,0.0,0.0,0.0,0.0,0.7856,0.0,0.796,0.8548,0.8503,0.8464,0.8696,0.8715,0.848,0.7814,0.7704,0.7663,0.7523,0.7516,0.7482,0.7412,0.7412,0.7412,0.7419,0.7419,0.7419,0.7419,0.7293,0.7209,0.7209,0.707,0.7021,0.7021,0.716,0.7293,0.7412,0.7746,0.8036,0.8218,0.8618,0.8958,0.9234,0.9985,1.0461,1.0852,1.1791,1.2451,1.291,1.2977,1.3266,1.3668,1.4082,1.4326,1.4512,1.5085,1.5412,1.5603,1.6057,1.6275,1.6392,1.6479,1.6522,1.6565,1.6833,1.696,1.7128,1.7747,1.8043,1.8361,1.8879,1.9332,1.9611,1.969,1.969,1.969,1.969,1.969,1.969,1.969,1.969,1.969,1.969,1.969,1.969,1.969,1.969,1.969,1.969,1.969,1.969,1.969,1.969,1.969,1.969,1.9726,1.9726,1.969,1.9726,1.9726,1.969,1.9726,1.9726,1.9726,1.9919,2.0166,2.041,2.0812,2.1055,2.1215,2.1573,2.1797,0.8183,0.0,0.0,0.0,0.0,0.0,0.8029,0.787,0.7757,0.7828,0.7675,0.7623,0.7895,0.793,0.8007,0.8366,0.8287,0.8118,0.7897,0.7855,0.7814,0.7787,0.7753,0.7704,0.7628,0.7628,0.7628,0.7628,0.7587,0.7552,0.7552,0.7545,0.7503,0.7503,0.7545,0.7663,0.7814,0.8118,0.8447,0.8765,0.9119,0.9408,0.9625,1.0014,1.0424,1.0906,1.173,1.2442,1.3063,1.3559,1.4061,1.4536,1.4777,1.5006,1.5277,1.5558,1.5736,1.5913,1.6219,1.6362,1.6448,1.6577,1.6633,1.6705,1.7031,1.724,1.7488,1.7949,1.8386,1.876,1.9265,1.956,1.9705,1.969,1.969,1.969,1.969,1.969,1.969,1.969,1.969,1.969,1.969,1.969,1.969,1.969,1.969,1.969,1.969,1.969,1.969,1.969,1.9726,1.9762,1.9762,1.9848,1.9884,1.9762,1.9848,1.9884,1.9762,1.9889,1.9995,1.9995,2.022,2.046,2.0695,2.0861,2.1135,2.1497,2.189,2.2065,0.0,0.0,0.0,0.0,0.0,0.0,0.8215,0.7891,0.7603,0.7734,0.7444,0.7242,0.7571,0.7815,0.8061,0.8438,0.8725,0.8788,0.8456,0.8431,0.8357,0.8242,0.8234,0.8201,0.8118,0.8118,0.8118,0.8118,0.8036,0.7961,0.7829,0.7829,0.7829,0.7829,0.7919,0.8077,0.8185,0.8561,0.8895,0.9208,0.9527,0.9774,0.9932,1.0088,1.041,1.0825,1.1531,1.2215,1.2893,1.3817,1.453,1.5006,1.5232,1.5501,1.5768,1.5957,1.6088,1.6163,1.6392,1.6491,1.6534,1.6718,1.6846,1.696,1.7323,1.7557,1.7801,1.8293,1.8798,1.9213,1.9538,1.9632,1.969,1.969,1.969,1.969,1.969,1.969,1.969,1.969,1.969,1.969,1.969,1.969,1.969,1.969,1.969,1.9726,1.9726,1.9726,1.9762,1.9854,1.9904,1.994,2.001,2.0061,2.0096,2.001,2.0061,2.0096,2.0045,2.017,2.0239,2.0289,2.046,2.0728,2.1023,2.1071,2.1355,2.186,2.2111,2.2225,0.0,0.0,0.0,0.0,0.8495,0.0,0.8467,0.7924,0.7514,0.7928,0.7447,0.7052,0.7476,0.7911,0.8226,0.8219,0.8931,0.9402,0.9094,0.907,0.9056,0.8837,0.8837,0.8797,0.8797,0.8797,0.8797,0.8797,0.8651,0.8439,0.8185,0.8177,0.8144,0.8136,0.8365,0.8529,0.8602,0.9056,0.9377,0.9567,0.9853,1.0049,1.0127,1.0244,1.0428,1.0641,1.1335,1.1933,1.2535,1.3925,1.4734,1.5163,1.5522,1.5856,1.6076,1.6306,1.6392,1.6436,1.6479,1.6577,1.6718,1.6876,1.7044,1.7282,1.7639,1.7868,1.8187,1.8707,1.9213,1.9611,1.9611,1.9669,1.969,1.969,1.969,1.969,1.969,1.969,1.969,1.969,1.969,1.969,1.9726,1.9726,1.9726,1.9762,1.9747,1.9762,1.9833,1.9869,1.994,2.01,2.017,2.022,2.0339,2.0357,2.0357,2.0373,2.0357,2.0392,2.0444,2.0478,2.0512,2.0595,2.0744,2.0974,2.1325,2.1402,2.1708,2.2168,2.2254,2.231,0.0,0.0,0.0,0.0,0.9085,0.0,0.8971,0.8156,0.7387,0.7379,0.6617,0.6076,0.6417,0.6917,0.7478,0.8082,0.8674,0.9101,0.9217,0.957,0.9734,0.9588,0.9588,0.9509,0.9359,0.939,0.939,0.9359,0.935,0.931,0.9191,0.9199,0.9151,0.9039,0.9079,0.9159,0.9319,0.9506,0.9713,0.9902,1.001,1.0118,1.0244,1.0351,1.0495,1.0708,1.1483,1.2092,1.2603,1.4051,1.4879,1.5266,1.596,1.6306,1.6423,1.6479,1.6479,1.6479,1.6522,1.6577,1.6718,1.6918,1.7128,1.7432,1.7841,1.8147,1.8539,1.9101,1.9465,1.9611,1.9669,1.969,1.969,1.969,1.969,1.969,1.969,1.969,1.969,1.969,1.969,1.9726,1.9762,1.9762,1.9833,2.001,2.003,2.008,2.02,2.0254,2.0308,2.0342,2.0512,2.0662,2.0695,2.0795,2.0828,2.0695,2.0795,2.0828,2.0728,2.0974,2.1119,2.1151,2.1325,2.1466,2.1559,2.1648,2.184,2.2044,2.2237,2.231,0.0,0.0,0.0,1.0271,1.0183,0.0,0.0,0.9251,0.8436,0.8363,0.7497,0.6794,0.6956,0.744,0.7898,0.8207,0.8829,0.9231,0.9021,0.9402,0.9629,0.9473,0.951,0.9483,0.9263,0.9327,0.9449,0.9696,0.9945,1.0021,0.9922,0.9804,0.9686,0.9567,0.9616,0.9686,0.9734,0.9932,1.0088,1.0137,1.0283,1.0351,1.0351,1.0495,1.0639,1.0878,1.1501,1.1992,1.2427,1.3639,1.4329,1.4676,1.5927,1.6436,1.6522,1.6522,1.6522,1.6522,1.6522,1.6607,1.6846,1.7044,1.7337,1.772,1.8135,1.8567,1.9026,1.9413,1.956,1.9669,1.969,1.969,1.969,1.969,1.969,1.969,1.969,1.969,1.969,1.969,1.9726,1.9762,1.9797,1.9869,1.996,2.0065,2.017,2.0308,2.0444,2.0545,2.0662,2.0794,2.0925,2.099,2.1055,2.1135,2.1182,2.1103,2.1197,2.1245,2.1246,2.1402,2.1526,2.1556,2.1648,2.1724,2.1738,2.184,2.194,2.1998,2.2192,2.231,0.0,0.0,0.0,0.0,0.0,1.1149,0.0,0.0,0.0,0.9395,0.8562,0.7846,0.7846,0.8263,0.8572,0.8388,0.9069,0.9408,0.8733,0.9088,0.9317,0.9036,0.9182,0.9203,0.8925,0.9018,0.9308,0.9766,1.0252,1.0474,1.0338,1.0166,1.005,1.001,1.0127,1.0166,1.0166,1.039,1.0467,1.0428,1.0582,1.0611,1.0534,1.0715,1.0943,1.1132,1.1531,1.1909,1.2317,1.3264,1.3729,1.4076,1.5645,1.6286,1.6371,1.6471,1.6522,1.6522,1.6522,1.6705,1.6918,1.717,1.7584,1.8083,1.8503,1.8965,1.9413,1.9574,1.9669,1.969,1.969,1.969,1.969,1.969,1.969,1.969,1.969,1.969,1.969,1.969,1.9762,1.9848,1.9848,2.001,2.015,2.022,2.0342,2.0545,2.0697,2.0811,2.099,2.1199,2.1262,2.1325,2.1371,2.1448,2.1479,2.1479,2.1554,2.1645,2.1738,2.1917,2.2043,2.2102,2.2235,2.2332,2.2345,2.2434,2.2312,2.2044,2.2237,2.2395,0.0,0.0,0.0,0.0,1.1545,1.139,1.0792,0.0,0.9665,0.9022,0.0,0.8056,0.799,0.0,0.0,0.8572,0.9058,0.9195,0.8539,0.8984,0.9219,0.8724,0.9093,0.9161,0.8527,0.8914,0.9272,0.9429,0.9885,1.0273,1.0552,1.0421,1.05,1.0753,1.0802,1.0812,1.0812,1.085,1.084,1.085,1.084,1.0878,1.0943,1.1132,1.1345,1.1531,1.1945,1.2246,1.2544,1.3423,1.3816,1.4038,1.5302,1.5781,1.5856,1.6333,1.6522,1.6522,1.6633,1.6761,1.696,1.7267,1.7842,1.8517,1.8912,1.9176,1.945,1.9617,1.969,1.969,1.969,1.969,1.969,1.969,1.969,1.969,1.969,1.969,1.969,1.969,1.9848,1.997,1.997,2.0131,2.0373,2.0577,2.0695,2.086,2.1103,2.1199,2.1277,2.1355,2.1526,2.1664,2.1648,2.1751,2.1811,2.1751,2.1882,2.1911,2.1899,2.2685,2.3126,2.3126,2.3748,2.4084,2.4039,2.4084,2.3459,2.2168,2.2254,2.2649,0.0,0.0,1.2797,1.2572,1.2542,1.2447,1.2177,1.1482,1.0806,1.0501,0.0,0.0,0.0,0.0,0.0,0.0,0.9499,0.9424,0.8839,0.9253,0.9221,0.8132,0.857,0.8672,0.801,0.8424,0.8781,0.8889,0.9289,0.9698,1.0097,1.0201,1.0401,1.0754,1.1079,1.1255,1.1255,1.1367,1.1367,1.1255,1.1367,1.1367,1.1282,1.1627,1.1836,1.1982,1.233,1.2579,1.278,1.3201,1.3442,1.3588,1.4475,1.5005,1.5279,1.5831,1.6099,1.6233,1.6646,1.6973,1.7267,1.7774,1.8307,1.8827,1.9116,1.9376,1.9523,1.9654,1.969,1.969,1.969,1.969,1.969,1.969,1.969,1.969,1.969,1.969,1.9809,2.0198,2.0384,2.0578,2.0971,2.0992,2.1016,2.117,2.167,2.1954,2.1777,2.1794,2.173,2.1544,2.1603,2.1664,2.1694,2.1869,2.194,2.1911,2.2089,2.2163,2.2135,2.2916,2.3363,2.3363,2.409,2.4444,2.443,2.4444,2.414,2.3549,2.3562,2.3731,1.2943,1.3082,1.3198,1.3198,1.3198,1.316,1.301,1.2391,1.1726,1.1412,1.0696,0.0,0.0,0.0,0.0,0.0,0.0,0.9705,0.9189,0.9591,0.9417,0.7986,0.8127,0.815,0.7643,0.7767,0.7898,0.7944,0.8345,0.8844,0.944,0.986,1.0364,1.0909,1.1444,1.1737,1.1737,1.1884,1.1884,1.1737,1.1884,1.1884,1.1774,1.2113,1.2294,1.2389,1.2662,1.2838,1.2943,1.3094,1.3163,1.3304,1.3801,1.4243,1.4701,1.5334,1.5741,1.6066,1.6628,1.7205,1.7747,1.824,1.8683,1.9055,1.9265,1.9465,1.9611,1.969,1.969,1.969,1.969,1.969,1.969,1.969,1.969,1.969,1.969,1.9824,2.0124,2.0617,2.0918,2.1212,2.1732,2.1667,2.1657,2.1817,2.2363,2.2706,2.2447,2.2401,2.2325,2.2101,2.2099,2.2162,2.2318,2.2498,2.2547,2.2375,2.2338,2.2395,2.2598,2.3308,2.3799,2.4002,2.4712,2.5084,2.5084,2.5084,2.5084,2.5067,2.4709,2.4625,1.306,1.3129,1.3198,1.3198,1.3198,1.306,1.2522,1.2416,1.2077,1.0957,1.0694,1.0533,1.0071,0.0,0.0,0.0,0.0,0.0,0.0,0.9899,0.9797,0.8538,0.7937,0.7624,0.7611,0.6968,0.6562,0.6564,0.6991,0.766,0.8596,0.9576,1.0532,1.1442,1.206,1.2377,1.2377,1.2365,1.2365,1.2377,1.2365,1.2401,1.2473,1.2627,1.2709,1.2803,1.299,1.3107,1.3107,1.3163,1.3267,1.3391,1.3506,1.3633,1.395,1.4961,1.5685,1.623,1.652,1.7353,1.8319,1.85,1.8822,1.9139,1.9339,1.9501,1.9611,1.969,1.969,1.969,1.969,1.969,1.969,1.969,1.969,1.969,1.969,2.0213,2.0692,2.0722,2.1278,2.1792,2.1807,2.1963,2.2171,2.2346,2.2459,2.2592,2.2853,2.2873,2.298,2.3312,2.34,2.3569,2.3901,2.403,2.3919,2.338,2.2699,2.2632,2.3325,2.4052,2.478,2.5524,2.6251,2.6623,2.6623,2.6623,2.6623,2.659,2.5184,2.4864,1.3159,1.3129,1.3198,1.3198,1.3198,1.3148,1.296,1.2634,1.2303,1.1883,1.1219,1.0671,1.0552,0.0,0.0,0.0,0.0,0.0,0.0,1.0487,1.0627,1.024,0.9163,0.8286,0.7846,0.7567,0.7222,0.6744,0.685,0.7369,0.8341,0.9353,1.0359,1.1335,1.2261,1.2697,1.2662,1.2697,1.2697,1.2662,1.2697,1.2733,1.2685,1.2885,1.299,1.299,1.3198,1.3301,1.3288,1.3425,1.348,1.3547,1.3735,1.3901,1.4073,1.4682,1.5412,1.6297,1.749,1.8307,1.8812,1.8988,1.9228,1.9465,1.9501,1.9596,1.9654,1.969,1.969,1.969,1.969,1.969,1.969,1.969,1.969,1.969,1.969,2.0228,2.0842,2.1276,2.1929,2.2555,2.3043,2.3175,2.3188,2.3025,2.3372,2.3639,2.3441,2.3484,2.3423,2.3215,2.3326,2.3567,2.3918,2.4178,2.4079,2.3444,2.3613,2.3646,2.341,2.4577,2.5355,2.5609,2.6319,2.6691,2.6691,2.6691,2.6691,2.6674,2.6184,2.6082,1.3515,1.3313,1.3198,1.3198,1.3198,1.3198,1.3198,1.2922,1.2622,1.2454,1.1826,1.1257,1.0924,1.0689,0.0,0.0,0.0,0.0,0.0,1.0968,1.1132,1.1239,1.0178,0.9164,0.8463,0.8014,0.7523,0.695,0.6927,0.748,0.8705,0.9778,1.0792,1.1783,1.2664,1.3104,1.3047,1.3082,1.3082,1.3047,1.3082,1.3047,1.3012,1.3163,1.3198,1.3232,1.3391,1.3493,1.356,1.3661,1.3749,1.3848,1.4078,1.4227,1.4429,1.4627,1.5449,1.6675,1.8243,1.895,1.9168,1.9339,1.9523,1.9647,1.9647,1.9669,1.969,1.969,1.969,1.969,1.969,1.969,1.969,1.969,1.969,1.969,1.969,2.0228,2.0842,2.13,2.1899,2.2565,2.3111,2.3212,2.331,2.36,2.4025,2.423,2.4045,2.4092,2.4106,2.3893,2.4068,2.4386,2.4813,2.4827,2.4647,2.4205,2.4374,2.4391,2.4188,2.5101,2.5727,2.5998,2.6454,2.6691,2.6691,2.6691,2.6691,2.6691,2.6691,2.6691]}]]